     2.11           OBSERVATION DATA    G (GPS)             RINEX VERSION / TYPE
teqc 2010Oct21 OPUS Account 20111030 16:27:47UTC            PGM / RUN BY / DATE
W 1522                                                      MARKER NAME
1176                                                        MARKER NUMBER
CSMIDDLETON NGS                                             OBSERVER / AGENCY
0440103897 TRIMBLE 5700 1.04                                REC # / TYPE / VERS
12299603 TRM41249.00 NONE                                   ANT # / TYPE
  -741413.3095 -5503156.9030  3127567.1026                  APPROX POSITION XYZ
        2.0000        0.0000        0.0000                  ANTENNA: DELTA H/E/N
     1     1                                                WAVELENGTH FACT L1/2
     5    L1    L2    C1    P1    P2                        # / TYPES OF OBSERV
    15                                                      LEAP SECONDS
  2011     9    27     0     0   30.0000000     GPS         TIME OF FIRST OBS
                                                            END OF HEADER
 11  9 27  0  0 30.0000000  0  9G12G02G29G25G30G10G15G05G26
 -49951071.18658 -38902647.56155  21949645.5164                   21949647.7854
 -63517582.29157 -49473792.89555  21788099.0084                   21788099.3714
 -26644904.64057 -20744211.40755  21844539.7504                   21844542.5124
 -39275276.79258 -30582940.50356  21549306.1414                   21549310.4804
 -19825253.66157 -15429135.89654  22588558.1644                   22588561.3834
 -44909818.59856 -34980046.95753  24290661.1174                   24290667.6914
  -6126639.16057  -4755005.56954  23834461.7034                   23834468.7344
 -52460333.72458 -40857155.38956  20442923.0554                   20442923.6994
 -16507823.82356 -12843818.14054  22924545.0004                   22924550.1134
 11  9 27  0  1  0.0000000  0  9G12G02G29G25G30G10G15G05G26
 -49941962.90448 -38895550.20045  21951378.7274                   21951380.6334
 -63544517.82147 -49494781.58345  21782973.6254                   21782973.5394
 -26792407.31147 -20859148.46046  21816471.1334                   21816473.5594
 -39317185.65248 -30615596.72646  21541331.2894                   21541335.2194
 -19912161.31147 -15496856.02545  22572020.2274                   22572024.2384
 -44871163.69746 -34949926.04843  24298016.9384                   24298023.6604
  -6294132.68947  -4885519.62644  23802588.2734                   23802595.3794
 -52489547.97548 -40879919.70446  20437363.8594                   20437364.7074
 -16668927.58247 -12969353.28744  22893887.8444                   22893892.2544
 11  9 27  0  1 30.0000000  0  9G12G02G29G25G30G10G15G05G26
 -48357092.62948 -37660586.34046  22252969.7344                   22252971.5084
 -61995905.57947 -48288070.73445  22077664.1804                   22077664.2774
 -25364286.43147 -19746326.87546  22088233.5554                   22088235.9064
 -37783110.30548 -29420213.31446  21833255.8834                   21833260.3284
 -18423030.84747 -14336494.50545  22855392.6724                   22855395.4104
 -43256998.34846 -33692134.77042  24605182.4224                   24605188.6914
  -4886194.19746  -3788424.25044  24070508.7424                   24070517.2114
 -50942852.38447 -39674702.33847  20731690.0704                   20731690.8014
 -15254368.98746 -11867099.57544  23163068.8984                   23163073.6024
 11  9 27  0  2  0.0000000  0  9G12G02G29G25G30G10G15G05G26
 -48347301.39048 -37652956.83246  22254832.8524                   22254835.1054
 -62022585.73547 -48308860.44945  22072587.4064                   22072587.2424
 -25511388.31547 -19860951.60146  22060240.7584                   22060242.9574
 -37823893.91748 -29451992.71146  21825494.7584                   21825499.0354
 -18508706.78647 -14403254.87444  22839088.7344                   22839092.4734
 -43218160.94145 -33661871.73042  24612571.9224                   24612580.0514
  -5053670.79847  -3918925.08244  24038639.3914                   24038646.8134
 -50971089.81948 -39696705.50546  20726316.4844                   20726316.8284
 -15414993.83146 -11992261.54744  23132503.5554                   23132508.4964
 11  9 27  0  2 30.0000000  0  9G12G02G29G25G30G10G15G05G26
 -48337175.79147 -37645066.77145  22256759.1254                   22256761.0904
 -62049141.02047 -48329552.84645  22067533.9844                   22067534.2194
 -25658289.66547 -19975420.07046  22032286.6254                   22032288.3324
 -37864120.42648 -29483338.01546  21817840.1094                   21817844.4224
 -18593770.01547 -14469537.80144  22822901.7974                   22822904.9884
 -43179238.65046 -33631542.45043  24619980.0474                   24619985.2584
  -5221137.73547  -4049418.40044  24006771.5864                   24006778.8594
 -50998845.05248 -39718332.93447  20721035.1254                   20721035.9494
 -15575376.85547 -12117235.06344  23101982.8444                   23101988.1914
 11  9 27  0  3  0.0000000  0  9G12G02G29G25G30G10G15G05G26
 -48326716.86447 -37636916.95546  22258750.0474                   22258752.4144
 -62075569.64148 -48350146.57145  22062504.5474                   22062504.7664
 -25804986.64647 -20089729.30546  22004370.4614                   22004372.8794
 -37903789.84748 -29514249.23746  21810291.7734                   21810295.9344
 -18678218.75647 -14535341.94744  22806831.5704                   22806834.1954
 -43140232.60446 -33601147.96743  24627401.6414                   24627408.1914
  -5388590.56247  -4179900.70744  23974905.3364                   23974912.8094
 -51026117.96248 -39739584.52746  20715844.8204                   20715845.3954
 -15735512.58747 -12242015.90844  23071509.8984                   23071514.1524
 11  9 27  0  3 30.0000000  0  9G12G02G29G25G30G10G15G05G26
 -48315931.46248 -37628512.76445  22260802.4534                   22260804.7544
 -62101874.66347 -48370643.97145  22057499.0474                   22057499.2774
 -25951480.11647 -20203879.92846  21976493.3444                   21976495.9964
 -37942907.01348 -29544730.12646  21802847.4694                   21802851.3244
 -18762056.31047 -14600669.82044  22790877.5474                   22790880.8834
 -43101147.84746 -33570692.18643  24634838.5474                   24634845.1214
  -5556029.49947  -4310372.14444  23943043.1484                   23943049.6024
 -51052914.43248 -39760464.85246  20710745.8524                   20710746.5594
 -15895400.48147 -12366603.61944  23041084.0554                   23041088.7194
 11  9 27  0  4  0.0000000  0  9G12G02G29G25G30G10G15G05G26
 -48304820.71347 -37619855.04445  22262916.6564                   22262919.1524
 -62128054.31748 -48391043.69345  22052517.4064                   22052517.4884
 -26097766.05647 -20317868.84446  21948656.2114                   21948658.1334
 -37981472.08048 -29574780.81246  21795509.0084                   21795513.1054
 -18845281.19547 -14665520.30444  22775040.1484                   22775042.7344
 -43061985.31446 -33540175.64542  24642291.2974                   24642297.4494
  -5723450.01747  -4440829.30444  23911183.5944                   23911189.9494
 -51079234.29048 -39780973.79446  20705737.5084                   20705738.3594
 -16055035.30646 -12490994.10644  23010706.7734                   23010711.1644
 11  9 27  0  4 30.0000000  0  9G12G02G29G25G30G10G15G05G26
 -48293383.33747 -37610942.80345  22265093.0164                   22265095.2274
 -62154104.19548 -48411342.26345  22047559.7504                   22047560.2854
 -26243838.24748 -20431691.21246  21920859.8524                   21920862.1914
 -38019482.55348 -29604399.34646  21788275.7584                   21788279.7934
 -18927889.32947 -14729890.17744  22759320.5784                   22759323.2774
 -43022742.87246 -33509596.94942  24649758.8754                   24649764.4614
  -5890845.02546  -4571266.57744  23879329.6254                   23879335.4654
 -51105075.89248 -39801110.07847  20700820.0164                   20700820.5234
 -16214408.94747 -12615181.08744  22980378.4844                   22980381.9884
 11  9 27  0  5  0.0000000  0  9G12G02G29G25G30G15G05G26G21
 -48281627.60247 -37601782.49645  22267329.9774                   22267332.3794
 -62180029.97448 -48431544.14145  22042626.5944                   22042626.9844
 -26389699.82247 -20545349.43746  21893103.1484                   21893105.3164
 -38056945.60648 -29633591.33546  21781146.6644                   21781150.6684
 -19009886.17247 -14793783.78044  22743717.3364                   22743720.4774
  -6058217.00247  -4701685.88944  23847478.9694                   23847485.4024
 -51130446.90148 -39820879.66646  20695992.0084                   20695992.1804
 -16373523.37747 -12739166.08444  22950099.4534                   22950104.1724
   1388477.07856   1093430.53453  25222444.1804                   25222448.7464
 11  9 27  0  5 30.0000000  0  9G12G02G29G25G30G15G05G26G21
 -48269565.08047 -37592383.12445  22269625.5554                   22269627.6414
 -62205839.68647 -48451655.58345  22037714.9144                   22037714.9264
 -26535357.10047 -20658848.47646  21865385.3914                   21865387.9264
 -38093871.67348 -29662364.88046  21774119.9224                   21774124.0164
 -19091280.71647 -14857208.00744  22728228.1724                   22728230.9774
  -6225571.80947  -4832091.76344  23815632.3594                   23815638.7154
 -51155357.91448 -39840290.80846  20691251.6334                   20691252.4614
 -16532383.26047 -12862952.71844  22919869.1334                   22919873.8094
   1260323.92146    993571.18443  25198056.2974                   25198061.9024
 11  9 27  0  6  0.0000000  0  9G12G02G29G25G30G15G05G26G21
 -48257193.91148 -37582743.26345  22271979.5004                   22271982.0274
 -62231528.60747 -48471672.90345  22032826.3754                   22032826.6994
 -26680803.23947 -20772183.00046  21837708.2504                   21837709.8914
 -38130257.81248 -29690717.70946  21767195.8594                   21767200.3164
 -19172068.25947 -14920159.28044  22712854.7034                   22712858.3094
  -6392901.63846  -4962478.25544  23783790.0554                   23783795.9534
 -51179806.16648 -39859341.34846  20686599.2584                   20686600.0554
 -16690980.15247 -12986534.41544  22889689.0394                   22889692.5204
   1132204.38946    893738.04443  25173675.5164                   25173680.4264
 11  9 27  0  6 30.0000000  0  9G12G02G29G25G30G15G05G26G21
 -48244510.09347 -37572859.77345  22274393.3754                   22274395.9494
 -62257089.57247 -48491590.49445  22027962.3364                   22027962.8364
 -26826028.83847 -20885345.68546  21810072.6174                   21810074.1214
 -38166098.75948 -29718645.72546  21760375.6564                   21760379.4384
 -19252242.09147 -14982632.29244  22697598.3204                   22697601.1804
  -6560196.65347  -5092837.59944  23751953.9844                   23751960.4144
 -51203786.66347 -39878027.41546  20682035.4384                   20682035.8554
 -16849303.31047 -13109902.83744  22859561.2194                   22859565.2114
   1004125.50946    793936.59843  25149303.5474                   25149307.8244
 11  9 27  0  7  0.0000000  0  9G12G02G29G25G30G15G05G26G21
 -48231516.64147 -37562735.01545  22276865.3984                   22276868.4734
 -62282522.08947 -48511408.03145  22023122.5394                   22023122.8834
 -26971031.38047 -20998334.52946  21782479.0084                   21782481.0004
 -38201396.11448 -29746150.14346  21753658.4384                   21753662.7544
 -19331802.13647 -15044627.04144  22682458.6804                   22682460.8984
  -6727453.58447  -5223167.26544  23720126.2974                   23720131.7664
 -51227301.41248 -39896350.55346  20677561.0314                   20677561.0394
 -17007348.89847 -13233054.94044  22829486.0164                   22829490.4614
    876086.77146    694166.45243  25124938.0394                   25124942.2074
 11  9 27  0  7 30.0000000  0  9G12G02G29G25G30G15G05G26G21
 -48218218.60948 -37552372.91545  22279396.6334                   22279398.9964
 -62307828.26047 -48531127.09245  22018307.1884                   22018307.8324
 -27115810.48747 -21111149.28046  21754928.7034                   21754930.7464
 -38236153.91948 -29773234.14846  21747044.5864                   21747048.9574
 -19410750.89247 -15106145.49144  22667434.7194                   22667437.5744
  -6894671.90646  -5353466.85144  23688305.2894                   23688311.5274
 -51250354.93448 -39914314.28946  20673173.6954                   20673174.2704
 -17165115.40747 -13355989.60144  22799463.6564                   22799467.6644
    748085.25446    594425.33743  25100580.0084                   25100583.8714
 11  9 27  0  8  0.0000000  0  9G12G02G29G25G30G15G05G26G21
 -48204621.29147 -37541777.59745  22281983.5864                   22281986.1294
 -62333010.33947 -48550749.49045  22013515.2424                   22013515.0594
 -27260366.62047 -21223790.27146  21727419.9774                   21727421.6604
 -38270376.43648 -29799901.03746  21740532.0234                   21740536.3554
 -19489091.09347 -15167189.70944  22652527.2504                   22652530.2584
  -7061850.92546  -5483735.82643  23656491.3284                   23656496.7504
 -51272951.60148 -39931922.03346  20668873.9144                   20668874.0314
 -17322601.17647 -13478705.48344  22769494.8364                   22769498.4734
    620118.53846    494711.15643  25076228.7424                   25076233.9414
 11  9 27  0  8 30.0000000  0  9G12G02G29G25G30G15G05G26G21
 -48190727.89847 -37530951.58745  22284627.7034                   22284630.0554
 -62358068.58447 -48570275.37045  22008746.8054                   22008747.0004
 -27404698.35147 -21336256.41546  21699954.9454                   21699956.3984
 -38304066.04248 -29826152.67446  21734121.0864                   21734126.0784
 -19566823.47147 -15227760.31044  22637734.9844                   22637737.6334
  -7228987.91947  -5613972.03844  23624686.6414                   23624691.6564
 -51295094.19448 -39949175.95446  20664660.1094                   20664660.5904
 -17479803.36447 -13601200.43044  22739580.4534                   22739583.6724
    492185.32946    395023.31642  25051883.0634                   25051889.1214
 11  9 27  0  9  0.0000000  0  9G12G02G29G25G30G15G05G26G21
 -48176545.28947 -37519900.21145  22287326.4614                   22287329.1294
 -62383006.23347 -48589707.28245  22004001.2194                   22004001.4534
 -27548806.59148 -21448548.41246  21672531.9924                   21672533.3594
 -38337228.39348 -29851993.45746  21727810.6024                   21727814.8484
 -19643952.18847 -15287860.53944  22623058.1174                   22623060.1724
  -7396083.86446  -5744176.25944  23592889.2504                   23592893.9534
 -51316788.35048 -39966080.44546  20660532.1414                   20660532.1174
 -17636721.44147 -13723473.97344  22709719.4224                   22709722.7734
    364281.47546    295358.25842  25027544.1414                   25027549.0984
 11  9 27  0  9 30.0000000  0  9G12G02G29G25G30G15G05G26G21
 -48162072.06547 -37508622.38745  22290080.9384                   22290082.6684
 -62407818.64347 -48609041.64045  21999279.5314                   21999280.0514
 -27692684.57047 -21560660.98746  21645152.5944                   21645154.2424
 -38369860.88548 -29877421.36146  21721600.8204                   21721605.1094
 -19720473.13347 -15347487.15844  22608496.1024                   22608498.3834
  -7563131.34647  -5874342.74144  23561100.8594                   23561106.2584
 -51338032.18648 -39982634.04646  20656489.5084                   20656490.0634
 -17793347.59547 -13845519.99844  22679914.2894                   22679918.2074
    236410.86046    195719.05942  25003209.2814                   25003214.4224
 11  9 27  0 10  0.0000000  0  9G12G02G29G25G30G15G05G26G21
 -48147315.65747 -37497123.88745  22292888.9534                   22292891.0904
 -62432510.32747 -48628281.89645  21994580.9454                   21994580.9494
 -27836334.53547 -21672595.88546  21617816.7584                   21617818.4414
 -38401970.00148 -29902441.44146  21715490.6484                   21715494.8874
 -19796391.17347 -15406644.00444  22594049.3284                   22594052.0904
  -7730131.81947  -6004472.59444  23529320.9694                   23529326.1484
 -51358832.03848 -39998841.68946  20652531.3524                   20652531.5634
 -17949682.40047 -13967339.08344  22650164.2734                   22650168.3054
    108568.76346     96102.11342  24978883.1174                   24978886.9344
 11  9 27  0 10 30.0000000  0  9G12G02G29G25G30G15G05G26G21
 -48132277.61947 -37485405.93845  22295750.6094                   22295752.7734
 -62457079.56347 -48647426.73545  21989905.5164                   21989905.4414
 -27979752.51448 -21784350.03046  21590525.2894                   21590526.5704
 -38433556.35848 -29927054.17246  21709480.0944                   21709484.3984
 -19871705.40747 -15465330.34144  22579717.6254                   22579719.6884
  -7897080.97847  -6134562.44344  23497551.3754                   23497556.5784
 -51379189.00448 -40014704.22746  20648657.5864                   20648657.4964
 -18105720.83947 -14088927.19844  22620471.1724                   22620474.8594
    -19243.79146     -3491.90543  24954561.9924                   24954564.3874
 11  9 27  0 11  0.0000000  0  9G12G02G29G25G30G15G05G26G21
 -48116963.89647 -37473473.17245  22298664.8594                   22298666.9304
 -62481529.31947 -48666478.48045  21985253.0474                   21985253.4734
 -28122939.80648 -21895924.40846  21563277.6334                   21563278.7114
 -38464624.85048 -29951263.36546  21703567.9534                   21703572.5234
 -19946419.17947 -15523548.80544  22565500.1414                   22565502.5704
  -8063978.72747  -6264612.24344  23465791.8594                   23465796.5944
 -51399107.86648 -40030225.39246  20644867.2114                   20644867.4184
 -18261462.14547 -14210283.79845  22590833.7114                   22590837.3284
   -147030.56346   -103065.75442  24930242.5164                   24930248.9804
 11  9 27  0 11 30.0000000  0  9G12G02G29G25G30G15G05G26G21
 -48101377.99847 -37461328.33145  22301630.6334                   22301632.8404
 -62505859.70147 -48685437.18545  21980623.2034                   21980623.0474
 -28265894.05248 -22007317.19346  21536074.1564                   21536075.5044
 -38495177.83348 -29975070.86746  21697753.5634                   21697757.9924
 -20020533.39547 -15581300.08344  22551396.2424                   22551397.7114
  -8230822.38947  -6394619.91044  23434042.4304                   23434047.2814
 -51418591.37348 -40045407.32046  20641159.4614                   20641159.8634
 -18416902.92547 -14331406.22644  22561254.7664                   22561257.7074
   -274792.08946   -202619.98643  24905931.8134                   24905936.3634
 11  9 27  0 12  0.0000000  0  9G12G02G29G25G30G15G05G26G21
 -48085521.99847 -37448973.02045  22304647.7734                   22304650.3554
 -62530069.59547 -48704301.99245  21976016.0084                   21976016.0784
 -28408612.00448 -22118525.84946  21508915.3134                   21508916.7624
 -38525216.60748 -29998477.68146  21692037.6644                   21692041.5744
 -20094047.70347 -15638583.89044  22537406.9614                   22537409.1214
  -8397608.05646  -6524582.35444  23402303.3984                   23402308.3364
 -51437640.76048 -40060250.96446  20637534.6414                   20637534.9184
 -18572038.52847 -14452290.88744  22531733.2274                   22531736.7034
   -402528.37546   -302154.56843  24881623.2344                   24881628.7424
 11  9 27  0 12 30.0000000  0  9G12G02G29G25G30G15G05G26G21
 -46493979.08947 -36208809.74845  22607508.1094                   22607511.0354
 -60978737.49747 -47495471.75245  22271224.7194                   22271224.7074
 -26975666.91148 -21001945.14746  21781596.2974                   21781597.6684
 -36979322.17648 -28793884.59446  21986211.2114                   21986215.5234
 -18591540.29847 -14467798.85744  22823324.5164                   22823326.5204
  -6988907.46147  -5426893.19644  23670369.8284                   23670375.0314
 -49880837.91048 -38847157.81546  20933784.4384                   20933784.3954
 -17151440.31647 -13345330.99045  22802064.2894                   22802067.5824
   1045184.72845    825933.79043  25157113.3594                   25157118.8634
 11  9 27  0 13  0.0000000  0  9G12G02G29G25G30G15G05G26G21
 -46477595.90447 -36196043.65045  22610626.1644                   22610628.2814
 -61002709.35847 -47514151.07345  22266662.8674                   22266663.0314
 -27117909.76248 -21112783.60446  21754527.8754                   21754529.4384
 -37008342.70148 -28816497.96846  21980688.6954                   21980693.2034
 -18663860.55247 -14524152.24544  22809562.4454                   22809564.4804
  -7155572.67346  -5556761.78244  23638653.5704                   23638659.2584
 -49899030.27748 -38861333.66746  20930322.5554                   20930322.7664
 -17305958.56547 -13465734.58144  22772659.9534                   22772663.3484
    917493.88745    726434.65242  25132815.0004                   25132820.5354
 11  9 27  0 13 30.0000000  0  9G12G02G29G25G30G15G05G26G21
 -46460956.58847 -36183077.98245  22613791.9454                   22613795.0904
 -61026564.81247 -47532739.70145  22262123.6724                   22262122.7854
 -27259914.24948 -21223436.32846  21727505.1804                   21727505.8244
 -37036860.11448 -28838719.29746  21975262.4454                   21975266.7424
 -18735587.51247 -14580043.33844  22795913.2974                   22795915.6524
  -7322175.85546  -5686582.04944  23606950.4454                   23606955.4534
 -49916800.38548 -38875180.48246  20926940.9454                   20926941.0394
 -17460165.40547 -13585895.52245  22743315.1564                   22743318.4454
    789822.22145    626950.41743  25108519.8134                   25108525.4024
 11  9 27  0 14  0.0000000  0  9G12G02G29G25G30G15G05G26G21
 -46444063.71547 -36169914.72445  22617006.9064                   22617008.8164
 -61050303.25947 -47551237.14045  22257606.0314                   22257606.1094
 -27401677.79948 -21333901.32546  21700528.3524                   21700529.9884
 -37064876.15348 -28860549.95546  21969931.3984                   21969935.1844
 -18806721.55147 -14635472.42044  22782377.2504                   22782379.9884
  -7488713.54047  -5816351.28344  23575258.7814                   23575264.4844
 -49934150.28148 -38888699.85446  20923639.4064                   20923639.6484
 -17614056.91047 -13705810.73045  22714030.2274                   22714033.6254
    662169.35946    527480.87142  25084228.0704                   25084232.4614
 11  9 27  0 14 30.0000000  0  9G12G02G29G25G30G15G05G26G21
 -46426923.67747 -36156558.89945  22620268.3754                   22620270.8204
 -61073927.72147 -47569645.78345  22253110.3914                   22253110.2504
 -27543201.12448 -21444179.12446  21673597.1484                   21673598.3954
 -37092396.07448 -28881994.02246  21964694.4064                   21964698.5234
 -18877266.24947 -14690442.24544  22768952.7974                   22768955.4964
  -7655186.21847  -5946069.89044  23543579.8524                   23543584.7974
 -49951084.64148 -38901895.43146  20920416.3364                   20920416.6914
 -17767632.14847 -13825479.55445  22684805.8284                   22684808.9964
    534531.93346    428023.27742  25059939.6254                   25059943.4734
 11  9 27  0 15  0.0000000  0  9G12G02G29G25G30G15G05G26G21
 -46409537.40047 -36143011.17645  22623577.1564                   22623579.7624
 -61097436.17647 -47587964.01845  22248636.8134                   22248637.1484
 -27684480.06048 -21554266.49646  21646713.1804                   21646714.1914
 -37119420.30348 -28903051.84846  21959551.7274                   21959555.5004
 -18947220.70047 -14744952.15344  22755641.5704                   22755643.2734
  -7821588.79246  -6075733.84544  23511914.8204                   23511919.1134
 -49967604.79048 -38914768.24246  20917272.7194                   20917273.1214
 -17920886.17247 -13944898.04245  22655642.6414                   22655645.0744
    406911.19446    328578.71643  25035653.9454                   25035658.2464
 11  9 27  0 15 30.0000000  0  9G12G02G29G25G30G15G05G26G21
 -46391905.45647 -36129272.04045  22626932.1884                   22626935.0354
 -61120825.80447 -47606189.67245  22244185.9224                   22244185.9384
 -27825510.14048 -21664159.97346  21619875.4224                   21619877.5274
 -37145948.59748 -28923723.23246  21954503.6024                   21954507.1334
 -19016583.16247 -14799000.78244  22742441.6334                   22742444.7274
  -7987915.64546  -6205338.80844  23480263.1564                   23480267.9774
 -49983710.28748 -38927317.95246  20914208.1414                   20914208.2584
 -18073812.19347 -14064060.97045  22626541.8054                   22626544.4064
    279308.86246    229148.54643  25011372.4534                   25011375.6254
 11  9 27  0 16  0.0000000  0  9G12G02G29G25G30G15G05G26G21
 -46374035.14547 -36115347.16345  22630333.2344                   22630335.6414
 -61144100.32847 -47624325.63445  22239756.7814                   22239757.2034
 -27966292.62948 -21773860.51446  21593085.5554                   21593086.2034
 -37171986.91148 -28944012.81046  21949548.5004                   21949552.8834
 -19085358.12847 -14852591.60344  22729354.1094                   22729356.7154
  -8154167.84347  -6334885.61944  23448626.1804                   23448630.5984
 -49999407.16948 -38939549.25346  20911221.2114                   20911221.5514
 -18226410.81047 -14182968.77845  22597502.4304                   22597505.4344
    151720.86746    129729.46743  24987093.2034                   24987095.5354
 11  9 27  0 16 30.0000000  0  9G12G02G29G25G30G15G05G26G21
 -46355929.90147 -36101239.21345  22633777.7894                   22633780.9414
 -61167259.99047 -47642372.08545  22235350.2894                   22235350.1374
 -28106826.21248 -21883367.10646  21566342.4924                   21566344.3244
 -37197538.22148 -28963922.91146  21944686.1564                   21944690.6564
 -19153547.19147 -14905725.88545  22716378.2274                   22716381.1334
  -8320342.86047  -6464372.29244  23417004.3134                   23417007.5944
 -50014698.67548 -38951464.67846  20908311.2584                   20908311.4414
 -18378678.90647 -14301619.01745  22568526.4694                   22568529.9534
     24145.92646     30320.59543  24962815.6724                   24962820.0514
 11  9 27  0 17  0.0000000  0  9G12G02G29G25G30G15G05G26G21
 -46337592.83147 -36086950.60645  22637267.6254                   22637270.5274
 -61190304.90748 -47660329.13745  22230964.8284                   22230965.0664
 -28247108.27548 -21992677.71246  21539647.9304                   21539649.3324
 -37222604.83048 -28983455.32246  21939916.4924                   21939920.5594
 -19221151.11147 -14958404.21344  22703513.2114                   22703516.2384
  -8486438.61647  -6593797.23344  23385397.2814                   23385400.7584
 -50029587.18648 -38963066.09046  20905477.9454                   20905478.1484
 -18530612.94447 -14420008.98045  22539614.5164                   22539617.5634
   -103416.12946    -69078.23443  24938541.8754                   24938544.4144
 11  9 27  0 17 30.0000000  0  9G12G02G29G25G30G15G05G26G21
 -46319029.30847 -36072485.56745  22640800.3594                   22640803.3404
 -61213236.95347 -47678198.22745  22226599.9774                   22226601.0084
 -28387138.75148 -22101792.28346  21513001.2974                   21513002.2854
 -37247191.40948 -29002613.68246  21935237.6024                   21935242.1214
 -19288173.13547 -15010629.08944  22690759.2974                   22690762.0274
  -8652453.54147  -6723159.13944  23353804.8594                   23353808.7304
 -50044077.17948 -38974356.99146  20902720.3444                   20902721.0234
 -18682211.31947 -14538137.37845  22510766.4144                   22510769.1454
   -230968.53746   -168469.53943  24914268.8674                   24914271.7114
 11  9 27  0 18  0.0000000  0  9G12G02G29G25G30G15G05G26G21
 -46300241.46747 -36057845.71645  22644375.4694                   22644378.4694
 -61236054.55947 -47695978.12445  22222258.7504                   22222258.8364
 -28526914.19948 -22210708.10346  21486402.5004                   21486403.8404
 -37271298.89348 -29021398.73846  21930650.0634                   21930654.3164
 -19354612.87947 -15062400.23945  22678116.5864                   22678119.2154
  -8818383.29247  -6852454.72244  23322229.0234                   23322232.2664
 -50058169.69048 -38985338.14446  20900039.3524                   20900039.0394
 -18833469.50047 -14656000.69645  22481982.5004                   22481985.3954
   -358510.06346   -267852.37643  24889999.0554                   24890001.4844
 11  9 27  0 18 30.0000000  0  9G12G02G29G25G30G15G05G26G21
 -46281233.39447 -36043034.27345  22647992.2344                   22647994.8244
 -61258759.18447 -47713669.99045  22217937.7034                   22217937.7194
 -28666433.46448 -22319424.31646  21459853.1094                   21459854.3094
 -37294931.05448 -29039813.39446  21926153.1024                   21926157.1174
 -19420472.58747 -15113719.43544  22665583.6564                   22665586.0904
  -8984226.49647  -6981682.85744  23290670.2664                   23290673.8524
 -50071868.48848 -38996012.52346  20897432.2274                   20897432.6174
 -18984384.90047 -14773596.90745  22453264.3054                   22453267.6724
   -486042.94546   -367228.39443  24865729.5944                   24865733.5044
 11  9 27  0 19  0.0000000  0  9G12G02G29G25G30G15G05G26G21
 -46262012.34947 -36028056.85845  22651650.5634                   22651653.1454
 -61281354.14047 -47731276.40645  22213638.3674                   22213638.2154
 -28805698.32048 -22427942.25546  21433351.5004                   21433352.7074
 -37318094.13748 -29057862.53746  21921744.8834                   21921749.4304
 -19485757.09847 -15164590.41644  22653161.0314                   22653162.5004
  -9149983.90747  -7110844.17044  23259127.0164                   23259130.7344
 -50085180.00148 -39006385.11446  20894898.9224                   20894899.3134
 -19134958.13547 -14890926.51445  22424610.9534                   22424613.5314
   -613571.85046   -466601.37643  24841461.2344                   24841465.3634
 11  9 27  0 19 30.0000000  0  9G12G02G29G25G30G15G05G26G21
 -46242578.71547 -36012913.81245  22655348.2734                   22655351.5434
 -61303836.85847 -47748795.33545  22209359.7274                   22209359.9774
 -28944703.94048 -22536258.20146  21406899.5234                   21406900.7584
 -37340787.87148 -29075545.95346  21917426.8134                   21917430.4654
 -19550464.90647 -15215011.96744  22640846.8834                   22640849.0634
  -9315650.03547  -7239934.33444  23227601.6254                   23227605.6484
 -50098103.81948 -39016455.60046  20892439.2114                   20892439.8134
 -19285182.55047 -15007984.31445  22396023.9534                   22396026.9304
   -741094.35746   -565969.32743  24817194.6644                   24817199.5784
 11  9 27  0 20  0.0000000  0  9G12G02G29G25G30G15G05G26G21
 -46222937.02547 -35997608.65545  22659086.0944                   22659089.1334
 -61326208.52448 -47766227.75645  22205102.7034                   22205102.6604
 -29083449.48248 -22644371.46246  21380497.1954                   21380497.9064
 -37363016.20348 -29092866.71446  21913196.6024                   21913200.8524
 -19614598.40047 -15264986.02444  22628643.1644                   22628645.1994
  -9481223.36247  -7368952.19144  23196094.0164                   23196097.2814
 -50110643.99048 -39026227.14546  20890053.2894                   20890053.3714
 -19435056.36547 -15124768.92245  22367504.0864                   22367506.6134
   -868613.16546   -665334.41643  24792928.8444                   24792931.4064
 11  9 27  0 20 30.0000000  0  9G12G02G29G25G30G15G05G26G21
 -46203088.99547 -35982142.68645  22662863.5864                   22662865.4734
 -61348467.42847 -47783572.30545  22200866.8054                   22200867.4144
 -29221930.99048 -22752278.99746  21354144.4384                   21354145.9774
 -37384780.01548 -29109825.51946  21909054.7424                   21909059.3284
 -19678157.19247 -15314512.27044  22616548.0704                   22616549.9384
  -9646699.38247  -7497894.25044  23164604.4924                   23164608.3134
 -50122801.49248 -39035700.48746  20887739.5084                   20887739.5904
 -19584574.24547 -15241276.17445  22339050.9614                   22339054.4224
   -996126.32546   -764695.19743  24768662.5314                   24768666.4654
 11  9 27  0 21  0.0000000  0  9G12G02G29G25G30G15G05G26G21
 -46183040.56447 -35966520.57645  22666678.1564                   22666680.9924
 -61370616.69147 -47800831.42145  22196651.8284                   22196651.6254
 -29360149.73548 -22859981.76546  21327842.5554                   21327843.5204
 -37406085.03848 -29126426.82346  21905001.0394                   21905005.5984
 -19741145.66247 -15363594.09945  22604561.3674                   22604564.1024
  -9812078.44047  -7626760.72544  23133133.9924                   23133137.7624
 -50134581.90848 -39044880.00246  20885497.5554                   20885498.3524
 -19733736.07747 -15357505.98245  22310666.7974                   22310669.4144
  -1123638.08246   -864054.69743  24744398.5234                   24744401.8404
 11  9 27  0 21 30.0000000  0  9G12G02G29G25G30G15G05G26G21
 -46162797.11647 -35950746.49045  22670530.2894                   22670533.0904
 -61392657.46947 -47818006.00245  22192457.7814                   22192458.0004
 -29498104.86648 -22967479.12946  21301590.2274                   21301591.6374
 -37426935.36848 -29142673.80946  21901033.8364                   21901037.1254
 -19803566.44547 -15412233.60144  22592683.0394                   22592685.0204
  -9977359.02347  -7755550.53444  23101682.1804                   23101684.9304
 -50145989.25648 -39053768.81046  20883327.3204                   20883327.1174
 -19882539.67147 -15473456.65745  22282349.8204                   22282352.8164
  -1251150.90146   -963415.04743  24720132.6254                   24720136.4614
 11  9 27  0 22  0.0000000  0  9G12G02G29G25G30G15G05G26G21
 -46142358.65847 -35934820.44645  22674420.4224                   22674422.5314
 -61414586.69447 -47835093.66845  22188284.0864                   22188284.9264
 -29635790.84148 -23074766.76546  21275389.3524                   21275390.8594
 -37447330.33748 -29158565.97146  21897152.1884                   21897156.4734
 -19865417.55947 -15460429.16344  22580913.0944                   22580915.6414
 -10142535.07747  -7884258.85544  23070249.4534                   23070252.7854
 -50157022.75448 -39062366.30246  20881227.3984                   20881227.9224
 -20030978.45947 -15589123.07745  22254103.5394                   22254105.6174
  -1378661.37146  -1062773.57643  24695868.7194                   24695870.5784
 11  9 27  0 22 30.0000000  0  9G12G02G29G25G30G15G05G26G21
 -46121731.09347 -35918747.06245  22678345.3284                   22678348.0984
 -61436407.16347 -47852096.58045  22184132.5004                   22184132.3054
 -29773208.40848 -23181845.24746  21249239.6414                   21249240.8054
 -37467275.27748 -29174107.45846  21893356.8444                   21893360.7384
 -19926703.10247 -15508184.07644  22569250.5704                   22569253.0634
 -10307606.48847  -8012885.63944  23038837.1024                   23038840.3284
 -50167687.75847 -39070676.66246  20879198.1484                   20879198.5314
 -20179051.89447 -15704504.79545  22225925.5704                   22225927.5314
  -1506173.13746  -1162133.23343  24671603.7034                   24671606.8914
 11  9 27  0 23  0.0000000  0  9G12G02G29G25G30G15G05G26G21
 -46100918.69947 -35902529.62445  22682306.0004                   22682307.7384
 -61458119.57647 -47869015.30745  22180000.5314                   22180000.7344
 -29910356.34748 -23288713.63646  21223140.9614                   21223142.3134
 -37486774.11248 -29189301.34146  21889646.5394                   21889650.3204
 -19987425.49347 -15555500.13544  22557695.5704                   22557697.4184
 -10472571.47247  -8141429.53144  23007445.2504                   23007448.8244
 -50177988.31947 -39078703.03546  20877237.6564                   20877238.2774
 -20326757.49347 -15819599.89145  22197817.6024                   22197819.9104
  -1633688.55046  -1261495.63743  24647337.3524                   24647340.7814
 11  9 27  0 23 30.0000000  0  9G12G02G29G25G30G15G05G26G21
 -46079924.10047 -35886170.22145  22686301.0234                   22686303.0204
 -61479723.91947 -47885849.81745  22175889.4534                   22175888.8954
 -30047232.52848 -23395370.27946  21197094.3444                   21197095.7734
 -37505829.37848 -29204149.55846  21886020.3754                   21886024.4534
 -20047586.10147 -15602378.44245  22546247.8364                   22546249.6884
 -10637427.17147  -8269888.23745  22976073.5944                   22976078.0824
 -50187926.63247 -39086447.14946  20875346.8444                   20875346.6294
 -20474091.86947 -15934405.72145  22169781.1724                   22169783.2034
  -1761207.48946  -1360860.76243  24623072.6254                   24623074.3524
 11  9 27  0 24  0.0000000  0  9G12G02G29G25G30G15G05G26G21
 -44483336.12147 -34642075.70845  22990121.7734                   22990124.1764
 -59925802.94047 -46675002.27845  22471591.1254                   22471590.4104
 -28608414.24448 -22274213.04946  21470891.7894                   21470893.6684
 -35949027.00948 -27991056.78046  22182269.8754                   22182273.5274
 -18531768.18747 -14421221.54244  22834697.6484                   22834699.3014
  -9226748.88447  -7170658.14645  23244517.5084                   23244520.7584
 -48622089.07948 -37866313.96746  21173315.6724                   21173315.7974
 -19045630.40747 -14821318.68745  22441607.7894                   22441610.4964
   -313311.07846   -232629.60143  24898597.7894                   24898600.1254
 11  9 27  0 24 30.0000000  0  9G12G02G29G25G30G15G05G26G21
 -44461992.23247 -34625444.13945  22994183.1174                   22994185.8094
 -59947193.88547 -46691670.51045  22467520.1414                   22467519.8164
 -28744744.15047 -22380444.03846  21444949.1804                   21444950.2194
 -35967206.79248 -28005222.82246  22178810.4144                   22178814.5434
 -18590812.86947 -14467230.28644  22823461.2814                   22823463.7934
  -9391380.46747  -7298942.27045  23213188.6644                   23213191.3714
 -48631314.47648 -37873502.56446  21171560.1884                   21171560.6214
 -19192215.55447 -14935540.71145  22413713.2814                   22413715.6884
   -440844.20146   -332005.81642  24874327.8204                   24874330.3674
 11  9 27  0 25  0.0000000  0  9G12G02G29G25G30G15G05G26G21
 -44440478.27847 -34608680.04445  22998277.3054                   22998279.4144
 -59968478.52247 -46708255.91445  22463469.5164                   22463469.8164
 -28880797.87947 -22486459.81246  21419059.2274                   21419059.5864
 -35984952.86647 -28019050.91046  22175433.9144                   22175437.2734
 -18649301.70047 -14512805.95144  22812332.1334                   22812332.9414
  -9555895.90546  -7427135.89145  23181882.4844                   23181885.5744
 -48640187.36148 -37880416.47846  21169871.5474                   21169871.8444
 -19338421.01547 -15049466.87845  22385891.5944                   22385893.5394
   -568384.68946   -431387.89142  24850058.3914                   24850059.4844
 11  9 27  0 25 30.0000000  0 10G12G02G29G25G30G18G15G05G26G21
 -44418798.29647 -34591786.59345  23002403.0394                   23002404.9064
 -59989657.17447 -46724758.71245  22459439.6414                   22459439.6094
 -29016573.67048 -22592259.02846  21393221.8444                   21393222.8754
 -36002268.84948 -28032543.85246  22172138.0554                   22172142.0084
 -18707236.94047 -14557950.20944  22801307.0004                   22801308.9774
   4494459.63255   3514831.07052  24762713.3134                   24762721.2384
  -9720293.35447  -7555237.56645  23150598.5704                   23150600.8954
 -48648710.97848 -37887058.24646  21168249.7424                   21168249.8674
 -19484244.19347 -15163095.14445  22358142.2974                   22358144.3054
   -695934.17446   -530776.89842  24825785.7974                   24825787.9774
 11  9 27  0 26  0.0000000  0 10G12G02G29G25G30G18G15G05G26G21
 -44396960.78447 -34574770.37345  23006557.9844                   23006560.9184
 -60010735.05547 -46741182.99045  22455428.5004                   22455428.0864
 -29152074.62647 -22697844.07946  21367437.0164                   21367437.8794
 -36019162.60647 -28045707.78446  22168923.1024                   22168927.5634
 -18764625.29447 -14602668.33944  22790386.2734                   22790387.8324
   4334980.85445   3390562.37543  24732365.6564                   24732372.7424
  -9884574.63547  -7683248.76245  23119336.4844                   23119338.8134
 -48656893.37747 -37893434.12546  21166692.9144                   21166693.0354
 -19629686.88847 -15276426.94245  22330465.3914                   22330466.9534
   -823498.85246   -630177.71142  24801511.2664                   24801512.7624
 11  9 27  0 26 30.0000000  0 10G12G02G29G25G30G18G15G05G26G21
 -44374977.97347 -34557640.94345  23010741.5164                   23010743.3014
 -60031721.04947 -46757535.65445  22451435.1954                   22451434.6564
 -29287307.90247 -22803220.55146  21341702.3524                   21341703.1564
 -36035646.02047 -28058551.97346  22165786.9774                   22165790.2154
 -18821477.31647 -14646968.55744  22779568.0634                   22779569.2894
   4175651.69946   3266410.28743  24702045.8754                   24702051.2894
 -10048745.84147  -7811174.14645  23088096.0084                   23088097.9024
 -48664746.16948 -37899553.15546  21165198.3834                   21165197.9024
 -19774755.03447 -15389466.86645  22302859.5944                   22302861.6174
   -951088.76946   -729598.28643  24777231.1484                   24777232.8324
 11  9 27  0 27  0.0000000  0 10G12G02G29G25G30G18G15G05G26G21
 -44352846.48047 -34540395.68245  23014952.9614                   23014955.7154
 -60052608.08847 -46773811.22945  22447460.5864                   22447460.8874
 -29422264.19147 -22908381.17846  21316020.9144                   21316022.2704
 -36051714.95748 -28071073.19545  22162728.8594                   22162732.7774
 -18877787.63447 -14690846.64544  22768851.9694                   22768854.1024
   4016479.87546   3142380.74043  24671756.8524                   24671762.4144
 -10212797.55247  -7939006.42945  23056877.5784                   23056880.1764
 -48672264.76347 -37905411.77146  21163767.3524                   21163767.9024
 -19919438.20147 -15502206.80845  22275327.0944                   22275329.0904
  -1078697.51946   -829033.41843  24752948.2814                   24752951.3364
 11  9 27  0 27 30.0000000  0 10G12G02G29G25G30G18G15G05G26G21
 -44330569.07447 -34523036.69945  23019192.1804                   23019194.5704
 -60073395.72147 -46790009.32145  22443504.2504                   22443503.9964
 -29556940.74647 -23013323.83546  21290393.5314                   21290393.7664
 -36067371.75547 -28083273.26646  22159749.5004                   22159753.2814
 -18933557.35447 -14734303.49244  22758239.6024                   22758240.5784
   3857467.16646   3018475.17943  24641496.7114                   24641501.5204
 -10376726.33247  -8066742.91544  23025682.5314                   23025684.7934
 -48679451.50848 -37911011.80046  21162399.6564                   21162399.8164
 -20063732.71047 -15614643.92945  22247869.4694                   22247871.2504
  -1206324.44546   -928482.78543  24728662.4064                   24728663.8714
 11  9 27  0 28  0.0000000  0 10G12G02G29G25G30G18G15G05G26G21
 -44308147.72147 -34505565.54145  23023458.8054                   23023461.6884
 -60094082.39747 -46806128.75745  22439568.6484                   22439568.0594
 -29691334.56548 -23118046.17746  21264819.1254                   21264819.3094
 -36082617.92147 -28095153.36745  22156848.3834                   22156851.9844
 -18988786.79347 -14777339.35644  22747729.9454                   22747731.9024
   3698616.18546   2894695.61843  24611269.0634                   24611274.5514
 -10540527.99747  -8194380.37645  22994511.9454                   22994515.0274
 -48686307.77948 -37916354.30546  21161095.1484                   21161095.6484
 -20207633.71747 -15726774.41645  22220484.9774                   22220487.6374
  -1333969.24346  -1027946.01343  24704371.3594                   24704373.8134
 11  9 27  0 28 30.0000000  0 10G12G02G29G25G30G18G15G05G26G21
 -44285581.88847 -34487981.80845  23027753.2274                   23027755.4414
 -60114664.15647 -46822166.43945  22435651.8834                   22435651.8754
 -29825439.35448 -23222543.31346  21239299.4454                   21239300.1484
 -36097452.46547 -28106712.72846  22154025.7734                   22154029.0704
 -19043473.69647 -14819952.45845  22737322.9304                   22737324.4574
   3539931.57746   2771045.72843  24581071.6484                   24581077.4574
 -10704195.57147  -8321913.30845  22963367.0704                   22963369.6954
 -48692832.55548 -37921438.50646  21159853.5784                   21159853.8754
 -20351134.19647 -15838592.79445  22193177.7664                   22193179.6994
  -1461628.83046  -1127420.81743  24680078.4384                   24680080.4064
 11  9 27  0 29  0.0000000  0 10G12G02G29G25G30G18G15G05G26G21
 -44262872.70947 -34470286.37345  23032074.5704                   23032077.1954
 -60135139.41347 -46838121.12345  22431755.1954                   22431754.8014
 -29959251.38248 -23326812.32246  21213835.8204                   21213836.8244
 -36111876.44047 -28117952.15745  22151280.4534                   22151284.0314
 -19097617.87447 -14862142.65144  22727019.6564                   22727021.2234
   3381416.19346   2647527.64243  24550906.5704                   24550911.5784
 -10867724.66147  -8449338.33545  22932248.0944                   22932250.5004
 -48699026.08748 -37926264.59646  21158674.9924                   21158674.8364
 -20494229.03647 -15950095.08145  22165947.5474                   22165949.2624
  -1589302.25946  -1226906.40243  24655782.9924                   24655785.3204
 11  9 27  0 29 30.0000000  0 10G12G02G29G25G30G18G15G05G26G21
 -44240026.52647 -34452484.21045  23036422.1954                   23036424.4224
 -60155510.35847 -46853994.52645  22427878.5554                   22427878.5004
 -30092770.83748 -23430853.35746  21188428.0004                   21188428.6454
 -36125895.30848 -28128875.91845  22148613.0084                   22148616.3524
 -19151223.63747 -14903913.30444  22716818.7424                   22716820.3284
   3223068.74746   2524140.35543  24520774.0704                   24520778.4654
 -11031114.74847  -8576655.03345  22901156.0554                   22901157.8164
 -48704894.26648 -37930837.15946  21157558.0394                   21157558.1804
 -20636917.36147 -16061280.61745  22138794.9534                   22138796.5594
  -1716991.92946  -1326404.64443  24631484.0634                   24631486.7854
 11  9 27  0 30  0.0000000  0 10G12G02G29G25G30G18G15G05G26G21
 -44217043.66647 -34434575.52245  23040796.2814                   23040797.9964
 -60175774.00547 -46869784.33745  22424022.4454                   22424022.1374
 -30225992.73248 -23534662.51146  21163076.4064                   21163076.4224
 -36139509.05047 -28139484.00946  22146022.7344                   22146026.3404
 -19204289.81747 -14945263.49044  22706720.2114                   22706722.3674
   3064892.92145   2400886.94142  24490672.4144                   24490678.5984
 -11194360.26147  -8703859.09245  22870091.3914                   22870093.3674
 -48710436.77948 -37935155.96346  21156502.9384                   21156503.4104
 -20779193.34447 -16172144.86045  22111720.4144                   22111721.8244
  -1844697.21446  -1425915.09743  24607182.3834                   24607184.6254
 11  9 27  0 30 30.0000000  0 10G12G02G29G25G30G18G15G05G26G21
 -44193924.49447 -34416560.62145  23045195.0084                   23045196.9224
 -60195927.66847 -46885488.41545  22420187.0004                   22420187.0274
 -30358912.18848 -23638236.00946  21137782.5704                   21137782.9774
 -36152717.82247 -28149776.52146  22143508.5784                   22143512.3554
 -19256815.34647 -14986192.39744  22696725.5704                   22696727.2544
   2906892.58345   2277770.13342  24460606.4774                   24460611.4614
 -11357455.53747  -8830946.08145  22839054.8054                   22839056.2974
 -48715653.34448 -37939220.77846  21155510.5554                   21155510.8404
 -20921050.51347 -16282682.73345  22084726.0084                   22084727.6884
  -1972415.04546  -1525435.32043  24582878.7894                   24582879.8054
 11  9 27  0 31  0.0000000  0 10G12G02G29G25G30G18G15G05G26G21
 -44170679.24647 -34398447.46645  23049618.7114                   23049620.9694
 -60215978.09047 -46901112.06445  22416371.7664                   22416371.3794
 -30491533.96448 -23741577.52246  21112545.4924                   21112545.7624
 -36165531.37848 -28159761.07946  22141070.3834                   22141073.9884
 -19308808.80747 -15026706.69644  22686831.6334                   22686832.6174
   2749061.91145   2154785.60242  24430571.6884                   24430576.3284
 -11520404.59747  -8957919.12545  22808046.7584                   22808049.0124
 -48720553.32748 -37943038.89946  21154578.0634                   21154578.2704
 -21062492.99847 -16392897.48245  22057809.8594                   22057811.3134
  -2100152.99546  -1624971.17643  24558571.0474                   24558572.1254
 11  9 27  0 31 30.0000000  0 10G12G02G29G25G30G18G15G05G26G21
 -44147307.22347 -34380235.48145  23054065.7734                   23054068.5744
 -60235920.99447 -46916651.92845  22412576.7734                   22412576.4884
 -30623851.84648 -23844682.26546  21087365.8834                   21087366.2424
 -36177948.68447 -28169436.87046  22138707.6484                   22138711.2854
 -19360268.06647 -15066804.73344  22677039.2114                   22677040.0634
   2591405.96846   2031937.18042  24400571.1954                   24400574.2464
 -11683200.22847  -9084772.60545  22777067.3914                   22777069.8484
 -48725135.62048 -37946609.46546  21153706.2894                   21153706.4804
 -21203513.11947 -16502783.13645  22030974.5864                   22030976.3404
  -2227907.57146  -1724520.07443  24534259.4694                   24534260.8484
 11  9 27  0 32  0.0000000  0 10G12G02G29G25G30G18G15G05G26G21
 -44123812.19347 -34361927.69445  23058537.0314                   23058539.7424
 -60255756.99547 -46932108.48145  22408801.5234                   22408801.6094
 -30755864.37148 -23947549.04246  21062244.6804                   21062244.7974
 -36189973.34347 -28178806.69845  22136418.8754                   22136422.6094
 -19411195.63747 -15106488.47944  22667347.1564                   22667348.5904
   2433925.02946   1909225.06342  24370603.8524                   24370606.6414
 -11845840.53047  -9211505.07945  22746118.0004                   22746120.2934
 -48729403.57848 -37949935.08446  21152893.9694                   21152894.3244
 -21344108.47247 -16612337.79645  22004219.8444                   22004222.1724
  -2355680.47546  -1824083.21043  24509945.0864                   24509946.0664
 11  9 27  0 32 30.0000000  0 10G12G02G29G25G30G18G15G05G26G21
 -44100199.68447 -34343528.34545  23063030.2814                   23063033.6564
 -60275487.76647 -46947483.05445  22405047.0634                   22405046.8134
 -30887571.34248 -24050177.73046  21037181.9924                   21037182.1454
 -36201610.29647 -28187874.42746  22134204.6564                   22134208.3364
 -19461595.18847 -15145760.78344  22657756.9924                   22657758.9454
   2276618.42146   1786648.80942  24340668.8834                   24340671.7424
 -12008324.67047  -9338115.86345  22715197.6094                   22715200.0434
 -48733361.54848 -37953019.16646  21152141.1414                   21152140.9454
 -21484277.99647 -16721560.64345  21977547.1094                   21977548.7154
  -2483473.73846  -1923662.24943  24485626.5634                   24485628.0004
 11  9 27  0 33  0.0000000  0 10G12G02G29G25G30G18G15G05G26G21
 -44076471.25547 -34325038.69744  23067545.3674                   23067548.6994
 -60295111.83147 -46962774.45045  22401313.1724                   22401312.9924
 -31018969.18448 -24152565.54846  21012177.5004                   21012177.3554
 -36212860.93947 -28196641.14445  22132063.5164                   22132067.4804
 -19511467.03647 -15184621.89144  22648266.2034                   22648267.0434
   2119488.19746   1664209.97743  24310768.1644                   24310771.3244
 -12170648.05047  -9464601.35545  22684308.2894                   22684310.8364
 -48737010.89148 -37955862.75846  21151446.3444                   21151446.2544
 -21624016.77847 -16830447.84545  21950955.1644                   21950957.3794
  -2611287.44746  -2023257.22643  24461304.1174                   24461305.9224
 11  9 27  0 33 30.0000000  0 10G12G02G29G25G30G18G15G05G26G21
 -44052632.47047 -34306463.04344  23072082.0474                   23072084.1954
 -60314631.41647 -46977984.47245  22397599.0864                   22397598.1914
 -31150058.22648 -24254712.74746  20987232.1484                   20987232.7934
 -36223730.49847 -28205110.89745  22129995.3204                   22129998.9694
 -19560815.37747 -15223075.05944  22638875.6804                   22638877.2624
   1962533.47646   1541907.98143  24280899.9454                   24280903.8204
 -12332809.98247  -9590961.07645  22653450.2664                   22653452.7384
 -48740356.69748 -37958469.83546  21150809.5784                   21150809.7894
 -21763323.70047 -16938998.54145  21924445.9924                   21924447.3164
  -2739123.82846  -2122869.94743  24436977.3444                   24436978.6054
 11  9 27  0 34  0.0000000  0 10G12G02G29G25G30G18G15G05G26G21
 -44028686.72847 -34287804.04244  23076638.7034                   23076641.4344
 -60334046.35847 -46993112.94245  22393903.8204                   22393903.4734
 -31280835.91747 -24356617.32746  20962345.6024                   20962345.8754
 -36234221.99247 -28213286.07245  22127998.6644                   22128002.6684
 -19609642.04847 -15261121.78845  22629583.7504                   22629585.4614
   1805755.25646   1419743.40843  24251065.6954                   24251069.9184
 -12494807.41447  -9717192.60445  22622623.0554                   22622624.8524
 -48743401.38848 -37960842.27046  21150230.1954                   21150230.0594
 -21902195.68747 -17047210.32445  21898019.0704                   21898021.1914
  -2866983.66846  -2222500.82243  24412647.5394                   24412648.8554
 11  9 27  0 34 30.0000000  0 10G12G02G29G25G30G18G15G05G26G21
 -44004638.48947 -34269065.19045  23081214.9384                   23081217.7504
 -60353357.94247 -47008160.87445  22390229.0394                   22390228.5434
 -31411301.89248 -24458279.01446  20937518.8524                   20937519.1564
 -36244339.82947 -28221170.08145  22126073.2424                   22126077.0434
 -19657950.51847 -15298764.68544  22620391.3594                   22620393.5594
   1649152.82246   1297715.85143  24221264.3444                   24221269.1254
 -12656639.48047  -9843295.29745  22591827.0704                   22591828.8674
 -48746148.92048 -37962983.16346  21149707.2974                   21149707.1214
 -22040630.85447 -17155081.71845  21871675.8834                   21871677.0594
  -2994868.91546  -2322151.53543  24388311.9694                   24388312.5164
 11  9 27  0 35  0.0000000  0 10G12G02G29G25G30G18G15G05G26G21
 -43980492.58847 -34250250.19044  23085810.1334                   23085813.1804
 -60372567.49947 -47023129.28945  22386573.4774                   22386572.9224
 -31541455.32247 -24559697.17846  20912751.6724                   20912751.9494
 -36254088.43747 -28228766.37846  22124218.3674                   22124222.4534
 -19705744.00747 -15336006.32244  22611296.3594                   22611298.4774
   1492725.75846   1175824.89343  24191497.9454                   24191502.7154
 -12818304.07947  -9969267.49145  22561062.8134                   22561064.4614
 -48748603.71448 -37964895.95446  21149240.2194                   21149239.9534
 -22178627.71547 -17262611.57545  21845415.5394                   21845416.3754
  -3122781.82146  -2421823.80443  24363970.6484                   24363971.4804
 11  9 27  0 35 30.0000000  0 10G12G02G29G25G30G18G15G05G26G21
 -42380831.02047 -33003760.69245  23390216.4534                   23390218.1454
 -58816251.98647 -45810415.84545  22682730.2734                   22682730.0704
 -30095867.60747 -23433265.08746  21187837.6724                   21187837.7894
 -34688048.40747 -27008475.43045  22422225.7584                   22422229.4454
 -18177600.88047 -14145245.40644  22902092.2504                   22902094.5864
   2911902.52546   2281677.25543  24461557.7504                   24461562.1024
 -11404371.02247  -8867501.23745  22830125.5554                   22830127.0784
 -47175345.91748 -36738980.74446  21448621.2974                   21448621.1724
 -20740756.29547 -16142192.14445  22119033.1954                   22119034.4804
  -1675295.98346  -1293912.60343  24639417.2424                   24639419.6454
 11  9 27  0 36  0.0000000  0 10G12G02G29G25G30G18G15G05G26G21
 -42356491.51047 -32984794.85745  23394847.2734                   23394850.1954
 -58835248.89347 -45825218.56945  22679115.5944                   22679114.5984
 -30225381.67847 -23534185.06446  21163191.6564                   21163192.3674
 -34697059.76547 -27015497.25945  22420510.6804                   22420515.1644
 -18224362.49347 -14181682.99645  22893194.0164                   22893196.1054
   2755837.18146   2160068.19143  24431858.4454                   24431863.8874
 -11565684.34047  -8993199.71545  22799428.6024                   22799429.9264
 -47177214.84848 -36740437.03346  21448265.4694                   21448265.0124
 -20877859.16947 -16249025.39945  22092943.3524                   22092944.4264
  -1803257.32746  -1393622.63943  24615067.3444                   24615068.8364
 11  9 27  0 36 30.0000000  0 10G12G02G29G25G30G18G15G05G26G21
 -42332062.82247 -32965759.51545  23399495.5944                   23399498.6564
 -58854141.92647 -45839940.35745  22675520.2034                   22675519.3554
 -30354575.46347 -23634855.45646  21138606.8984                   21138606.9224
 -34705709.61547 -27022237.38145  22418864.2664                   22418868.3284
 -18270613.82747 -14217722.97844  22884393.1724                   22884394.5984
   2599951.50846   2038599.10543  24402194.5234                   24402198.4924
 -11726820.28347  -9118759.99345  22768765.0704                   22768766.5514
 -47178797.50448 -36741670.24946  21447964.3594                   21447964.5394
 -21014512.69847 -16355508.51745  22066939.0004                   22066940.2194
  -1931246.91346  -1493354.65443  24590712.0554                   24590713.0004
 11  9 27  0 37  0.0000000  0 10G12G02G29G25G30G18G15G05G26G21
 -42307546.82047 -32946656.17845  23404160.8054                   23404163.6094
 -58872929.72547 -45854580.17145  22671945.0394                   22671944.5704
 -30483445.26448 -23735273.40146  21114083.9454                   21114084.3714
 -34713999.75647 -27028697.23445  22417287.0084                   22417290.8594
 -18316355.47347 -14253365.77844  22875688.8984                   22875690.2384
   2444247.53146   1917271.54643  24372565.4384                   24372568.6684
 -11887774.98047  -9244179.02445  22738136.8284                   22738138.0004
 -47180095.35548 -36742681.55446  21447717.3834                   21447716.9344
 -21150712.61147 -16461638.18045  22041021.1724                   22041022.0594
  -2059263.78046  -1593107.89143  24566351.0474                   24566353.2584
 11  9 27  0 37 30.0000000  0 10G12G02G29G25G30G18G15G05G26G21
 -42282947.77247 -32927488.10645  23408841.8364                   23408844.9264
 -58891612.92447 -45869138.43945  22668389.4694                   22668388.7544
 -30611990.28448 -23835438.26946  21089622.1174                   21089623.0864
 -34721934.10847 -27034879.81845  22415777.7814                   22415781.1914
 -18361590.44247 -14288613.77144  22867080.0704                   22867082.4304
   2288725.48546   1796085.83043  24342969.9144                   24342973.6024
 -12048546.27847  -9369455.18245  22707542.3674                   22707543.4224
 -47181111.70348 -36743473.48946  21447524.0864                   21447524.4804
 -21286456.72347 -16567412.66345  22015189.7814                   22015190.7384
  -2187309.49646  -1692883.69543  24541984.0004                   24541985.6724
 11  9 27  0 38  0.0000000  0 10G12G02G29G25G30G18G15G05G26G21
 -42258271.57147 -32908259.92244  23413538.6254                   23413540.4264
 -58910194.35447 -45883617.44745  22664853.4144                   22664852.3794
 -30740211.04147 -23935350.46346  21065222.6254                   21065223.0394
 -34729518.59647 -27040789.81045  22414334.3834                   22414337.8364
 -18406323.56347 -14323470.76244  22858567.8204                   22858570.1094
   2133383.73246   1675040.50243  24313409.1484                   24313412.6804
 -12209133.87247  -9494588.18845  22676983.1724                   22676984.9694
 -47181852.28248 -36744050.55146  21447383.1644                   21447383.1804
 -21421744.72447 -16672831.73145  21989445.0704                   21989446.2934
  -2315387.34046  -1792684.49143  24517612.2814                   24517612.3014
 11  9 27  0 38 30.0000000  0 10G12G02G29G25G30G18G15G05G26G21
 -42233518.44747 -32888971.77344  23418248.2894                   23418250.6414
 -58928670.69647 -45898014.55145  22661337.9224                   22661336.9614
 -30868102.45647 -24035006.03346  21040885.3364                   21040886.0984
 -34736753.24847 -27046427.19245  22412957.4844                   22412961.6804
 -18450554.01747 -14357936.03345  22850151.3754                   22850153.3164
   1978226.20546   1554138.77843  24283883.8524                   24283887.5434
 -12369532.02547  -9619573.54845  22646460.6254                   22646462.6134
 -47182316.80348 -36744412.50246  21447294.5004                   21447294.6764
 -21556570.45147 -16777890.60045  21963788.9534                   21963789.4384
  -2443494.86846  -1892508.27943  24493233.2504                   24493234.2814
 11  9 27  0 39  0.0000000  0 10G12G02G29G25G30G18G15G05G26G21
 -42208691.59146 -32869626.17344  23422972.7504                   23422975.0204
 -58947041.53047 -45912329.44945  22657842.0234                   22657841.5314
 -30995662.22048 -24134403.17046  21016612.1094                   21016612.3524
 -34743641.00447 -27051794.25845  22411646.7664                   22411650.0164
 -18494283.65547 -14392011.07544  22841829.7974                   22841831.4184
   1823253.69246   1433381.08243  24254392.7894                   24254396.2894
 -12529737.70347  -9744408.97645  22615974.2274                   22615975.6914
 -47182507.38448 -36744560.98446  21447258.1804                   21447257.8444
 -21690930.80947 -16882586.84945  21938220.2424                   21938221.9844
  -2571632.64146  -1992355.72043  24468849.3594                   24468851.3554
 11  9 27  0 39 30.0000000  0 10G12G02G29G25G30G18G15G05G26G21
 -42183795.30747 -32850226.47444  23427709.8984                   23427712.3554
 -58965307.92747 -45926562.94345  22654365.6484                   22654365.7624
 -31122889.34848 -24233541.10746  20992400.9774                   20992400.6564
 -34750186.13547 -27056894.36645  22410400.7274                   22410405.7704
 -18537515.78447 -14425698.42544  22833602.6724                   22833604.0864
   1668465.63546   1312767.24242  24224938.6564                   24224940.5634
 -12689749.10047  -9869092.99345  22585525.4694                   22585525.9454
 -47182428.12448 -36744499.19146  21447273.5634                   21447273.2074
 -21824823.86147 -16986918.97845  21912741.6884                   21912742.3444
  -2699802.44946  -2092228.10643  24444459.4454                   24444461.3594
 11  9 27  0 40  0.0000000  0 10G12G02G29G25G30G18G15G05G26G21
 -42158828.59546 -32830771.89944  23432461.2894                   23432463.6174
 -58983465.42147 -45940711.60145  22650910.4694                   22650909.8594
 -31249777.20548 -24332414.66346  20968255.1804                   20968255.0274
 -34756387.23247 -27061726.37745  22409221.0004                   22409224.2814
 -18580248.07647 -14458996.28844  22825470.7894                   22825472.7814
   1513867.81246   1192301.55843  24195519.8364                   24195521.3524
 -12849558.65147  -9993619.74145  22555114.1484                   22555115.1134
 -47182076.84848 -36744225.44946  21447340.1414                   21447340.5164
 -21958241.91947 -17090880.95645  21887353.0314                   21887353.6414
  -2828000.41146  -2192122.44143  24420063.9844                   24420066.3634
 11  9 27  0 40 30.0000000  0 10G12G02G29G25G30G18G15G05G26G21
 -42133799.35246 -32811268.60544  23437223.5474                   23437226.3954
 -59001518.93647 -45954779.23145  22647474.9384                   22647474.1724
 -31376328.70848 -24431026.13946  20944173.3284                   20944173.5124
 -34762252.49547 -27066296.70445  22408105.2194                   22408109.1804
 -18622487.78947 -14491910.33945  22817433.0164                   22817435.6294
   1359456.21347   1071981.01743  24166135.5234                   24166138.0314
 -13009168.81047 -10117991.08945  22524740.8754                   22524742.5744
 -47181461.35548 -36743745.81346  21447457.1804                   21447456.9884
 -22091187.22447 -17194474.55945  21862053.6254                   21862054.8594
  -2956231.93746  -2292042.87543  24395662.2344                   24395664.5474
 11  9 27  0 41  0.0000000  0 10G12G02G29G25G30G18G15G05G26G21
 -42108712.84646 -32791720.69544  23441998.4064                   23442000.0904
 -59019470.03947 -45968767.06345  22644058.8594                   22644058.0044
 -31502543.88148 -24529375.51846  20920155.1804                   20920155.0864
 -34767787.05647 -27070609.33945  22407051.8594                   22407055.0744
 -18664239.10547 -14524443.82144  22809487.8594                   22809491.0164
   1205229.51746    951804.52543  24136786.1564                   24136790.9534
 -13168578.31247 -10242206.10945  22494406.2584                   22494407.4024
 -47180586.39748 -36743064.01146  21447623.6484                   21447623.3404
 -22223658.64547 -17297698.91145  21836845.6414                   21836846.7704
  -3084499.90046  -2391991.72343  24371253.8984                   24371255.0554
 11  9 27  0 41 30.0000000  0 10G12G02G29G25G30G18G15G05G26G21
 -42083573.38046 -32772131.51144  23446781.7344                   23446784.5984
 -59037320.17847 -45982676.21945  22640661.9384                   22640661.6804
 -31628421.51848 -24627461.88046  20896201.3594                   20896201.6094
 -34772995.15747 -27074667.58445  22406060.6954                   22406064.9534
 -18705505.30047 -14556599.27244  22801635.4924                   22801637.4414
   1051187.41546    831772.00543  24107473.4614                   24107476.8244
 -13327785.61247 -10366263.57245  22464109.9844                   22464110.7624
 -47179456.04248 -36742183.18546  21447838.3444                   21447838.9104
 -22355654.31347 -17400552.54045  21811727.3674                   21811727.9574
  -3212805.90546  -2491970.25343  24346837.6484                   24346839.1954
 11  9 27  0 42  0.0000000  0 10G12G02G29G25G30G18G15G05G26G21
 -42058380.57946 -32752500.77844  23451575.5784                   23451578.4064
 -59055064.45947 -45996502.90545  22637285.4924                   22637285.1804
 -31753955.79748 -24725280.69446  20872312.8364                   20872313.0004
 -34777875.86447 -27078470.74545  22405131.6564                   22405135.6524
 -18746284.61247 -14588375.34744  22793875.7344                   22793877.7464
    897334.77746    711887.08143  24078195.5004                   24078199.7814
 -13486783.79447 -10490158.07145  22433853.6804                   22433854.7304
 -47178068.69648 -36741102.11446  21448103.1094                   21448102.3874
 -22487167.34847 -17503030.11945  21786701.0004                   21786701.6024
  -3341146.26046  -2591975.56343  24322414.4774                   24322415.8204
 11  9 27  0 42 30.0000000  0 10G12G02G29G25G30G18G15G05G26G21
 -42033140.33946 -32732833.07444  23456378.7274                   23456381.1094
 -59072705.83547 -46010249.37245  22633928.2034                   22633927.8874
 -31879147.44748 -24822832.51946  20848489.8204                   20848489.8874
 -34782435.28347 -27082023.52345  22404264.0554                   22404268.5474
 -18786582.14447 -14619775.97744  22786206.4454                   22786208.7734
    743669.76046    592148.36243  24048954.5784                   24048957.3524
 -13645572.88547 -10613889.64345  22403636.9774                   22403638.5434
 -47176429.89948 -36739825.11646  21448414.4844                   21448414.1994
 -22618197.65947 -17605131.53445  21761766.4304                   21761767.2154
  -3469524.61046  -2692010.40843  24297984.8134                   24297986.3134
 11  9 27  0 43  0.0000000  0 10G12G02G29G25G30G18G15G05G26G21
 -42007855.12446 -32713130.33144  23461190.6024                   23461194.2304
 -59090243.66347 -46023915.18345  22630590.7974                   22630590.3594
 -32003993.57348 -24920115.11846  20824732.1094                   20824732.2194
 -34786676.00647 -27085327.98645  22403456.8674                   22403460.4024
 -18826399.67247 -14650802.57544  22778629.9384                   22778632.0554
    590193.71946    472556.88743  24019748.3674                   24019752.2504
 -13804149.45147 -10737455.62545  22373460.0704                   22373461.8134
 -47174541.64348 -36738353.72046  21448774.2034                   21448773.8014
 -22748741.54047 -17706853.92045  21736925.3594                   21736925.9304
  -3597941.19646  -2792075.05643  24273548.3524                   24273548.7344
 11  9 27  0 43 30.0000000  0 10G12G02G29G25G30G18G15G05G26G21
 -41982528.40647 -32693395.25044  23466009.8054                   23466012.6954
 -59107678.21847 -46037500.49445  22627273.2194                   22627272.6214
 -32128492.80848 -25017127.41146  20801040.4694                   20801040.3284
 -34790601.55047 -27088386.84545  22402710.6954                   22402714.7234
 -18865739.84047 -14681457.20644  22771143.9924                   22771145.7424
    436906.76346    353112.74043  23990579.1804                   23990581.5784
 -13962510.71747 -10860853.82245  22343325.3444                   22343326.6804
 -47172406.79548 -36736690.19046  21449180.3204                   21449180.2034
 -22878796.35047 -17808195.21445  21712176.2504                   21712177.2464
  -3726396.76046  -2892170.06843  24249103.4774                   24249104.6994
 11  9 27  0 44  0.0000000  0 10G12G02G29G25G30G18G15G05G26G21
 -41957162.45547 -32673629.58244  23470837.3284                   23470840.3244
 -59125008.35947 -46051004.46145  22623975.7114                   22623975.6884
 -32252641.64148 -25113866.65446  20777415.8914                   20777415.8164
 -34794214.03547 -27091201.76845  22402023.1954                   22402026.2074
 -18904603.86847 -14711740.80745  22763747.7974                   22763750.0314
    283811.16646    233817.77943  23961445.3364                   23961448.4104
 -14120652.80047 -10984081.24245  22313232.1884                   22313232.9384
 -47170027.01148 -36734835.80846  21449633.0634                   21449632.8754
 -23008358.67447 -17909152.74545  21687521.5944                   21687522.2624
  -3854890.60846  -2992294.91443  24224652.0554                   24224654.0354
 11  9 27  0 44 30.0000000  0 10G12G02G29G25G30G18G15G05G26G21
 -41931763.25747 -32653838.02844  23475671.2114                   23475673.7584
 -59142236.28047 -46064428.76245  22620696.7974                   22620697.0704
 -32376440.88948 -25210333.50346  20753857.7274                   20753857.4694
 -34797519.12947 -27093777.15445  22401394.3524                   22401397.7234
 -18942996.60747 -14741657.19845  22756441.5784                   22756443.9264
    130905.41146    114670.77143  23932348.0234                   23932352.0314
 -14278575.37447 -11107137.61945  22283180.3524                   22283181.1804
 -47167407.46948 -36732794.58946  21450131.5784                   21450130.8984
 -23137427.50147 -18009725.72845  21662959.8754                   21662960.8834
  -3983425.41146  -3092451.64843  24200192.3364                   24200193.4414
 11  9 27  0 45  0.0000000  0 10G12G02G29G25G30G18G15G05G26G21
 -41906331.12246 -32634020.78444  23480509.7584                   23480513.3094
 -59159359.44647 -46077771.46945  22617438.7894                   22617438.3484
 -32499885.69448 -25306524.15746  20730366.6724                   20730366.6024
 -34800517.69147 -27096113.69345  22400823.2584                   22400826.8364
 -18980918.05746 -14771206.32044  22749225.6094                   22749227.5204
    -21807.63546     -4326.22343  23903288.2734                   23903291.2114
 -14436273.02647 -11230018.72745  22253170.8594                   22253171.8554
 -47164548.71048 -36730566.96646  21450675.5314                   21450675.3554
 -23265997.81247 -18109910.27145  21638493.9384                   21638494.2234
  -4111999.52546  -3192639.03843  24175725.7814                   24175726.7304
 11  9 27  0 45 30.0000000  0 10G12G02G29G25G30G18G15G05G26G21
 -41880871.96347 -32614182.51344  23485354.2424                   23485358.0704
 -59176380.10347 -46091034.27445  22614199.4384                   22614198.9774
 -32622976.59948 -25402439.06746  20706942.9304                   20706942.9884
 -34803215.43547 -27098215.81345  22400309.6334                   22400313.3634
 -19018373.08247 -14800391.98544  22742098.2974                   22742100.4774
   -174329.84946   -123174.42343  23874263.6484                   23874266.1804
 -14593745.61247 -11352724.46945  22223204.8204                   22223205.9804
 -47161455.33248 -36728156.52046  21451264.3134                   21451264.3054
 -23394069.38547 -18209706.17345  21614122.9694                   21614123.5234
  -4240616.63946  -3292859.88643  24151249.6254                   24151251.7854
 11  9 27  0 46  0.0000000  0 10G12G02G29G25G30G18G15G05G26G21
 -41855389.21446 -32594325.85244  23490203.7274                   23490206.1884
 -59193298.33147 -46104217.29845  22610980.2194                   22610979.1764
 -32745712.05548 -25498076.99946  20683587.3054                   20683587.0864
 -34805615.68447 -27100086.14945  22399853.2504                   22399856.7934
 -19055364.14047 -14829216.12645  22735058.8204                   22735061.0044
   -326660.62846   -241873.41443  23845276.6484                   23845279.4454
 -14750990.40247 -11475252.71045  22193281.5394                   22193282.3134
 -47158130.43448 -36725565.67946  21451896.9774                   21451897.2234
 -23521639.47947 -18309111.30345  21589846.9844                   21589847.7074
  -4369277.07146  -3393114.54343  24126766.3984                   24126768.1994
 11  9 27  0 46 30.0000000  0 10G12G02G29G25G30G18G15G05G26G21
 -40254463.62246 -31346851.40744  23794849.3754                   23794853.0434
 -57634690.04747 -44889717.30745  22907572.8364                   22907573.1914
 -31292662.63348 -24365830.62846  20960093.5394                   20960093.3914
 -33232298.35247 -25874124.59145  22699245.6094                   22699248.8984
 -17516469.37547 -13630077.27944  23027901.0084                   23027903.0554
   1096629.64946    867184.21643  24116119.1174                   24116121.5394
 -13332575.83647 -10369994.46945  22463197.5554                   22463197.8714
 -45579153.35848 -35495193.90446  21752366.3204                   21752366.2704
 -22073277.44747 -17180517.39245  21865460.9844                   21865461.4884
  -2922553.76246  -2265797.44343  24402068.4614                   24402070.0594
 11  9 27  0 47  0.0000000  0 10G12G02G29G25G30G18G15G05G26G21
 -40228940.00946 -31326962.90244  23799706.5864                   23799710.0474
 -57651399.62947 -44902737.73845  22904393.6644                   22904393.1024
 -31414677.72648 -24460907.25946  20936874.6334                   20936874.3164
 -33234110.20147 -25875536.41545  22698901.1954                   22698904.8324
 -17552536.94147 -13658181.80744  23021037.5004                   23021039.8524
    944688.05346    748788.38043  24087205.4774                   24087208.5004
 -13489353.14947 -10492158.44745  22433363.1254                   22433364.2814
 -45575369.74348 -35492245.61246  21753086.0944                   21753085.8634
 -22199832.87147 -17279131.88045  21841377.7734                   21841378.6524
  -3051299.06546  -2366118.24443  24377569.4064                   24377570.0044
 11  9 27  0 47 30.0000000  0 10G12G02G29G25G30G18G15G05G26G21
 -40203401.89346 -31307063.11444  23804567.3134                   23804570.4344
 -57668006.18147 -44915677.85045  22901232.9064                   22901232.2234
 -31536330.66048 -24555701.68346  20913724.8134                   20913724.4344
 -33235634.08047 -25876723.86445  22698610.3204                   22698614.3054
 -17588147.72047 -13685930.38144  23014260.5784                   23014262.8014
    792940.29746    630543.62043  24058328.3914                   24058330.0234
 -13645893.68947 -10614137.94745  22403574.4304                   22403574.8954
 -45571362.59448 -35489123.12646  21753848.7194                   21753848.1604
 -22325878.03347 -17377348.77445  21817391.9454                   21817392.9964
  -3180089.26446  -2466474.04243  24353061.1334                   24353061.9534
 11  9 27  0 48  0.0000000  0 10G12G02G29G25G30G18G15G05G26G21
 -40177850.02746 -31287152.61444  23809428.7664                   23809432.0474
 -57684506.75947 -44928535.42945  22898093.6024                   22898092.3984
 -31657616.67148 -24650210.18846  20890645.0394                   20890644.5394
 -33236870.47647 -25877687.29945  22698375.6884                   22698379.7034
 -17623301.48547 -13713322.87644  23007570.9614                   23007574.2194
    641390.48246    512453.06443  24029489.1644                   24029491.4414
 -13802191.88747 -10735928.61845  22373832.0084                   22373833.1374
 -45567131.27948 -35485825.96846  21754653.6884                   21754653.6994
 -22451407.69347 -17475163.97145  21793504.7504                   21793505.2304
  -3308921.69147  -2566862.72043  24328544.9304                   24328546.3754
 11  9 27  0 48 30.0000000  0 10G12G02G29G25G30G18G15G05G26G21
 -40152287.29146 -31267233.63044  23814293.6804                   23814296.1414
 -57700900.84847 -44941310.00445  22894973.6644                   22894972.9924
 -31778533.80748 -24744431.27946  20867634.8984                   20867634.7464
 -33237822.52647 -25878429.15445  22698194.7034                   22698198.5594
 -17658000.64947 -13740361.12944  23000968.8364                   23000970.4104
    490038.98246    394517.08643  24000688.1484                   24000690.2274
 -13958244.86747 -10857528.20545  22344136.0084                   22344136.4304
 -45562678.60848 -35482356.34246  21755501.4224                   21755500.9304
 -22576418.72947 -17572575.04645  21769716.1414                   21769716.8054
  -3437797.04547  -2667284.92744  24304021.1094                   24304021.9694
 11  9 27  0 49  0.0000000  0 10G12G02G29G25G30G18G15G05G26G21
 -40126717.49546 -31247309.19844  23819159.7664                   23819161.9694
 -57717189.02847 -44954002.07345  22891874.6804                   22891874.1454
 -31899080.69648 -24838363.86846  20844695.4304                   20844695.3444
 -33238494.03747 -25878952.41845  22698066.9694                   22698070.4844
 -17692248.29547 -13767047.51844  22994450.8054                   22994452.6524
    338885.93646    276735.73343  23971923.9224                   23971925.1294
 -14114050.30947 -10978934.90945  22314487.0554                   22314487.8674
 -45558007.44248 -35478716.43646  21756389.7894                   21756390.0274
 -22700909.02147 -17669580.35645  21746026.1644                   21746026.6524
  -3566716.44747  -2767741.41244  24279488.5704                   24279488.6414
 11  9 27  0 49 30.0000000  0 10G12G02G29G25G30G18G15G05G26G21
 -40101144.45646 -31227382.16844  23824025.9844                   23824028.4454
 -57733371.85747 -44966612.03545  22888794.8754                   22888793.9574
 -32019256.18448 -24932007.04546  20821826.9454                   20821826.5554
 -33238889.28047 -25879260.40545  22697991.7424                   22697995.4924
 -17726047.78947 -13793384.72344  22988019.0314                   22988021.0124
    187931.29946    159108.91943  23943198.0944                   23943200.3914
 -14269606.26447 -11100147.20545  22284885.9454                   22284886.1454
 -45553121.53448 -35474909.19646  21757319.8834                   21757319.2304
 -22824876.87147 -17766178.57445  21722435.9774                   21722436.3984
  -3695681.44647  -2868233.41944  24254946.9534                   24254947.6764
 11  9 27  0 50  0.0000000  0 10G12G02G29G25G30G18G15G05G26G21
 -40075570.76747 -31207454.68044  23828892.7974                   23828895.2304
 -57749448.68847 -44979139.41045  22885735.4454                   22885734.6564
 -32139057.34548 -25025358.55046  20799029.4774                   20799029.7194
 -33239010.60747 -25879354.95945  22697968.3594                   22697971.9264
 -17759400.96646 -13819374.18045  22981672.2194                   22981674.5784
     37176.60146     41637.93543  23914510.0864                   23914512.6994
 -14424908.95447 -11221162.16145  22255332.4454                   22255332.9264
 -45548022.49548 -35470935.90046  21758290.2194                   21758290.3634
 -22948318.77647 -17862366.95845  21698945.8674                   21698945.5864
  -3824691.40247  -2968760.50843  24230396.6414                   24230396.7704
 11  9 27  0 50 30.0000000  0 10G12G02G29G25G30G18G15G05G26G21
 -40049998.09347 -31187527.93344  23833758.7894                   23833760.9844
 -57765417.84347 -44991582.87945  22882696.4304                   22882695.5394
 -32258481.01848 -25118415.89647  20776303.9384                   20776303.8954
 -33238860.08647 -25879237.66145  22697997.2734                   22698000.5164
 -17792309.20147 -13845016.88944  22975410.6484                   22975411.8754
   -113376.22346    -75675.72543  23885860.6024                   23885862.6724
 -14579954.15547 -11341976.47245  22225827.8984                   22225828.1174
 -45542712.01448 -35466797.82646  21759300.7344                   21759300.0984
 -23071230.92848 -17958142.55245  21675555.9694                   21675556.4494
  -3953745.79347  -3069322.19843  24205838.3914                   24205839.1684
 11  9 27  0 51  0.0000000  0 10G12G02G29G25G30G18G15G05G26G21
 -40024430.69147 -31167605.27443  23838624.1414                   23838626.8094
 -57781280.13947 -45003943.07944  22879678.0004                   22879677.2504
 -32377526.21448 -25211178.33646  20753650.3674                   20753650.6484
 -33238442.02747 -25878911.92745  22698076.0234                   22698079.6414
 -17824776.04647 -13870315.67744  22969231.9064                   22969233.2344
   -263727.52846   -192832.39743  23857250.1414                   23857251.6764
 -14734740.41047 -11462588.99845  22196373.4844                   22196373.5944
 -45537193.69448 -35462497.81246  21760350.3284                   21760350.2974
 -23193611.62047 -18053504.03945  21652268.0704                   21652267.9924
  -4082846.12247  -3169919.71943  24181271.2974                   24181271.0004
 11  9 27  0 51 30.0000000  0 10G12G02G29G25G30G18G15G05G26G21
 -39998868.79847 -31147687.00344  23843488.3444                   23843491.6954
 -57797032.71247 -45016217.77645  22876680.0634                   22876679.4534
 -32496188.00248 -25303641.99246  20731069.8674                   20731069.9104
 -33237756.79147 -25878377.98345  22698206.9924                   22698210.4534
 -17856801.06647 -13895270.21345  22963137.6804                   22963139.6684
   -413873.66046   -309829.08143  23828676.6414                   23828680.4534
 -14889261.84147 -11582995.16845  22166968.4924                   22166969.3794
 -45531466.77148 -35458035.25846  21761440.6644                   21761440.1374
 -23315455.27847 -18148447.04045  21629081.5084                   21629082.2624
  -4211989.74247  -3270550.91643  24156696.0944                   24156696.0784
 11  9 27  0 52  0.0000000  0 10G12G02G29G25G30G18G15G05G26G21
 -39973318.89646 -31127777.99244  23848350.5704                   23848353.0944
 -57812678.71447 -45028409.43244  22873702.9064                   22873702.1054
 -32614467.85548 -25395808.04446  20708561.9304                   20708561.5394
 -33236811.04847 -25877641.05945  22698386.8754                   22698391.0234
 -17888390.34747 -13919885.18944  22957126.1954                   22957128.2854
   -563817.65546   -426668.32443  23800144.1094                   23800146.6334
 -15043519.23747 -11703195.60945  22137614.1724                   22137614.6134
 -45525537.22348 -35453414.80046  21762568.2814                   21762568.4264
 -23436762.65647 -18242972.17845  21605997.3284                   21605997.5314
  -4341180.55947  -3371218.95644  24132112.1724                   24132111.6724
 11  9 27  0 52 30.0000000  0 10G12G02G29G25G30G18G15G05G26G21
 -39947784.33946 -31107881.01944  23853208.3754                   23853212.6134
 -57828217.79847 -45040517.79645  22870745.5474                   22870745.1524
 -32732363.74948 -25487674.91446  20686127.1024                   20686126.7304
 -33235608.15747 -25876703.75645  22698616.1024                   22698619.4024
 -17919546.61647 -13944162.77444  22951197.5704                   22951199.2464
   -713558.44746   -543349.26043  23771649.2344                   23771651.3954
 -15197509.45647 -11823187.85445  22108310.3134                   22108311.3164
 -45519408.24748 -35448638.96046  21763735.1414                   21763734.9184
 -23557531.22047 -18337077.44945  21583015.8054                   21583015.9224
  -4470419.24447  -3471924.26143  24107518.0784                   24107517.6564
 11  9 27  0 53  0.0000000  0 10G12G02G29G25G30G18G15G05G26G21
 -39922265.89246 -31087996.53644  23858065.2974                   23858068.9024
 -57843647.74447 -45052541.11545  22867810.0864                   22867809.6684
 -32849871.65248 -25579239.43846  20663765.7814                   20663765.1414
 -33234149.15147 -25875566.86445  22698893.7894                   22698896.8754
 -17950270.17147 -13968103.16144  22945351.3914                   22945352.5634
   -863093.21546   -659869.66744  23743193.7814                   23743196.0394
 -15351227.44647 -11942967.97145  22079059.4924                   22079059.9734
 -45513079.76648 -35443707.65246  21764939.6414                   21764938.9494
 -23677756.16647 -18430759.12045  21560137.5704                   21560138.0354
  -4599703.84247  -3572665.29944  24082916.1094                   24082915.3244
 11  9 27  0 53 30.0000000  0 10G12G02G29G25G30G18G15G05G26G21
 -39896768.18646 -31068128.28744  23862917.2194                   23862920.2344
 -57858969.91447 -45064480.42745  22864894.1954                   22864893.8094
 -32966990.97448 -25670501.17447  20641478.8364                   20641478.5944
 -33232438.81047 -25874234.16145  22699219.3364                   22699222.3364
 -17980565.24947 -13991709.70244  22939586.0084                   22939587.0944
  -1012422.86346   -776230.18043  23714777.1884                   23714778.5784
 -15504671.80147 -12062534.87745  22049860.3674                   22049860.6334
 -45506555.79548 -35438624.00246  21766180.9384                   21766179.9774
 -23797436.69547 -18524016.57245  21537362.9844                   21537363.8324
  -4729036.37846  -3673443.78343  24058305.4064                   24058305.5474
 11  9 27  0 54  0.0000000  0 10G12G02G29G25G30G18G15G05G26G21
 -39871294.79746 -31048278.94244  23867765.9694                   23867767.9964
 -57874184.55947 -45076335.96845  22861999.0084                   22861998.3324
 -33083720.53348 -25761459.20146  20619265.8054                   20619265.5474
 -33230481.22247 -25872708.77345  22699591.5164                   22699595.0004
 -18010435.26947 -14014984.99444  22933902.0164                   22933903.3284
  -1161547.73146   -892431.16444  23686399.1954                   23686402.0164
 -15657840.57947 -12181887.05145  22020712.6564                   22020713.1844
 -45499840.15348 -35433391.02546  21767458.5164                   21767458.5204
 -23916570.71447 -18616848.18645  21514692.6724                   21514693.0234
  -4858417.97247  -3774260.46243  24033684.5474                   24033683.7854
 11  9 27  0 54 30.0000000  0 10G12G02G29G25G30G18G15G05G26G21
 -39845848.00546 -31028450.33444  23872607.7734                   23872610.5474
 -57889290.81047 -45088107.04444  22859124.1174                   22859123.3634
 -33200057.65648 -25852111.41746  20597127.4384                   20597126.9024
 -33228278.99647 -25870992.75345  22700010.4844                   22700014.2234
 -18039882.28947 -14037930.70044  22928298.4304                   22928299.2584
  -1310466.36246  -1008471.45243  23658060.3984                   23658061.4144
 -15810730.11147 -12301021.62946  21991618.8524                   21991619.1254
 -45492933.94248 -35428009.53346  21768772.9454                   21768772.4304
 -24035155.24147 -18709251.60945  21492126.4224                   21492126.8244
  -4987848.50647  -3875115.28744  24009054.1564                   24009054.5864
 11  9 27  0 55  0.0000000  0 10G12G02G29G25G30G18G15G05G26G21
 -39820433.85446 -31008647.10244  23877443.6644                   23877446.7034
 -57904291.35547 -45099795.75944  22856269.6254                   22856268.7854
 -33316003.09948 -25942458.43647  20575063.6644                   20575062.8984
 -33225838.00647 -25869090.69045  22700475.1254                   22700478.1524
 -18068911.52747 -14060550.86344  22922774.4064                   22922775.7154
  -1459180.40546  -1124352.33243  23629762.1024                   23629762.5594
 -15963340.29647 -12419938.51445  21962577.5784                   21962578.7464
 -45485842.72548 -35422483.89046  21770122.3914                   21770122.2934
 -24153190.27047 -18801226.84045  21469665.1414                   21469665.4884
  -5117330.92646  -3976010.54344  23984414.4774                   23984415.0044
 11  9 27  0 55 30.0000000  0 10G12G02G29G25G30G18G15G05G26G21
 -39795051.94946 -30988869.05244  23882273.9304                   23882276.8674
 -57919182.60047 -45111399.29444  22853436.3444                   22853434.6094
 -33431551.51648 -26032496.08147  20553075.5944                   20553074.9654
 -33223158.10047 -25867002.47445  22700985.5864                   22700989.2424
 -18097522.31847 -14082844.97244  22917329.9224                   22917331.1094
  -1607686.30046  -1240071.06243  23601502.4304                   23601504.2234
 -16115664.96948 -12538632.94946  21933591.4144                   21933591.8834
 -45478565.66447 -35416813.43546  21771506.9694                   21771507.0234
 -24270669.60548 -18892769.09345  21447309.2734                   21447309.5394
  -5246862.24347  -4076943.90244  23959765.0314                   23959765.8484
 11  9 27  0 56  0.0000000  0 10G12G02G29G25G30G18G15G05G26G21
 -39769703.42847 -30969117.01144  23887097.7194                   23887099.7664
 -57933962.53847 -45122916.08845  22850623.4774                   22850622.8164
 -33546698.91048 -26122221.24547  20531163.6024                   20531162.8164
 -33220240.91647 -25864729.34045  22701540.2664                   22701543.8164
 -18125715.52547 -14104813.67544  22911964.8754                   22911966.2664
  -1755981.67146  -1355625.67843  23573281.2274                   23573281.7194
 -16267699.47547 -12657101.26145  21904659.9454                   21904660.0124
 -45471103.41748 -35410998.66446  21772926.6644                   21772926.5864
 -24387589.47247 -18983875.35445  21425059.8674                   21425060.6764
  -5376441.08147  -4177914.33744  23935107.0004                   23935107.7774
 11  9 27  0 56 30.0000000  0 10G12G02G29G25G30G18G15G05G26G21
 -39744394.86547 -30949396.02744  23891914.1804                   23891915.7894
 -57948634.15647 -45134348.48545  22847831.8204                   22847831.6764
 -33661447.14548 -26211635.38447  20509327.8134                   20509327.1564
 -33217093.12447 -25862276.52445  22702139.1174                   22702143.2074
 -18153497.47147 -14126461.91744  22906678.0084                   22906679.2074
  -1904068.98446  -1471018.16343  23545101.3594                   23545102.6134
 -16419444.60548 -12775344.09045  21875784.2504                   21875784.2814
 -45463462.04148 -35405044.32946  21774381.0784                   21774380.5864
 -24503950.86147 -19074546.47845  21402917.7344                   21402917.7854
  -5506071.51447  -4278924.90744  23910439.4384                   23910439.7894
 11  9 27  0 57  0.0000000  0 10G12G02G29G25G30G18G15G05G26G21
 -39719127.94547 -30929707.54844  23896721.9844                   23896723.3134
 -57963196.42247 -45145695.66545  22845061.1724                   22845059.2114
 -33775793.15948 -26300736.09147  20487568.3914                   20487567.4104
 -33213716.90547 -25859645.71245  22702781.5944                   22702786.3204
 -18180869.61647 -14147790.86544  22901469.1954                   22901470.8134
  -2051946.60346  -1586247.32043  23516960.8674                   23516962.5944
 -16570896.12147 -12893358.13945  21846963.1414                   21846963.3954
 -45455642.73847 -35398951.32746  21775868.7114                   21775868.8524
 -24619750.13147 -19164779.56245  21380881.1174                   21380881.7464
  -5635752.74646  -4379975.07944  23885761.0634                   23885761.9104
 11  9 27  0 57 30.0000000  0 10G12G02G29G25G30G18G15G05G26G21
 -39693905.22247 -30910053.51144  23901521.4534                   23901524.5004
 -57977648.51247 -45156956.98944  22842310.2664                   22842309.7464
 -33889734.08948 -26389521.14847  20465886.0084                   20465885.6524
 -33210114.96747 -25856839.00945  22703467.2114                   22703470.5204
 -18207834.22947 -14168802.22044  22896338.0394                   22896339.4304
  -2199613.26246  -1701312.00643  23488860.8524                   23488861.7774
 -16722050.83647 -13011140.92045  21818199.4534                   21818199.5664
 -45447647.06947 -35392720.90846  21777390.6644                   21777390.1374
 -24734984.17748 -19254572.21545  21358953.4924                   21358953.3554
  -5765484.24147  -4481064.48144  23861074.5864                   23861074.8914
 11  9 27  0 58  0.0000000  0 10G12G02G29G25G30G18G15G05G26G21
 -38093311.73847 -29662837.82243  24206104.3754                   24206107.1604
 -56416570.57047 -43940532.56344  23139373.9614                   23139372.2584
 -32427845.77648 -25250387.31247  20744073.8594                   20744073.5314
 -31630871.87947 -24626259.97545  23003987.1334                   23003990.9494
 -16658974.37447 -12961898.42344  23191076.2734                   23191078.5274
   -771644.75346   -588609.06143  23760593.3524                   23760596.0124
 -15297481.94748 -11901087.11645  22089285.7034                   22089285.8134
 -43864059.71747 -34158756.70946  22078737.0004                   22078736.7734
 -23274228.04848 -18116320.58245  21636925.7974                   21636925.2934
  -4319843.19147  -3354590.83143  24136171.0004                   24136171.3834
 11  9 27  0 58 30.0000000  0 10G12G02G29G25G30G18G15G05G26G21
 -38068182.59847 -29643256.69843  24210886.9224                   24210888.2424
 -56430797.44547 -43951618.40044  23136665.9384                   23136664.8444
 -32540967.54848 -25338534.06747  20722547.4384                   20722546.6954
 -31626824.49947 -24623106.17445  23004757.0864                   23004760.9654
 -16685128.33247 -12982278.10544  23186099.1094                   23186101.5554
   -918884.12046   -703340.83843  23732574.4924                   23732576.6024
 -15448030.45147 -12018397.51546  22060637.3674                   22060637.5204
 -43855716.27947 -34152255.29846  22080324.8754                   22080324.4734
 -23388320.98547 -18205224.06745  21615214.1174                   21615214.2854
  -4449672.70147  -3455756.61443  24111464.8984                   24111465.4264
 11  9 27  0 59  0.0000000  0 10G12G02G29G25G30G18G15G05G26G21
 -38043105.32647 -29623715.97043  24215658.1724                   24215659.9774
 -56444911.88247 -43962616.63044  23133980.0394                   23133978.8874
 -32653677.41048 -25426359.86047  20701099.7894                   20701098.9384
 -31622559.96247 -24619783.15045  23005568.6484                   23005572.8984
 -16710881.69547 -13002345.60944  23181198.8204                   23181199.3954
  -1065909.27147   -817905.63344  23704596.9614                   23704598.7424
 -15598272.22648 -12135468.91746  22032046.6564                   22032047.4264
 -43847202.86247 -34145621.44546  22081945.0704                   22081945.0634
 -23501840.38148 -18293680.63645  21593612.5314                   21593612.4884
  -4579552.42347  -3556961.48544  24086749.7194                   24086749.0044
 11  9 27  0 59 30.0000000  0 10G12G02G29G25G30G18G15G05G26G21
 -38018085.38747 -29604219.89643  24220419.3444                   24220421.1994
 -56458916.29347 -43973529.11744  23131314.7584                   23131313.7974
 -32765975.65548 -25513864.90647  20679729.8914                   20679729.1564
 -31618083.87647 -24616295.26445  23006420.2114                   23006423.5554
 -16736239.67347 -13022105.06444  23176373.3834                   23176374.2814
  -1212722.44847   -932305.30544  23676659.7974                   23676660.4304
 -15748206.70048 -12252300.83646  22003515.1024                   22003515.3524
 -43838524.44747 -34138859.00746  22083596.5084                   22083596.4964
 -23614786.42947 -18381690.43345  21572119.2734                   21572118.8594
  -4709484.95847  -3658207.51644  24062024.5864                   24062023.5864
 11  9 27  1  0  0.0000000  0 10G12G02G29G25G30G18G15G05G26G21
 -37993124.53646 -29584769.92443  24225168.7814                   24225172.0434
 -56472809.31447 -43984354.79944  23128671.0944                   23128670.4024
 -32877859.45848 -25601047.00647  20658438.8524                   20658438.3794
 -31613398.44447 -24612644.28645  23007311.7814                   23007315.9344
 -16761203.90347 -13041557.68044  23171622.5004                   23171623.5514
  -1359321.89846  -1046538.39143  23648762.1024                   23648763.9654
 -15897830.04748 -12368890.33946  21975043.0164                   21975043.1024
 -43829682.16947 -34131968.89946  22085279.1024                   22085279.0744
 -23727155.29847 -18469250.51045  21550735.9534                   21550736.2464
  -4839469.65047  -3759494.23943  24037288.9844                   24037288.1764
 11  9 27  1  0 30.0000000  0 10G12G02G29G25G30G18G15G05G26G21
 -37968224.92346 -29565367.63843  24229907.1564                   24229910.1094
 -56486590.00847 -43995092.94344  23126049.1174                   23126047.7974
 -32989326.43048 -25687904.29647  20637227.6174                   20637226.8754
 -31608506.46847 -24608832.35745  23008242.8834                   23008246.2074
 -16785776.76447 -13060705.33844  23166946.5474                   23166947.6054
  -1505706.46447  -1160604.04744  23620905.7584                   23620907.2304
 -16047139.01248 -12485234.86846  21946630.1884                   21946629.9694
 -43820678.09147 -34124952.71546  22086992.0944                   22086991.7344
 -23838944.53148 -18556358.90946  21529463.4694                   21529463.3754
  -4969506.18347  -3860821.29544  24012544.1334                   24012543.4844
 11  9 27  1  1  0.0000000  0 10G12G02G29G25G30G18G15G05G26G21
 -37943389.98546 -29546015.75443  24234633.3364                   24234636.5234
 -56500258.38747 -44005743.62044  23123447.7114                   23123446.9454
 -33100374.90148 -25774435.48947  20616095.8914                   20616094.7114
 -31603411.35247 -24604862.11845  23009212.7664                   23009216.4654
 -16809961.10547 -13079550.24344  23162343.5864                   23162344.7464
  -1651875.62447  -1274501.80944  23593090.8134                   23593092.9574
 -16196130.97048 -12601332.37346  21918277.9144                   21918278.0744
 -43811514.62847 -34117812.33346  22088736.3984                   22088735.6994
 -23950151.93048 -18643013.93946  21508301.4304                   21508301.5394
  -5099594.93247  -3962189.05243  23987788.4844                   23987788.1884
 11  9 27  1  1 30.0000000  0 10G12G02G29G25G30G18G15G05G26G21
 -37918623.02546 -29526716.82343  24239346.6644                   24239349.5164
 -56513814.71147 -44016306.93444  23120868.4694                   23120866.5784
 -33211003.35348 -25860639.40147  20595043.7194                   20595043.1954
 -31598116.98547 -24600736.61445  23010219.9614                   23010223.4534
 -16833760.41046 -13098095.10444  23157814.7114                   23157816.2774
  -1797829.42947  -1388231.77344  23565316.9614                   23565317.5434
 -16344803.84848 -12717181.25246  21889986.4144                   21889985.9184
 -43802194.81347 -34110550.11245  22090509.3204                   22090509.2774
 -24060776.01248 -18729214.42046  21487249.9384                   21487250.1644
  -5229736.94947  -4063598.29844  23963023.7114                   23963023.0314
 11  9 27  1  2  0.0000000  0 10G12G02G29G25G30G18G15G05G26G21
 -37893925.61146 -29507472.05943  24244045.8984                   24244049.1134
 -56527257.43447 -44026781.77044  23118310.0554                   23118308.8874
 -33321208.91648 -25946513.79647  20574072.6884                   20574071.5394
 -31592625.48247 -24596457.49945  23011265.3914                   23011269.0474
 -16857176.36847 -13116341.25844  23153359.0234                   23153360.9344
  -1943566.06847  -1501792.51544  23537583.3054                   23537584.2584
 -16493153.31648 -12832778.11346  21861756.6484                   21861756.8134
 -43792720.16447 -34103167.24345  22092312.3364                   22092311.9104
 -24170813.18847 -18814957.59545  21466310.4384                   21466310.4884
  -5359931.19347  -4165048.24744  23938247.6724                   23938247.7624
 11  9 27  1  2 30.0000000  0 10G12G02G29G25G30G18G15G05G26G21
 -37869303.99946 -29488286.40243  24248731.9064                   24248734.2624
 -56540589.38547 -44037170.24144  23115772.5944                   23115772.0204
 -33430992.62848 -26032059.48047  20553181.3914                   20553180.2274
 -31586942.91447 -24592029.51445  23012346.3364                   23012350.2424
 -16880214.63946 -13134293.13044  23148974.2504                   23148977.1994
  -2089088.00047  -1615185.97444  23509891.5234                   23509892.7734
 -16641179.63148 -12948123.17246  21833587.6954                   21833587.2274
 -43783095.90347 -34095667.77846  22094143.6334                   22094143.4884
 -24280264.10947 -18900243.93245  21445482.6804                   21445482.9144
  -5490180.77146  -4266541.33543  23913462.5554                   23913461.6094
 11  9 27  1  3  0.0000000  0 10G12G02G29G25G30G18G15G05G26G21
 -37844757.20946 -29469159.12543  24253402.5474                   24253405.1334
 -56553806.79047 -44047469.48844  23113257.4844                   23113256.7814
 -33540348.91848 -26117272.10747  20532371.3134                   20532369.9694
 -31581068.98247 -24587452.38345  23013464.2194                   23013467.8794
 -16902874.49847 -13151950.12544  23144662.8134                   23144664.8914
  -2234391.02846  -1728408.84144  23482240.3364                   23482241.7154
 -16788876.35148 -13063211.39546  21805482.2034                   21805482.3094
 -43773320.60847 -34088050.64845  22096004.3134                   22096003.8244
 -24389123.29447 -18985069.18145  21424767.6334                   21424767.2114
  -5620482.52247  -4368075.06743  23888666.1254                   23888666.0164
 11  9 27  1  3 30.0000000  0 10G12G02G29G25G30G18G15G05G26G21
 -37820283.74346 -29450088.92043  24258060.6564                   24258061.4804
 -56566904.81947 -44057675.70044  23110765.6414                   23110764.0784
 -33649271.52348 -26202146.80747  20511643.8134                   20511643.3674
 -31575002.68047 -24582725.38645  23014618.4534                   23014622.1884
 -16925154.54146 -13169311.14044  23140423.3444                   23140425.0474
  -2379470.23646  -1841457.32944  23454632.5084                   23454634.0234
 -16936236.34048 -13178037.25446  21777440.3984                   21777439.6884
 -43763392.44647 -34080314.38245  22097893.5234                   22097892.5554
 -24497383.77347 -19069427.90445  21404165.9774                   21404165.0554
  -5750832.11747  -4469646.08143  23863861.9534                   23863861.4184
 11  9 27  1  4  0.0000000  0 10G12G02G29G25G30G18G15G05G26G21
 -37795887.39346 -29431078.79743  24262701.2664                   24262705.2774
 -56579884.25547 -44067789.51544  23108295.6334                   23108294.3204
 -33757759.72448 -26286683.00547  20490999.1804                   20490997.4694
 -31568748.21247 -24577851.75845  23015809.1484                   23015811.7034
 -16947058.54547 -13186379.12644  23136255.1174                   23136256.8364
  -2524326.17346  -1954331.82543  23427068.0314                   23427069.2114
 -17083257.84848 -13292599.34246  21749462.4454                   21749462.7584
 -43753314.61747 -34072461.50446  22099811.2894                   22099810.6994
 -24605044.87348 -19153319.58445  21383678.9844                   21383678.5044
  -5881231.13347  -4571255.61744  23839047.0164                   23839047.9224
 11  9 27  1  4 30.0000000  0 10G12G02G29G25G30G18G15G05G26G21
 -37771575.78446 -29412134.64343  24267328.5394                   24267331.3164
 -56592749.46047 -44077814.30044  23105847.1804                   23105845.8364
 -33865816.39648 -26370882.95447  20470436.8984                   20470435.8794
 -31562313.47147 -24572837.66545  23017033.1804                   23017037.1374
 -16968594.01346 -13203159.98244  23132156.6334                   23132158.8164
  -2668962.71447  -2067035.36543  23399544.2114                   23399544.6684
 -17229942.77448 -13406899.16646  21721549.6254                   21721549.3554
 -43743094.01947 -34064497.37045  22101755.8674                   22101755.9064
 -24712108.98248 -19236746.06345  21363305.2814                   21363304.7154
  -6011684.07047  -4672907.14944  23814223.3284                   23814223.3444
 11  9 27  1  5  0.0000000  0 10G12G02G29G25G30G18G15G05G26G21
 -37747352.90346 -29393259.70943  24271938.3674                   24271940.4414
 -56605501.57047 -44087750.98844  23103420.9224                   23103418.7464
 -33973440.95648 -26454746.19647  20449956.6414                   20449955.2384
 -31555703.03247 -24567686.67945  23018291.1024                   23018294.9104
 -16989765.30947 -13219657.05544  23128127.9694                   23128129.7664
  -2813380.87147  -2179568.77543  23372062.7504                   23372062.7934
 -17376289.68548 -13520935.59546  21693700.1954                   21693700.5634
 -43732734.03747 -34056424.63045  22103727.2664                   22103727.2194
 -24818575.32748 -19319706.76945  21343045.3594                   21343045.1214
  -6142192.53147  -4774601.94644  23789388.5944                   23789388.3164
 11  9 27  1  5 30.0000000  0 10G12G02G29G25G30G18G15G05G26G21
 -37723219.88646 -29374454.77843  24276530.4534                   24276533.6844
 -56618138.20247 -44097597.64044  23101016.4844                   23101014.1414
 -34080629.24748 -26538269.48047  20429559.2114                   20429558.1214
 -31548918.04847 -24562399.65045  23019581.9144                   23019585.9964
 -17010572.98947 -13235870.81044  23124168.7194                   23124170.0864
  -2957578.16847  -2291930.08643  23344621.7034                   23344623.0594
 -17522293.42248 -13634704.61946  21665916.9064                   21665916.1604
 -43722235.56247 -34048243.98746  22105724.9534                   22105724.7974
 -24924439.52648 -19402198.25345  21322899.5394                   21322899.4804
  -6272754.86847  -4876338.69744  23764542.8444                   23764543.1484
 11  9 27  1  6  0.0000000  0 10G12G02G29G25G30G18G15G05G26G21
 -37699176.47645 -29355719.71542  24281106.4924                   24281109.3444
 -56630656.09647 -44107351.81044  23098633.2664                   23098632.4574
 -34187377.06148 -26621449.53947  20409245.5864                   20409244.1644
 -31541959.03847 -24556977.07245  23020906.2974                   23020910.4104
 -17031017.41447 -13251801.49744  23120277.8594                   23120280.1724
  -3101551.24947  -2404116.70544  23317224.8524                   23317225.3874
 -17667948.31348 -13748201.82446  21638198.9454                   21638199.4304
 -43711597.94447 -34039954.90046  22107749.4614                   22107749.1484
 -25029697.05048 -19484216.99546  21302870.4534                   21302869.6374
  -6403368.37847  -4978115.33444  23739687.6174                   23739687.9804
 11  9 27  1  6 30.0000000  0 10G12G02G29G25G30G18G15G05G26G21
 -37675227.36345 -29337058.06642  24285663.0004                   24285666.4064
 -56643056.93247 -44117014.73544  23096273.6174                   23096272.6764
 -34293683.95847 -26704286.02547  20389015.8134                   20389014.8134
 -31534831.00947 -24551422.77045  23022263.1094                   23022266.4614
 -17051103.11547 -13267452.67544  23116455.7584                   23116457.2464
  -3245301.17147  -2516129.48444  23289869.6724                   23289870.5124
 -17813253.80448 -13861426.75146  21610548.5784                   21610548.4844
 -43700825.10447 -34031560.45245  22109799.2504                   22109799.4454
 -25134347.51847 -19565762.72346  21282955.6334                   21282955.2424
  -6534034.89947  -5079933.28844  23714822.4694                   23714822.6844
 11  9 27  1  7  0.0000000  0 10G12G02G29G25G30G18G15G05G26G21
 -37651375.56746 -29318472.29742  24290201.2274                   24290205.3484
 -56655340.98546 -44126586.72344  23093935.9384                   23093935.1374
 -34399549.01448 -26786778.22747  20368870.7034                   20368869.5234
 -31527537.82247 -24545739.76545  23023650.6174                   23023654.2504
 -17070833.72647 -13282827.12844  23112701.9924                   23112702.9024
  -3388828.19246  -2627968.50944  23262557.4844                   23262558.1094
 -17958207.68047 -13974377.69946  21582965.1254                   21582964.2774
 -43689919.92848 -34023062.88745  22111874.6884                   22111873.8834
 -25238389.76448 -19646834.51345  21263157.0084                   21263156.7934
  -6664755.08047  -5181793.03744  23689947.3054                   23689947.4774
 11  9 27  1  7 30.0000000  0 10G12G02G29G25G30G18G15G05G26G21
 -37627623.49845 -29299964.20342  24294722.4064                   24294724.9774
 -56667507.64847 -44136067.19144  23091620.6094                   23091620.0904
 -34504969.96648 -26868924.36447  20348809.6804                   20348808.8364
 -31520082.31547 -24539930.26945  23025069.2814                   23025073.7234
 -17090211.76347 -13297926.88544  23109014.4454                   23109014.7894
  -3532131.57447  -2739633.32044  23235287.0864                   23235287.9264
 -18102806.80448 -14087052.22846  21555448.9304                   21555448.3874
 -43678884.36947 -34014463.71545  22113974.5164                   22113974.2344
 -25341821.11548 -19727430.28346  21243474.2584                   21243473.6524
  -6795529.17247  -5283694.77344  23665061.8834                   23665061.7194
 11  9 27  1  8  0.0000000  0 10G12G02G29G25G30G18G15G05G26G21
 -37603970.54145 -29281533.38742  24299222.3524                   24299224.6914
 -56679552.60447 -44145452.80544  23089328.9774                   23089327.7734
 -34609941.18448 -26950720.05547  20328834.3284                   20328833.2504
 -31512463.75247 -24533993.74345  23026519.0554                   23026523.4924
 -17109236.16147 -13312751.07244  23105393.3594                   23105395.5864
  -3675206.46647  -2851120.06444  23208061.5314                   23208061.7074
 -18247044.47048 -14199445.08846  21528000.6954                   21528000.5704
 -43667716.87247 -34005761.72145  22116100.2274                   22116099.2194
 -25444635.87348 -19807545.58446  21223909.3134                   21223908.8524
  -6926353.12047  -5385635.37644  23640166.6254                   23640166.6764
 11  9 27  1  8 30.0000000  0 10G12G02G29G25G30G18G15G05G26G21
 -37580420.20945 -29263182.43042  24303705.6174                   24303704.9884
 -56691476.65947 -44154744.23544  23087059.4304                   23087058.7814
 -34714462.20748 -27032164.95847  20308944.3914                   20308943.3954
 -31504686.66747 -24527933.67645  23027998.9534                   23028002.4414
 -17127911.18547 -13327303.01544  23101839.8524                   23101841.0084
  -3818053.93547  -2962429.66344  23180878.3204                   23180878.7624
 -18390919.11348 -14311555.06846  21500622.4534                   21500622.1454
 -43656420.98247 -33996959.70546  22118248.9224                   22118249.0664
 -25546833.40847 -19887179.93346  21204461.7344                   21204461.6844
  -7057228.11946  -5487615.73444  23615262.5864                   23615261.6604
 11  9 27  1  9  0.0000000  0 10G12G02G29G25G30G18G15G05G26G21
 -35981557.47645 -28017315.50042  24607958.4774                   24607959.7584
 -55127860.85847 -42936342.27144  23384605.7344                   23384604.9104
 -33243108.85648 -25885655.79447  20588933.1484                   20588931.9414
 -29921335.87447 -23294153.85445  23329301.1804                   23329304.4184
 -15570820.42347 -12113985.53744  23398144.5394                   23398145.9924
  -2385249.92647  -1845958.84044  23453530.9614                   23453531.3914
 -16959004.65948 -13195777.45846  21773106.1254                   21773106.2154
 -42069580.57847 -32760460.66645  22420214.8284                   22420214.7544
 -24072989.55047 -18738730.09446  21484925.0234                   21484924.9384
  -5612731.31746  -4362033.65144  23890140.1254                   23890140.3954
 11  9 27  1  9 30.0000000  0 10G12G02G29G25G30G18G15G05G26G21
 -35958223.00445 -27999132.84442  24612398.7274                   24612400.1524
 -55139545.02646 -42945446.77744  23382382.4774                   23382381.4534
 -33346726.25548 -25966396.56947  20569215.8984                   20569214.5554
 -29913253.65447 -23287856.01645  23330838.6804                   23330842.7304
 -15588807.65747 -12128001.53844  23394721.6414                   23394722.5864
  -2527643.31846  -1956914.57044  23426434.7194                   23426435.2814
 -17102147.24247 -13307317.00846  21745867.2584                   21745866.6334
 -42058036.26747 -32751465.07645  22422411.9774                   22422411.7304
 -24173948.97247 -18817399.67046  21465713.0864                   21465712.7154
  -5743711.32946  -4464095.86344  23865216.0784                   23865214.9774
 11  9 27  1 10  0.0000000  0 10G12G02G29G25G30G18G15G05G26G21
 -35934996.719 5                  24616818.664
 -55151105.05446 -42954454.56144  23380182.7664                   23380181.2734
 -33449885.24348 -26046780.13147  20549585.3524                   20549584.0904
 -29905020.06947 -23281440.24645  23332405.7664                   23332408.7664
 -15606451.85147 -12141750.25344  23391363.8054                   23391365.4654
  -2669805.16746  -2067689.90544  23399381.8524                   23399382.7814
 -17244916.38947 -13418565.58046  21718698.8834                   21718698.7504
 -42046367.38947 -32742372.42345  22424631.9064                   22424632.1724
 -24274283.05848 -18895581.99846  21446619.9924                   21446619.6914
  -5874740.45846  -4566196.35843  23840281.7584                   23840282.0864
 11  9 27  1 10 30.0000000  0 10G12G02G29G25G30G18G15G05G26G21
 -35911885.330 5                  24621214.813
 -55162543.91546 -42963367.94344  23378006.1094                   23378004.6524
 -33552587.81648 -26126808.04847  20530041.1414                   20530040.6994
 -29896641.52447 -23274911.50444  23334000.2274                   23334003.0554
 -15623759.13347 -12155236.45144  23388070.6724                   23388072.4534
  -2811738.15246  -2178286.88444  23372372.9774                   23372373.7384
 -17387312.26247 -13529523.29646  21691602.0554                   21691601.1804
 -42034579.32847 -32733186.89145  22426874.9924                   22426874.7934
 -24373993.07948 -18973278.02646  21427645.3204                   21427644.9064
  -6005821.67046  -4668337.42744  23815338.0314                   23815337.7814
 11  9 27  1 11  0.0000000  0 10G12G02G29G25G30G18G15G05G26G21
 -35888891.532 5                  24625591.703
 -55173861.86246 -42972187.08744  23375852.2034                   23375851.0984
 -33654832.46048 -26206479.14047  20510585.1254                   20510583.9844
 -29888121.68747 -23268272.68745  23335621.9224                   23335624.8484
 -15640732.91247 -12168462.75044  23384839.9304                   23384841.6914
  -2953442.60447  -2288705.79644  23345407.3674                   23345407.7034
 -17529332.73948 -13640188.49646  21664576.6804                   21664575.5234
 -42022675.03647 -32723910.80145  22429140.6484                   22429139.4734
 -24473077.86847 -19050486.87246  21408790.0944                   21408790.1954
  -6136955.82746  -4770519.73944  23790383.1414                   23790382.8484
 11  9 27  1 11 30.0000000  0 10G12G02G29G25G30G18G15G05G26G21
                                  24629941.594
 -55185058.41846 -42980911.63044  23373720.8444                   23373720.5274
 -33756617.62148 -26285792.19447  20491216.3204                   20491214.7704
 -29879463.81647 -23261526.30244  23337268.6174                   23337272.2424
 -15657376.23347 -12181431.56344  23381672.8754                   23381674.7034
  -3094918.02547  -2398946.20544  23318485.4844                   23318485.6214
 -17670975.07748 -13750559.04746  21637622.6804                   21637621.8244
 -42010656.91047 -32714546.01245  22431427.4304                   22431426.8914
 -24571535.67348 -19127207.15646  21390054.1484                   21390054.0744
  -6268143.03146  -4872743.44644  23765419.4384                   23765419.1414
 11  9 27  1 12  0.0000000  0  9G02G29G25G30G18G15G05G26G21
 -55196130.62946 -42989539.29744  23371614.4614                   23371613.4264
 -33857939.13248 -26364743.96047  20471934.8204                   20471933.6604
 -29870668.46447 -23254672.79544  23338942.7274                   23338946.5044
 -15673689.46847 -12194143.16744  23378568.7274                   23378571.1214
  -3236161.11347  -2509005.62044  23291607.3284                   23291607.4614
 -17812233.92748 -13860630.77046  21610741.8914                   21610741.9884
 -41998524.12147 -32705091.85545  22433736.2664                   22433735.6254
 -24669361.76348 -19203435.19146  21371438.9774                   21371437.9064
  -6399380.79546  -4975006.54044  23740445.9304                   23740443.8714
 11  9 27  1 12 30.0000000  0  9G02G29G25G30G18G15G05G26G21
 -55207078.35946 -42998069.97444  23369531.3834                   23369530.0124
 -33958794.98148 -26443332.87247  20452742.7734                   20452741.4224
 -29861739.07847 -23247714.82944  23340641.3054                   23340645.4144
 -15689675.73647 -12206599.97144  23375526.5164                   23375527.9024
  -3377172.04447  -2618884.13044  23264773.9304                   23264775.3164
 -17953106.95048 -13970401.86546  21583934.6024                   21583933.7894
 -41986279.06647 -32695550.24745  22436066.3834                   22436065.7384
 -24766554.98548 -19279170.08546  21352943.2894                   21352942.6804
  -6530669.21846  -5077309.07744  23715461.9774                   23715460.7034
 11  9 27  1 13  0.0000000  0  9G02G29G25G30G18G15G05G26G21
 -55217903.65946 -43006505.23944  23367471.3984                   23367469.9414
 -34059186.06348 -26521559.63247  20433638.6884                   20433638.1254
 -29852680.93547 -23240656.54444  23342365.0314                   23342368.6334
 -15705340.19847 -12218806.04744  23372546.5944                   23372547.6954
  -3517951.90747  -2728582.56444  23237984.4304                   23237984.5044
 -18093593.33148 -14079871.66846  21557200.5784                   21557200.2584
 -41973925.81147 -32685924.28845  22438417.3834                   22438416.8324
 -24863115.69348 -19354412.10446  21334568.2974                   21334567.7034
  -6662010.53946  -5179652.82744  23690468.1094                   23690468.1484
 11  9 27  1 13 30.0000000  0 10G12G02G29G25G30G18G15G05G26G21
  11075374.65714                  24647122.297
 -55228604.70746 -43014843.71544  23365435.0004                   23365433.7274
 -34159109.05648 -26599421.65247  20414624.4304                   20414623.3244
 -29843495.84947 -23233499.35644  23344113.2894                   23344116.6484
 -15720684.53247 -12230762.64744  23369625.9844                   23369627.8404
  -3658499.45846  -2838099.96544  23211238.9844                   23211239.2074
 -18233689.50247 -14189037.42746  21530541.3284                   21530540.5744
 -41961465.28047 -32676214.77845  22440788.5554                   22440787.9224
 -24959040.82448 -19429158.88346  21316314.3524                   21316313.8364
  -6793403.11247  -5282036.53344  23665464.9224                   23665464.7854
 11  9 27  1 14  0.0000000  0 10G12G02G29G25G30G18G15G05G26G21
                                  24651355.328
 -55239180.61746 -43023084.66644  23363422.2734                   23363420.9534
 -34258561.71548 -26676917.17447  20395698.8204                   20395698.0664
 -29834186.35147 -23226245.21344  23345885.1804                   23345888.4414
 -15735711.06947 -12242471.65744  23366766.6954                   23366768.2154
  -3798813.39946  -2947435.36244  23184537.9844                   23184538.1604
 -18373391.69348 -14297896.18146  21503957.2504                   21503956.2194
 -41948899.31547 -32666423.08645  22443179.6414                   22443178.6724
 -25054328.38648 -19503408.84545  21298181.6254                   21298181.3874
  -6924846.85947  -5384460.14344  23640452.4694                   23640451.5864
 11  9 27  1 14 30.0000000  0 10G12G02G29G25G30G18G15G05G26G21
                                  24655559.578
 -55249634.35446 -43031230.42844  23361433.1254                   23361432.2934
 -34357546.19348 -26754047.87547  20376862.8444                   20376861.6174
 -29824759.04647 -23218899.29344  23347679.0944                   23347682.6334
 -15750426.23147 -12253938.00544  23363966.3984                   23363968.2544
  -3938896.88847  -3056591.16444  23157880.9224                   23157881.8284
 -18512700.74848 -14406448.60346  21477446.9924                   21477446.7894
 -41936233.20347 -32656553.35545  22445590.1884                   22445589.1914
 -25148979.85248 -19577163.15946  21280169.8834                   21280169.5554
  -7056344.88847  -5486926.02144  23615428.9454                   23615428.6954
 11  9 27  1 15  0.0000000  0 10G12G02G29G25G30G18G15G05G26G21
  11141687.75515                  24659741.719
 -55259965.00446 -43039280.20944  23359466.8834                   23359465.1604
 -34456059.78148 -26830811.65147  20358116.6024                   20358115.0044
 -29815216.42247 -23211463.50744  23349494.4224                   23349498.5984
 -15764832.26647 -12265163.48744  23361225.3834                   23361226.4454
  -4078748.62647  -3165566.43644  23131268.1644                   23131268.1214
 -18651613.42048 -14514692.13646  21451012.4694                   21451012.1524
 -41923468.20547 -32646606.58045  22448019.1414                   22448017.6094
 -25242993.05548 -19650420.11346  21262280.1254                   21262279.3094
  -7187896.61847  -5589433.75744  23590395.2034                   23590395.4804
 11  9 27  1 15 30.0000000  0 10G12G02G29G25G30G18G15G05G26G21
  11163514.51915                  24663893.969
 -55270170.03947 -43047232.19144  23357525.1564                   23357523.9774
 -34554099.22348 -26907205.97747  20339459.9694                   20339458.6724
 -29805559.54747 -23203938.70145  23351331.9924                   23351336.4734
 -15778930.12347 -12276148.80943  23358541.6884                   23358543.3364
  -4218366.42347  -3274359.35244  23104699.0084                   23104700.1054
 -18790124.84048 -14622623.02246  21424655.0634                   21424654.2704
 -41910604.25147 -32636582.69345  22450466.7584                   22450466.3754
 -25336364.21048 -19723176.77646  21244511.9144                   21244511.4614
  -7319499.64747  -5691981.45444  23565351.7584                   23565351.9224
 11  9 27  1 16  0.0000000  0 10G12G02G29G25G30G18G15G05G26G21
  11185201.22115                  24668021.594
 -55280246.92647 -43055084.32044  23355607.5864                   23355606.1684
 -34651660.05048 -26983227.35247  20320894.4454                   20320893.6254
 -29795789.21847 -23196325.50244  23353191.1954                   23353195.4614
 -15792720.52946 -12286894.63643  23355917.7274                   23355918.9144
  -4357747.36047  -3382967.70144  23078176.0084                   23078175.4104
 -18928230.13247 -14730237.43246  21398374.4144                   21398373.5554
 -41897641.17047 -32626481.56745  22452933.4384                   22452933.0594
 -25429089.63848 -19795430.28745  21226866.4384                   21226866.2304
  -7451151.67347  -5794567.34844  23540299.6884                   23540299.0434
 11  9 27  1 16 30.0000000  0 10G12G02G29G25G30G18G15G05G26G21
  11206741.299 5                  24672119.953
 -55290199.75146 -43062839.71544  23353713.9614                   23353711.9804
 -34748744.83148 -27058877.77747  20302419.6724                   20302418.5204
 -29785912.83747 -23188629.68644  23355071.3594                   23355075.1374
 -15806210.67946 -12297406.44343  23353350.3054                   23353352.2194
  -4496894.81246  -3491394.15744  23051697.4774                   23051697.0704
 -19065931.07047 -14837536.77146  21372170.5554                   21372169.8834
 -41884585.44447 -32616308.25145  22455418.0234                   22455417.1054
 -25521171.99948 -19867182.69046  21209343.8444                   21209343.2934
  -7582857.13347  -5897194.89444  23515236.5944                   23515235.7704
 11  9 27  1 17  0.0000000  0 10G12G02G29G25G30G18G15G05G26G21
  11228133.020 5                  24676189.383
 -55300026.98147 -43070497.30044  23351843.9224                   23351842.6804
 -34845351.55548 -27134155.69047  20284036.2734                   20284035.2504
 -29775932.74147 -23180853.01845  23356970.2114                   23356974.8134
 -15819402.86546 -12307686.08443  23350840.8204                   23350842.1994
  -4635808.09747  -3599638.11244  23025263.3754                   23025262.9304
 -19203224.18648 -14944518.32846  21346044.5634                   21346043.3794
 -41871438.30247 -32606063.70545  22457919.7504                   22457919.1374
 -25612608.89948 -19938432.15346  21191944.1804                   21191943.7504
  -7714615.27647  -5999863.48444  23490163.4924                   23490162.6764
 11  9 27  1 17 30.0000000  0  9G02G29G25G30G18G15G05G26G21
 -55309727.36546 -43078056.04944  23349997.7034                   23349996.3364
 -34941477.10548 -27209058.67247  20265743.8984                   20265742.5634
 -29765850.92847 -23172997.10544  23358888.8754                   23358893.0824
 -15832299.00446 -12317735.00643  23348386.4534                   23348388.2934
  -4774485.88847  -3707698.59144  22998872.9694                   22998872.8364
 -19340105.54348 -15051179.02146  21319996.5944                   21319995.2344
 -41858200.27147 -32595748.33645  22460438.8984                   22460438.7934
 -25703398.07148 -20009176.87746  21174667.3204                   21174666.5044
  -7846424.25547  -6102571.68144  23465081.2894                   23465080.3284
 11  9 27  1 18  0.0000000  0  9G02G29G25G30G18G15G05G26G21
 -55319300.47747 -43085515.58944  23348176.0634                   23348174.7854
 -35037120.24748 -27283585.74247  20247543.5944                   20247542.6374
 -29755670.59447 -23165064.41345  23360826.1724                   23360830.1724
 -15844902.08246 -12327555.60443  23345988.2274                   23345989.7504
  -4912927.78447  -3815575.23244  22972528.7734                   22972527.8874
 -19476572.64248 -15157516.91846  21294027.7894                   21294026.8324
 -41844873.59447 -32585363.88445  22462974.7344                   22462974.1414
 -25793537.97048 -20079415.69645  21157514.5084                   21157513.3954
  -7978284.41747  -6205319.79644  23439989.1954                   23439988.3444
 11  9 27  1 18 30.0000000  0  9G02G29G25G30G18G15G05G26G21
 -55328741.53747 -43092872.24344  23346379.7114                   23346378.4104
 -35132274.59348 -27357731.94447  20229436.3984                   20229435.3524
 -29745389.99947 -23157053.57945  23362783.0234                   23362786.9574
 -15857210.29746 -12337146.46643  23343645.3524                   23343647.6054
  -5051128.30647  -3923263.79944  22946229.2114                   22946229.1684
 -19612618.08048 -15263526.25546  21268138.8754                   21268137.6994
 -41831455.46547 -32574908.18645  22465527.6884                   22465527.4694
 -25883022.37448 -20149143.72946  21140486.1414                   21140485.4534
  -8110190.77247  -6308103.86844  23414887.5784                   23414887.5234
 11  9 27  1 19  0.0000000  0  9G02G29G25G30G18G15G05G26G21
 -55338046.32846 -43100122.71844  23344608.6484                   23344607.0554
 -35226934.76748 -27431493.05947  20211423.4224                   20211422.1054
 -29735008.66747 -23148964.27044  23364758.2814                   23364762.1374
 -15869223.24047 -12346507.21544  23341360.0084                   23341361.3324
  -5189083.45447  -4030761.19244  22919977.4924                   22919977.1884
 -19748235.85848 -15369202.34746  21242331.6884                   21242330.8284
 -41817944.44147 -32564380.08345  22468099.3204                   22468098.5744
 -25971846.15948 -20218356.99645  21123583.6644                   21123582.3484
  -8242139.79347  -6410921.24044  23389778.7504                   23389778.1684
 11  9 27  1 19 30.0000000  0  9G02G29G25G30G18G15G05G26G21
 -55347218.41446 -43107269.79144  23342863.2504                   23342862.0004
 -35321103.62548 -27504871.34747  20193503.5634                   20193502.1914
 -29724533.65747 -23140801.95545  23366751.6254                   23366755.3444
 -15880947.69946 -12355643.14543  23339128.9384                   23339130.3014
  -5326797.06447  -4138070.33944  22893770.6094                   22893771.1134
 -19883427.16648 -15474546.11146  21216605.4924                   21216604.1134
 -41804346.50647 -32553784.28045  22470686.7734                   22470686.2234
 -26060012.22048 -20287057.75045  21106806.1484                   21106805.0634
  -8374135.66647  -6513775.11044  23364661.2974                   23364660.1954
 11  9 27  1 20  0.0000000  0  9G02G29G25G30G18G15G05G26G21
 -55356260.80446 -43114315.76144  23341143.0234                   23341140.7774
 -35414782.81648 -27577868.06547  20175677.0634                   20175675.5664
 -29713971.38547 -23132571.63344  23368761.5864                   23368765.7774
 -15892390.17146 -12364559.38544  23336952.2424                   23336953.3634
  -5464272.14347  -4245193.65244  22867610.3204                   22867610.4344
 -20018192.88448 -15579558.26146  21190960.6564                   21190960.4614
 -41790666.72347 -32543124.68945  22473289.7734                   22473289.4064
 -26147522.57848 -20355247.59146  21090152.5864                   21090152.1024
  -8506180.95547  -6616667.50244  23339533.2734                   23339532.9184
 11  9 27  1 20 30.0000000  0  9G02G29G25G30G18G15G05G26G21
 -53789754.21647 -41893661.28144  23639238.9694                   23639237.6764
 -33932549.12548 -26422880.73347  20457736.7974                   20457735.5554
 -28127906.70747 -21896677.12644  23670579.0864                   23670583.2464
 -14328134.61146 -11145658.94044  23634619.9064                   23634620.5944
  -4026085.07247  -3124528.27644  23141288.4224                   23141287.7304
 -18577107.32947 -14456634.36146  21465190.0164                   21465189.0634
 -40201488.95547 -31304804.34445  22775700.7194                   22775699.9264
 -24658954.30148 -19195324.18546  21373418.1174                   21373417.2854
  -7062852.65747  -5491996.04144  23614190.6174                   23614189.2344
 11  9 27  1 21  0.0000000  0  9G02G29G25G30G18G15G05G26G21
 -53798538.05447 -41900505.81544  23637567.6334                   23637566.1524
 -34025245.87748 -26495111.91847  20440096.8674                   20440095.4064
 -28117180.97247 -21888319.42444  23672620.6644                   23672624.4884
 -14339023.93347 -11154144.13344  23632547.9384                   23632549.7274
  -4163083.55647  -3231280.22744  23115218.4694                   23115218.1604
 -18711015.80048 -14560978.52546  21439708.0864                   21439707.4614
 -40187653.11247 -31294023.13945  22778333.1724                   22778332.6844
 -24745150.89248 -19262490.29546  21357015.0554                   21357014.3524
  -7194998.29847  -5594966.61944  23589043.0394                   23589042.7344
 11  9 27  1 21 30.0000000  0  9G02G29G25G30G18G15G05G26G21
 -53807197.58247 -41907253.48544  23635919.7114                   23635918.0664
 -34117454.89348 -26566963.05347  20422550.0084                   20422548.9844
 -28106383.47947 -21879905.82444  23674674.8524                   23674679.1524
 -14349646.56547 -11162421.54544  23630526.5554                   23630527.6954
  -4299848.64747  -3337850.30144  23089192.9534                   23089191.8404
 -18844497.35748 -14664990.04046  21414307.1724                   21414306.1684
 -40173747.40847 -31283187.52945  22780978.8594                   22780978.5744
 -24830694.06048 -19329147.25345  21340736.8204                   21340736.0744
  -7327199.40847  -5697980.42844  23563886.1094                   23563885.9534
 11  9 27  1 22  0.0000000  0  9G02G29G25G30G18G15G05G26G21
 -53815731.53447 -41913903.26244  23634295.2894                   23634294.2274
 -34209173.81948 -26638432.31447  20405096.7584                   20405095.1884
 -28095516.49546 -21871438.04944  23676742.6254                   23676747.3914
 -14360004.78847 -11170492.90044  23628554.6174                   23628556.1994
  -4436379.19347  -3444237.63344  23063211.0944                   23063211.4734
 -18977548.76448 -14768666.36246  21388988.2664                   21388987.2154
 -40159772.91247 -31272298.29445  22783638.6334                   22783638.0784
 -24915581.92148 -19395293.57345  21324583.3054                   21324582.4104
  -7459454.93847  -5801036.65244  23538719.0004                   23538717.9224
 11  9 27  1 22 30.0000000  0  9G02G29G25G30G18G15G05G26G21
 -53824138.03947 -41920453.79444  23632695.8054                   23632693.8954
 -34300399.42548 -26709517.16247  20387736.8364                   20387735.3954
 -28084581.40847 -21862917.24544  23678823.4304                   23678827.2384
 -14370099.96347 -11178359.30444  23626633.7974                   23626635.7894
  -4572673.10047  -3550440.58144  23037276.1884                   23037275.8634
 -19110165.80948 -14872004.23646  21363752.1954                   21363751.1334
 -40145730.06447 -31261355.80745  22786310.7894                   22786310.2664
 -24999811.69048 -19460927.09645  21308554.8054                   21308554.0434
  -7591762.89547  -5904133.67444  23513541.9774                   23513540.3554
 11  9 27  1 23  0.0000000  0  9G02G29G25G30G18G15G05G26G21
 -53832418.73847 -41926906.26944  23631120.5474                   23631118.0904
 -34391132.41148 -26780218.14647  20370470.6414                   20370469.6884
 -28073583.61147 -21854347.50343  23680916.5004                   23680920.6564
 -14379937.44946 -11186024.87344  23624762.4454                   23624763.8244
  -4708732.49747  -3656460.76344  23011384.6334                   23011384.1374
 -19242348.18747 -14975003.40946  21338598.5164                   21338597.3284
 -40131623.04347 -31250363.31045  22788995.7114                   22788994.9534
 -25083384.56248 -19526048.74946  21292651.3204                   21292650.3054
  -7724125.38247  -6007273.23044  23488353.2034                   23488351.7734
 11  9 27  1 23 30.0000000  0  9G02G29G25G30G18G15G05G26G21
 -53840573.47546 -41933260.59244  23629568.5164                   23629566.7544
 -34481371.43648 -26850534.23047  20353299.0394                   20353297.7304
 -28062525.98047 -21845731.21844  23683021.2114                   23683025.2814
 -14389520.21546 -11193491.97144  23622938.7894                   23622940.4534
  -4844557.03047  -3762297.95344  22985537.9924                   22985537.8054
 -19374093.11448 -15077661.69246  21313528.1254                   21313526.9884
 -40117453.59347 -31239322.15845  22791691.4454                   22791690.7974
 -25166299.08648 -19590657.39945  21276873.5004                   21276872.0514
  -7856542.27147  -6110455.16544  23463155.8914                   23463153.9804
 11  9 27  1 24  0.0000000  0  9G02G29G25G30G18G15G05G26G21
 -53848600.54346 -41939515.42544  23628040.2584                   23628039.4064
 -34571113.52048 -26920463.08647  20336221.6254                   20336220.3404
 -28051410.12447 -21837069.51344  23685136.0394                   23685139.5944
 -14398849.79646 -11200761.79444  23621162.8284                   23621165.5084
  -4980145.00847  -3867950.80844  22959736.7114                   22959736.3134
 -19505396.70848 -15179976.09446  21288542.1644                   21288540.5864
 -40103222.17247 -31228232.73045  22794399.6094                   22794399.3444
 -25248552.98848 -19654751.27946  21261220.5864                   21261220.1414
  -7989011.50547  -6213677.83344  23437947.4844                   23437946.1174
 11  9 27  1 24 30.0000000  0  9G02G29G25G30G18G15G05G26G21
 -53856502.23146 -41945672.59044  23626537.3594                   23626535.7974
 -34660360.47548 -26990006.12947  20319238.7194                   20319237.3014
 -28040242.14747 -21828367.20044  23687261.6254                   23687265.2304
 -14407932.35446 -11207839.15344  23619435.1564                   23619436.6374
  -5115498.78247  -3973421.17344  22933979.8364                   22933979.1954
 -19636259.74147 -15281947.20046  21263639.3914                   21263638.1374
 -40088933.75047 -31217098.86645  22797119.0554                   22797118.2544
 -25330148.07648 -19718331.81745  21245693.7734                   21245692.7624
  -8121535.98647  -6316943.58644  23412728.4924                   23412727.3054
 11  9 27  1 25  0.0000000  0  9G02G29G25G30G18G15G05G26G21
 -53864274.40947 -41951728.82744  23625058.5394                   23625056.3444
 -34749106.89848 -27059159.14447  20302350.6334                   20302349.4064
 -28029021.01247 -21819623.51044  23689397.0474                   23689401.1454
 -14416766.90446 -11214723.23144  23617753.3594                   23617754.4104
  -5250614.30447  -4078705.90544  22908267.7584                   22908267.5594
 -19766675.81848 -15383570.03946  21238822.1174                   21238820.9924
 -40074585.47847 -31205918.34945  22799849.9534                   22799848.7974
 -25411079.29148 -19781395.05246  21230293.0864                   21230291.9304
  -8254111.90047  -6420249.36044  23387500.2504                   23387499.3204
 11  9 27  1 25 30.0000000  0  9G02G29G25G30G18G15G05G26G21
 -53871915.72147 -41957683.07544  23623604.1954                   23623602.6564
 -34837350.58948 -27127920.42747  20285558.3754                   20285556.7704
 -28017748.95547 -21810840.13344  23691541.7894                   23691545.9774
 -14425355.60846 -11221415.75844  23616119.3674                   23616120.9264
  -5385490.32047  -4183804.01244  22882601.0314                   22882600.5984
 -19896641.56748 -15484841.96146  21214090.0944                   21214088.6724
 -40060179.02447 -31194692.50645  22802590.9844                   22802589.9184
 -25491345.16848 -19843939.83945  21215018.9844                   21215017.7034
  -8386737.94847  -6523594.24644  23362262.1884                   23362260.8134
 11  9 27  1 26  0.0000000  0  9G02G29G25G30G18G15G05G26G21
 -53879428.91346 -41963537.50044  23622174.1884                   23622172.8874
 -34925092.78448 -27196290.92247  20268861.7344                   20268860.5164
 -28006431.80747 -21802021.61144  23693695.8364                   23693699.8364
 -14433704.57646 -11227921.49044  23614530.3834                   23614532.6954
  -5520129.67447  -4288717.69444  22856980.7894                   22856979.5664
 -20026157.41547 -15585763.33046  21189444.5864                   21189442.9344
 -40045718.95847 -31183424.88645  22805342.3834                   22805341.8404
 -25570947.23948 -19905967.36545  21199871.1564                   21199870.2934
  -8519416.55747  -6626980.07344  23337013.8364                   23337013.3014
 11  9 27  1 26 30.0000000  0  9G02G29G25G30G18G15G05G26G21
 -53886809.79947 -41969288.85644  23620769.3364                   23620768.2384
 -35012328.59148 -27264266.82947  20252261.1174                   20252260.0204
 -27995068.87047 -21793167.39444  23695858.7424                   23695862.3554
 -14441812.85146 -11234239.64144  23612987.8674                   23612990.1024
  -5654528.19147  -4393443.71144  22831404.7584                   22831404.4654
 -20155217.17347 -15686329.29846  21164885.0314                   21164883.7464
 -40031203.12747 -31172113.81245  22808104.7034                   22808103.4344
 -25649880.94448 -19967474.10046  21184850.0084                   21184849.3714
  -8652143.71547  -6730403.68744  23311756.7194                   23311756.6334
 11  9 27  1 27  0.0000000  0  9G02G29G25G30G18G15G05G26G21
 -53894057.63146 -41974936.51944  23619390.4844                   23619389.0234
 -35099056.37148 -27331846.87047  20235757.0784                   20235755.7894
 -27983662.74047 -21784279.53744  23698028.8984                   23698033.1954
 -14449683.32746 -11240372.51743  23611490.4064                   23611491.7114
  -5788685.18947  -4497981.52844  22805875.7584                   22805874.6764
 -20283818.08447 -15786537.72346  21140412.6884                   21140411.6994
 -40016633.06047 -31160760.47345  22810877.3364                   22810876.3834
 -25728144.98648 -20028459.01346  21169957.5234                   21169956.1844
  -8784918.81146  -6833864.69044  23286490.3594                   23286489.5704
 11  9 27  1 27 30.0000000  0  9G02G29G25G30G18G15G05G26G21
 -53901175.18746 -41980482.64044  23618036.2424                   23618034.9104
 -35185277.71948 -27399032.29847  20219349.9844                   20219348.5594
 -27972219.24347 -21775362.56944  23700206.8914                   23700210.4534
 -14457321.79346 -11246324.62644  23610036.2504                   23610037.8594
  -5922603.28647  -4602333.18544  22780391.9694                   22780391.6214
 -20411960.90848 -15886389.20846  21116028.2894                   21116026.9774
 -40002013.36247 -31149368.47845  22813658.7734                   22813658.3244
 -25805741.49547 -20088923.76246  21155191.0944                   21155189.7624
  -8917744.44447  -6937365.06044  23261214.8134                   23261214.3284
 11  9 27  1 28  0.0000000  0  9G02G29G25G30G18G15G05G26G21
 -53908160.68147 -41985925.86744  23616706.5944                   23616705.3284
 -35270990.34248 -27465821.29947  20203039.1174                   20203037.9494
 -27960740.20847 -21766417.90344  23702391.1644                   23702394.7544
 -14464730.19546 -11252097.41543  23608626.6484                   23608629.0234
  -6056281.13947  -4706497.62344  22754953.8984                   22754952.7074
 -20539641.82748 -15985880.75646  21091731.2114                   21091730.0204
 -39987344.66647 -31137938.28845  22816450.6954                   22816449.3914
 -25882668.34048 -20148866.71245  21140552.2504                   21140551.1094
  -9050618.96847  -7040903.52744  23235929.0474                   23235928.5824
 11  9 27  1 28 30.0000000  0  9G02G29G25G30G18G15G05G26G21
 -53915012.53647 -41991264.96344  23615403.0394                   23615401.1334
 -35356191.28048 -27532211.60547  20186826.0634                   20186824.6604
 -27949227.33247 -21757446.83544  23704581.7194                   23704585.8364
 -14471910.39946 -11257692.45543  23607259.9064                   23607261.5434
  -6189717.18547  -4810473.65044  22729561.6174                   22729560.8244
 -20666857.27748 -16085009.61646  21067522.6024                   21067521.4614
 -39972627.20247 -31126470.11045  22819251.1334                   22819250.8324
 -25958923.50248 -20208286.27345  21126041.2584                   21126040.4804
  -9183540.84647  -7144478.92944  23210635.4694                   23210633.9454
 11  9 27  1 29  0.0000000  0  9G02G29G25G30G18G15G05G26G21
 -53921732.98847 -41996501.69544  23614124.0634                   23614122.8014
 -35440881.92648 -27598204.27747  20170709.7274                   20170708.4224
 -27937685.89547 -21748453.57444  23706777.7814                   23706781.7384
 -14478867.74246 -11263113.75944  23605936.6174                   23605938.3954
  -6322913.60047  -4914262.95744  22704214.7424                   22704214.4694
 -20793607.38248 -16183775.84846  21043403.0634                   21043401.9804
 -39957865.45447 -31114967.42245  22822060.3984                   22822059.5434
 -26034508.58148 -20267183.67545  21111657.5474                   21111656.5744
  -9316512.20747  -7248092.87544  23185331.5554                   23185329.7894
 11  9 27  1 29 30.0000000  0  9G02G29G25G30G18G15G05G26G21
 -53928319.90446 -42001634.35644  23612870.4384                   23612869.2894
 -35525059.62348 -27663797.23847  20154691.4614                   20154690.1484
 -27926117.39847 -21739439.18944  23708978.3284                   23708983.2074
 -14485603.78046 -11268362.66943  23604654.6564                   23604655.4654
  -6455868.69347  -5017864.19744  22678914.2504                   22678913.8444
 -20919888.25448 -16282176.45346  21019372.3444                   21019371.2544
 -39943059.54247 -31103430.33045  22824877.3204                   22824876.7934
 -26109421.12248 -20325557.02446  21097402.3914                   21097401.5744
  -9449531.00247  -7351743.82244  23160018.5084                   23160017.0744
 11  9 27  1 30  0.0000000  0  9G02G29G25G30G18G15G05G26G21
 -53934770.26946 -42006660.58144  23611643.7974                   23611641.3554
 -35608719.94848 -27728987.06647  20138771.0634                   20138769.6954
 -27914521.67447 -21730403.61444  23711185.7114                   23711190.6954
 -14492118.49746 -11273439.13043  23603415.3364                   23603415.9064
  -6588578.94247  -5121274.66344  22653660.9454                   22653659.0824
 -21045694.50948 -16380207.22746  20995431.6484                   20995430.8364
 -39928207.96047 -31091857.62145  22827703.7424                   22827702.8324
 -26183657.75547 -20383403.70346  21083275.7274                   21083274.8444
  -9582594.41247  -7455429.49844  23134697.7664                   23134696.4734
 11  9 27  1 30 30.0000000  0  9G02G29G25G30G18G15G05G26G21
 -53941085.87046 -42011581.79544  23610441.4224                   23610439.1884
 -35691864.44848 -27793774.94347  20122949.2584                   20122947.8984
 -27902904.37647 -21721351.24644  23713395.9454                   23713400.3054
 -14498417.69746 -11278347.61543  23602215.5084                   23602218.1094
  -6721047.03547  -5224496.40444  22628452.5864                   22628451.2734
 -21171026.29748 -16477868.29746  20971582.3444                   20971581.3714
 -39913315.09547 -31080252.74245  22830537.8524                   22830537.0044
 -26257220.12947 -20440724.98046  21069277.1724                   21069276.4734
  -9715704.09047  -7559151.24845  23109368.1094                   23109366.1724
 11  9 27  1 31  0.0000000  0  9G02G29G25G30G18G15G05G26G21
 -53947268.20846 -42016399.22544  23609264.2814                   23609263.1214
 -35774493.43748 -27858161.12647  20107225.5554                   20107224.3794
 -27891269.87746 -21712285.43843  23715609.3674                   23715614.3674
 -14504505.76947 -11283091.55443  23601058.5084                   23601058.8674
  -6853274.04047  -5327530.30944  22603290.4614                   22603289.3404
 -21295883.15448 -16575159.28646  20947822.9224                   20947821.3524
 -39898384.16747 -31068618.20145  22833379.3834                   22833378.1294
 -26330109.25847 -20497521.64746  21055406.9694                   21055406.2544
  -9848861.10747  -7662909.86344  23084028.7504                   23084027.4344
 11  9 27  1 31 30.0000000  0  9G02G29G25G30G18G15G05G26G21
 -52377893.59746 -40793509.88044  23907906.8284                   23907905.4184
 -34281179.66748 -26694539.95947  20391393.8364                   20391392.3834
 -26304198.38747 -20475606.40243  24017619.8914                   24017624.7424
 -12934962.65146 -10060070.95243  23899732.0004                   23899734.1954
  -5409832.22147  -4202770.30644  22877967.7344                   22877966.8364
 -19844835.68848 -15444472.88546  21223948.1954                   21223946.7424
 -38307994.09847 -29829353.19345  23136019.8284                   23136019.4064
 -24826899.17447 -19326189.06646  21341458.3754                   21341457.4384
  -8406637.63747  -6539099.30344  23358474.4454                   23358473.4064
 11  9 27  1 32  0.0000000  0  9G02G29G25G30G18G15G05G26G21
 -52383801.81347 -40798113.69643  23906782.8054                   23906781.3484
 -34362767.71748 -26758115.03247  20375868.0864                   20375866.7304
 -26292532.04447 -20466515.79043  24019840.3364                   24019843.2774
 -12940631.67247 -10064488.41143  23898652.7664                   23898654.0124
  -5541570.35547  -4305423.25744  22852898.9534                   22852898.4494
 -19968729.47748 -15541013.43246  21200371.9924                   21200370.0514
 -38292985.73947 -29817658.33745  23138875.3054                   23138875.2114
 -24898433.67747 -19381930.18146  21327845.6024                   21327844.4184
  -8539882.11447  -6642926.11444  23333119.2194                   23333117.8054
 11  9 27  1 32 30.0000000  0  9G02G29G25G30G18G15G05G26G21
 -52389574.80647 -40802612.12044  23905683.6804                   23905682.7894
 -34443836.00548 -26821285.07847  20360441.0164                   20360439.8714
 -26280856.48347 -20457417.91544  24022062.4144                   24022066.0634
 -12946097.98946 -10068747.95543  23897612.7344                   23897614.4774
  -5673066.05747  -4407887.30444  22827876.4534                   22827875.9574
 -20092140.83148 -15637178.06046  21176887.5164                   21176885.5204
 -38277943.34647 -29805936.93445  23141738.5164                   23141737.3284
 -24969292.47547 -19437144.77146  21314361.5084                   21314360.4104
  -8673172.04247  -6746788.33844  23307755.1564                   23307753.1294
 11  9 27  1 33  0.0000000  0  9G02G29G25G30G18G15G05G26G21
 -52395210.28047 -40807003.41244  23904611.4304                   23904610.4064
 -34524381.13948 -26884047.47947  20345113.9064                   20345112.0904
 -26269172.29547 -20448313.39444  24024285.6484                   24024289.2934
 -12951362.63747 -10072850.28143  23896611.4844                   23896612.3674
  -5804317.09247  -4510160.69244  22802899.2664                   22802898.5354
 -20215065.31148 -15732963.30246  21153495.5944                   21153493.9064
 -38262866.31947 -29794188.58545  23144607.2584                   23144606.5594
 -25039472.73748 -19491830.63546  21301006.8364                   21301005.7464
  -8806504.96247  -6850684.06444  23282382.6724                   23282380.7154
 11  9 27  1 33 30.0000000  0  9G02G29G25G30G18G15G05G26G21
 -52400707.77347 -40811287.14243  23903565.9694                   23903564.4964
 -34604401.97548 -26946401.34847  20329886.3754                   20329885.0204
 -26257482.55147 -20439204.52344  24026509.8674                   24026514.1604
 -12956428.48047 -10076797.70944  23895648.0234                   23895648.9224
  -5935323.25047  -4612243.28845  22777970.4694                   22777969.6334
 -20337500.29548 -15828367.11246  21130196.6564                   21130195.4454
 -38247756.57147 -29782414.71845  23147482.8284                   23147482.1134
 -25108973.97548 -19545987.38946  21287781.4774                   21287779.9184
  -8939880.57947  -6954613.03344  23257001.4614                   23257000.5704
 11  9 27  1 34  0.0000000  0  9G02G29G25G30G18G15G05G26G21
 -52406068.43446 -40815464.32643  23902545.1334                   23902543.9654
 -34683899.46848 -27008347.40647  20314758.5634                   20314757.1724
 -26245791.72847 -20430094.80044  24028734.8054                   24028737.9964
 -12961300.36647 -10080594.04644  23894720.0704                   23894722.2624
  -6066086.09247  -4714136.25445  22753086.4224                   22753085.7424
 -20459445.96448 -15923389.66146  21106991.5784                   21106990.0004
 -38232617.22047 -29770617.79344  23150363.7894                   23150362.8014
 -25177797.36548 -19599615.95346  21274684.5944                   21274683.2814
  -9073299.55347  -7058575.78844  23231613.0634                   23231612.0744
 11  9 27  1 34 30.0000000  0  9G02G29G25G30G18G15G05G26G21
 -52411292.14846 -40819534.71843  23901551.5554                   23901549.4924
 -34762872.35148 -27069884.67547  20299730.5394                   20299728.9494
 -26234102.68447 -20420986.52944  24030959.1644                   24030963.8164
 -12965981.30947 -10084241.52644  23893829.2344                   23893831.6024
  -6196605.14747  -4815839.29845  22728249.6804                   22728248.4104
 -20580899.83448 -16018028.97046  21083879.5784                   21083877.9804
 -38217449.96547 -29758799.12045  23153249.6884                   23153248.8404
 -25245942.64948 -19652716.11946  21261716.7734                   21261715.8244
  -9206761.64747  -7162572.17544  23206215.8204                   23206214.4024
 11  9 27  1 35  0.0000000  0  9G02G29G25G30G18G15G05G26G21
 -52416377.02547 -40823496.97644  23900583.9144                   23900581.4734
 -34841317.61048 -27131010.81947  20284802.9224                   20284801.0594
 -26222416.64647 -20411880.57744  24033183.4614                   24033187.7624
 -12970472.75647 -10087741.44144  23892974.2114                   23892976.3834
  -6326878.90247  -4917351.19444  22703459.5634                   22703458.7194
 -20701858.00948 -16112282.02246  21060862.0394                   21060860.0204
 -38202254.54547 -29746958.49545  23156141.3444                   23156140.5204
 -25313407.58748 -19705286.13946  21248878.0554                   21248877.1564
  -9340264.58947  -7266600.35844  23180811.3204                   23180809.2154
 11  9 27  1 35 30.0000000  0  9G02G29G25G30G18G15G05G26G21
 -52421323.45446 -40827351.28743  23899642.2664                   23899640.3244
 -34919235.41548 -27191725.95947  20269975.7424                   20269973.4494
 -26210737.32046 -20402779.82344  24035405.7274                   24035409.3634
 -12974778.62646 -10091096.64844  23892155.0704                   23892156.5514
  -6456908.22647  -5018672.60144  22678716.1884                   22678714.5634
 -20822319.30448 -16206147.90546  21037938.8524                   21037937.2704
 -38187033.95747 -29735098.26545  23159037.9844                   23159037.0354
 -25380192.91448 -19757326.61046  21236169.6334                   21236168.4884
  -9473808.98747  -7370660.78045  23155398.4454                   23155397.0904
 11  9 27  1 36  0.0000000  0  9G02G29G25G30G18G15G05G26G21
 -52426131.40146 -40831097.72644  23898726.9614                   23898725.5704
 -34996625.12848 -27252029.60247  20255248.8444                   20255246.9734
 -26199067.77846 -20393686.74144  24037625.8524                   24037630.8714
 -12978902.20346 -10094309.88843  23891370.3054                   23891371.2734
  -6586692.98247  -5119803.47944  22654018.2974                   22654017.0164
 -20942281.90148 -16299625.19046  21015110.6884                   21015108.6294
 -38171789.19647 -29723219.19945  23161938.7664                   23161937.6134
 -25446298.33848 -19808837.27546  21223590.1884                   21223589.1054
  -9607394.55047  -7474753.36345  23129977.4454                   23129976.4804
 11  9 27  1 36 30.0000000  0  9G02G29G25G30G18G15G05G26G21
 -52430800.53446 -40834736.02944  23897838.6644                   23897837.4614
 -35073485.73748 -27311920.94147  20240622.5394                   20240620.6254
 -26187410.57146 -20384603.29844  24039843.9694                   24039849.1374
 -12982846.24646 -10097383.16943  23890620.1644                   23890622.0744
  -6716232.86847  -5220743.53744  22629367.7814                   22629365.9414
 -21061743.74848 -16392712.27346  20992377.5314                   20992375.9024
 -38156521.63547 -29711322.36845  23164844.1334                   23164843.5204
 -25511723.38648 -19859817.78546  21211140.5004                   21211139.0514
  -9741020.29147  -7578877.21544  23104549.3754                   23104547.8284
 11  9 27  1 37  0.0000000  0  9G02G29G25G30G18G15G05G26G21
 -52435328.41246 -40838264.30744  23896977.1954                   23896976.6804
 -35149814.15048 -27371397.60347  20226097.8914                   20226095.4774
 -26175766.76346 -20375530.25344  24042060.1334                   24042064.4574
 -12986611.94446 -10100317.52144  23889903.9064                   23889906.5474
  -6845525.84447  -5321491.21444  22604763.6414                   22604762.5514
 -21180700.64748 -16485405.90146  20969740.8054                   20969739.2664
 -38141231.22947 -29699407.74145  23167753.6564                   23167753.2114
 -25576466.03648 -19910266.56946  21198820.3674                   21198818.5354
  -9874684.14647  -7683030.74844  23079113.8364                   23079112.4064
 11  9 27  1 37 30.0000000  0  9G02G29G25G30G18G15G05G26G21
 -52439718.98646 -40841685.47444  23896141.7664                   23896141.1214
 -35225613.32448 -27430461.85947  20211673.3674                   20211671.7974
 -26164143.29946 -20366473.05243  24044270.9774                   24044276.3984
 -12990206.56546 -10103118.49843  23889219.0004                   23889220.4614
  -6974575.98547  -5422049.64044  22580205.8594                   22580204.4304
 -21299154.61148 -16577707.63346  20947199.4924                   20947198.3754
 -38125923.69846 -29687479.76945  23170666.4774                   23170665.6844
 -25640530.25348 -19960186.67845  21186629.0784                   21186627.3714
 -10008389.62647  -7787216.72144  23053670.5864                   23053669.5944
 11  9 27  1 38  0.0000000  0  9G02G29G25G30G18G15G05G26G21
 -52443973.04246 -40845000.37044  23895332.5234                   23895330.7114
 -35300883.66748 -27489114.04247  20197350.4454                   20197348.2854
 -26152544.06346 -20357434.77943  24046478.8204                   24046483.7704
 -12993634.19646 -10105789.45943  23888567.4304                   23888569.3094
  -7103384.30147  -5522419.66145  22555694.8134                   22555693.6174
 -21417104.63848 -16669616.68246  20924754.7424                   20924753.0434
 -38110601.70546 -29675540.53145  23173582.4774                   23173581.4144
 -25703916.89848 -20009578.80846  21174566.9064                   21174565.5084
 -10142137.25747  -7891435.54945  23028219.1804                   23028217.1844
 11  9 27  1 38 30.0000000  0  9G02G29G25G30G18G15G05G26G21
 -52448086.25346 -40848205.46043  23894550.2814                   23894547.9414
 -35375620.50048 -27547350.50547  20183128.1334                   20183126.8984
 -26140968.05946 -20348414.62044  24048682.6174                   24048687.0044
 -12996894.17646 -10108329.76043  23887947.3054                   23887948.9264
  -7231946.88047  -5622598.20744  22531230.4384                   22531229.4224
 -21534545.07748 -16761128.65446  20902406.2974                   20902405.0084
 -38095262.83546 -29663588.14645  23176501.3204                   23176500.1844
 -25766621.87048 -20058439.77745  21162634.7194                   21162632.9184
 -10275922.44947  -7995683.63644  23002760.3134                   23002758.8364
 11  9 27  1 39  0.0000000  0  9G02G29G25G30G18G15G05G26G21
 -52452060.68946 -40851302.45844  23893793.4384                   23893791.4224
 -35449825.41748 -27605172.48447  20169007.0784                   20169005.4384
 -26129420.45847 -20339416.55644  24050880.5004                   24050884.4024
 -12999991.78646 -10110743.47844  23887358.2814                   23887359.9454
  -7360265.74547  -5722586.83844  22506811.8834                   22506810.1024
 -21651476.42648 -16852243.92846  20880154.8914                   20880153.5204
 -38079910.86246 -29651625.57645  23179422.4224                   23179421.6764
 -25828647.55548 -20106771.42446  21150831.3594                   21150830.0594
 -10409746.91347  -8099962.30844  22977294.6414                   22977292.5984
 11  9 27  1 39 30.0000000  0  9G02G29G25G30G18G15G05G26G21
 -52455895.22846 -40854290.42144  23893063.5394                   23893062.5434
 -35523496.46848 -27662578.46747  20154988.3054                   20154986.4184
 -26117903.13347 -20330442.06744  24053071.9064                   24053076.1214
 -13002929.30446 -10113032.44443  23886798.3054                   23886799.8794
  -7488339.85547  -5822384.75644  22482440.2894                   22482438.6954
 -21767895.56548 -16942960.08046  20858001.3754                   20857999.2624
 -38064546.45746 -29639653.28345  23182346.0004                   23182345.7464
 -25889992.76548 -20154572.82146  21139157.6174                   21139155.8204
 -10543609.62347  -8204270.81845  22951821.4924                   22951819.9264
 11  9 27  1 40  0.0000000  0  9G02G29G25G30G18G15G05G26G21
 -52459589.73547 -40857169.27943  23892360.5554                   23892359.9384
 -35596632.91248 -27719567.86947  20141071.0164                   20141069.1914
 -26106418.86147 -20321493.34244  24055257.5004                   24055261.3164
 -13005709.69347 -10115199.10343  23886270.0314                   23886271.3834
  -7616169.69347  -5921992.35345  22458114.7034                   22458113.1334
 -21883800.70148 -17033275.70446  20835945.0864                   20835943.0164
 -38049171.12847 -29627672.49845  23185272.3594                   23185271.3484
 -25950657.67448 -20201844.12046  21127613.3834                   21127611.7734
 -10677509.94647  -8308608.60445  22926341.1254                   22926339.3674
 11  9 27  1 40 30.0000000  0  9G02G29G25G30G18G15G05G26G21
 -52463142.78447 -40859937.87044  23891684.6254                   23891682.9024
 -35669233.03048 -27776139.35047  20127255.2504                   20127253.6604
 -26094969.39647 -20312571.69844  24057436.2194                   24057438.9454
 -13008334.91346 -10117244.70743  23885770.0474                   23885771.5864
  -7743754.01647  -6021408.65045  22433836.2194                   22433834.9384
 -21999188.99648 -17123188.60546  20813987.4304                   20813985.6334
 -38033784.91647 -29615683.22045  23188200.7194                   23188199.3444
 -26010641.17548 -20248584.45645  21116199.0234                   21116197.2304
 -10811446.28647  -8412974.47844  22900853.9224                   22900851.0044
 11  9 27  1 41  0.0000000  0  9G02G29G25G30G18G15G05G26G21
 -52466553.52847 -40862595.61543  23891035.7894                   23891033.2624
 -35741295.23448 -27832291.68547  20113542.4224                   20113540.7814
 -26083556.87447 -20303678.89443  24059607.5944                   24059611.7974
 -13010807.59547 -10119171.57043  23885299.2114                   23885301.3794
  -7871091.93547  -6120632.92545  22409604.5004                   22409602.9844
 -22114057.79848 -17212696.70146  20792128.4454                   20792126.9454
 -38018389.02047 -29603686.39945  23191129.5314                   23191128.9614
 -26069942.66748 -20294793.36845  21104914.4694                   21104912.7934
 -10945416.98147  -8517367.10945  22875359.4534                   22875357.3714
 11  9 27  1 41 30.0000000  0  9G02G29G25G30G18G15G05G26G21
 -52469823.39647 -40865143.58743  23890412.8674                   23890411.7664
 -35812820.37548 -27888025.52947  20099931.3914                   20099930.2074
 -26072185.83947 -20294818.38044  24061771.6884                   24061775.7194
 -13013132.38747 -10120983.12043  23884857.4694                   23884858.2504
  -7998185.11247  -6219666.51745  22385419.2274                   22385418.2034
 -22228406.63448 -17301799.62946  20770368.5234                   20770366.8714
 -38002986.52647 -29591684.47045  23194060.6254                   23194060.1254
 -26128563.91148 -20340472.22346  21093758.8674                   21093757.6724
 -11079423.26447  -8621787.48745  22849859.4064                   22849856.7464
 11  9 27  1 42  0.0000000  0  9G02G29G25G30G18G15G05G26G21
 -52472953.45346 -40867582.56943  23889817.7114                   23889815.5664
 -35883809.22048 -27943341.47247  20086422.8444                   20086421.6564
 -26060860.32047 -20285993.40944  24063927.1414                   24063930.8914
 -13015313.61746 -10122682.87043  23884442.3284                   23884443.9414
  -8125035.06147  -6318510.58145  22361280.5944                   22361279.5274
 -22342235.37348 -17390497.28446  20748707.2114                   20748705.6764
 -37987580.15847 -29579679.47344  23196992.7664                   23196991.6294
 -26186506.20048 -20385622.00845  21082732.5864                   21082731.6414
 -11213465.80747  -8726236.10945  22824351.9924                   22824350.3754
 11  9 27  1 42 30.0000000  0  9G02G29G25G30G18G15G05G26G21
 -50900520.72546 -39642310.25843  24189041.7194                   24189039.7854
 -34378836.31548 -26770635.28147  20372809.6804                   20372807.8874
 -24474160.83447 -19049604.21443  24365865.8674                   24365869.2274
 -11441931.74646  -8896670.98743  24183847.0864                   24183847.6954
  -6676214.67547  -5189559.54545  22636982.1484                   22636980.5864
 -20880115.62348 -16251183.14146  21026939.3204                   21026937.5594
 -36396749.07547 -28340070.80644  23499717.7664                   23499716.5204
 -24668345.19548 -19202639.36146  21371629.0394                   21371628.1024
  -9772117.09947  -7603107.14645  23098630.1804                   23098628.6684
 11  9 27  1 43  0.0000000  0  9G02G29G25G30G18G15G05G26G21
 -50903368.02646 -39644528.99643  24188499.6484                   24188498.3794
 -34448748.40748 -26825112.20247  20359505.7344                   20359504.6994
 -24462932.29647 -19040854.70543  24368002.8204                   24368005.9304
 -11443832.79747  -8898152.35343  24183485.6564                   24183486.5904
  -6802575.38447  -5288022.38645  22612936.4614                   22612934.9024
 -20992896.29948 -16339064.12446  21005478.7894                   21005476.9304
 -36381336.96847 -28328061.31744  23502649.9534                   23502648.6724
 -24724927.78948 -19246729.65646  21360861.6414                   21360860.7464
  -9906228.74947  -7707609.61345  23073109.9224                   23073108.6334
 11  9 27  1 43 30.0000000  0  9G02G29G25G30G18G15G05G26G21
 -50906074.59346 -39646638.08443  24187984.6954                   24187983.8054
 -34518121.75548 -26879169.32747  20346304.2664                   20346303.0314
 -24451757.42547 -19032147.06043  24370129.8364                   24370133.5124
 -11445599.42447  -8899528.99543  24183149.3364                   24183150.3634
  -6928692.61247  -5386295.45645  22588937.3284                   22588935.9804
 -21105151.08948 -16426535.33046  20984116.6954                   20984115.3714
 -36365925.16347 -28316052.10544  23505582.7894                   23505581.9304
 -24780831.90348 -19290291.24446  21350223.7424                   21350222.4104
 -10040374.89847  -7812138.97945  23047582.7814                   23047581.4414
 11  9 27  1 44  0.0000000  0  9G02G29G25G30G18G15G05G26G21
 -50908640.15246 -39648637.22143  24187496.8284                   24187494.7234
 -34586955.71848 -26932806.14947  20333205.6564                   20333203.8674
 -24440638.80246 -19023483.32043  24372244.3834                   24372249.3164
 -11447234.45546  -8900803.08443  24182837.5784                   24182839.3244
  -7054566.22247  -5484378.73645  22564983.8754                   22564982.2154
 -21216878.05348 -16513595.23646  20962855.9454                   20962853.6804
 -36350514.88447 -28304044.07344  23508515.5164                   23508514.8204
 -24836057.58548 -19333324.19546  21339714.3364                   21339712.5594
 -10174554.42347  -7916694.36645  23022049.3524                   23022048.0824
 11  9 27  1 44 30.0000000  0  9G02G29G25G30G18G15G05G26G21
 -50911067.10046 -39650528.35843  24187034.8364                   24187033.6994
 -34655252.83148 -26986024.65447  20320209.3674                   20320207.5394
 -24429582.03646 -19014867.72843  24374348.6414                   24374353.0394
 -11448743.86546  -8901979.19243  24182550.9694                   24182551.7934
  -7180199.08347  -5582274.38145  22541077.0634                   22541075.0474
 -21328078.58648 -16600244.94146  20941694.7034                   20941693.4414
 -36335110.38847 -28292040.53444  23511446.5784                   23511445.4104
 -24890608.09448 -19375831.02945  21329333.8754                   21329332.8634
 -10308769.94647  -8021277.79045  22996508.9224                   22996507.0164
 11  9 27  1 45  0.0000000  0  9G02G29G25G30G18G15G05G26G21
 -50913351.33846 -39652308.27843  24186600.6254                   24186598.3984
 -34723008.60848 -27038821.33047  20307315.4534                   20307314.3834
 -24418585.71946 -19006299.26343  24376441.3674                   24376445.8054
 -11450126.54446  -8903056.67043  24182287.5864                   24182288.3594
  -7305587.03047  -5679979.21745  22517216.3524                   22517214.4064
 -21438746.84248 -16686479.88546  20920635.0634                   20920633.3834
 -36319708.68647 -28280039.18344  23514377.6644                   23514376.1524
 -24944479.48548 -19417808.69046  21319082.5474                   21319081.2544
 -10443016.69247  -8125885.57045  22970962.1564                   22970960.7074
 11  9 27  1 45 30.0000000  0  9G02G29G25G30G18G15G05G26G21
 -50915493.85246 -39653977.75043  24186191.7584                   24186190.8204
 -34790223.38948 -27091196.45447  20294525.0944                   20294523.0124
 -24407653.84346 -18997781.00344  24378522.0634                   24378526.9024
 -11451386.79846  -8904038.70043  24182047.9064                   24182050.2854
  -7430731.50947  -5777494.32645  22493402.3134                   22493400.5124
 -21548882.39048 -16772299.73046  20899677.2424                   20899675.4654
 -36304312.50347 -28268042.10744  23517307.7504                   23517306.0314
 -24997673.44948 -19459258.48345  21308960.1334                   21308958.3594
 -10577295.11147  -8230518.01045  22945410.4844                   22945408.8204
 11  9 27  1 46  0.0000000  0  9G02G29G25G30G18G15G05G26G21
 -50917494.57046 -39655536.85943  24185812.2584                   24185809.6454
 -34856896.20648 -27143149.26847  20281837.6804                   20281835.7624
 -24396789.19446 -18989315.13743  24380588.9844                   24380594.0044
 -11452527.84046  -8904927.89743  24181829.6174                   24181832.2384
  -7555632.65147  -5874819.79945  22469633.7114                   22469632.7034
 -21658483.50448 -16857703.13946  20878820.9144                   20878819.3094
 -36288923.54446 -28256050.68844  23520235.2274                   23520234.2114
 -25050190.28348 -19500180.65446  21298966.3524                   21298965.0274
 -10711604.35947  -8335174.46645  22919852.2114                   22919850.1914
 11  9 27  1 46 30.0000000  0  9G02G29G25G30G18G15G05G26G21
 -50919354.97746 -39656986.52943  24185458.1954                   24185456.0164
 -34923028.96248 -27194681.25847  20269253.0004                   20269251.5514
 -24385996.16946 -18980905.06444  24382643.6564                   24382648.0044
 -11453554.32646  -8905727.75843  24181634.7344                   24181636.7424
  -7680292.09647  -5971956.94845  22445912.1334                   22445910.1334
 -21767550.35348 -16942690.22846  20858066.0634                   20858064.2894
 -36273544.84347 -28244067.26244  23523161.3984                   23523160.9924
 -25102032.29048 -19540576.98446  21289101.1414                   21289099.5744
 -10845945.68147  -8439855.93345  22894287.6484                   22894285.5314
 11  9 27  1 47  0.0000000  0  9G02G29G25G30G18G15G05G26G21
 -50921072.65346 -39658324.93843  24185130.6024                   24185128.9224
 -34988618.75748 -27245790.15847  20256771.6954                   20256770.0704
 -24375275.34846 -18972551.29543  24384682.6884                   24384687.5044
 -11454467.26846  -8906439.16143  24181462.1414                   24181463.1454
  -7804707.76147  -6068904.12645  22422236.2664                   22422234.6454
 -21876079.29548 -17027258.16646  20837413.6484                   20837411.7034
 -36258175.51147 -28232091.13844  23526087.5634                   23526086.3444
 -25153197.86948 -19580446.22046  21279364.7194                   21279362.9494
 -10980316.50047  -8544560.38545  22868717.3984                   22868715.7774
 11  9 27  1 47 30.0000000  0  9G02G29G25G30G18G15G05G26G21
 -50922647.77746 -39659552.36643  24184830.6954                   24184828.5474
 -35053665.88848 -27296476.20847  20244393.3524                   20244392.0044
 -24364629.98146 -18964256.24244  24386709.8444                   24386713.2774
 -11455270.10446  -8907064.85943  24181308.4694                   24181311.4774
  -7928880.37347  -6165661.93245  22398607.3444                   22398605.3404
 -21984068.92348 -17111405.86546  20816864.0474                   20816862.0084
 -36242817.30247 -28220123.66444  23529009.5634                   23529007.5514
 -25203687.64248 -19619788.85046  21269756.2194                   21269755.0274
 -11114716.40247  -8649287.49745  22843141.8524                   22843139.6484
 11  9 27  1 48  0.0000000  0  9G02G29G25G30G18G15G05G26G21
 -50924079.72346 -39660668.16743  24184558.1484                   24184556.6844
 -35118169.14348 -27346738.46447  20232118.9844                   20232117.3054
 -24354062.04547 -18956021.55344  24388720.9454                   24388724.8204
 -11455965.33746  -8907606.57643  24181177.3444                   24181178.6374
  -8052809.31347  -6262229.85445  22375024.6334                   22375022.2734
 -22091517.25348 -17195131.77946  20796417.3284                   20796415.3874
 -36227470.97147 -28208165.46844  23531929.6334                   23531928.7734
 -25253501.58548 -19658604.86345  21260277.1174                   21260275.3244
 -11249143.74447  -8754035.98944  22817561.0234                   22817558.8874
 11  9 27  1 48 30.0000000  0  9G02G29G25G30G18G15G05G26G21
 -50925369.27346 -39661672.99943  24184312.9844                   24184311.8834
 -35182128.98648 -27396577.27047  20219947.8674                   20219946.0124
 -24343574.94747 -18947849.89444  24390716.0004                   24390720.3404
 -11456556.79546  -8908067.55043  24181063.9924                   24181066.9804
  -8176495.40047  -6358608.53245  22351487.0234                   22351485.8484
 -22198423.60348 -17278435.36546  20776073.6804                   20776072.0204
 -36212138.56547 -28196218.09644  23534847.5394                   23534846.5354
 -25302641.24948 -19696895.47145  21250926.5554                   21250924.5474
 -11383598.66147  -8858805.97144  22791975.6254                   22791972.8954
 11  9 27  1 49  0.0000000  0  9G02G29G25G30G18G15G05G26G21
 -50926514.93746 -39662565.71343  24184094.8054                   24184093.0634
 -35245543.67348 -27445991.28847  20207880.6174                   20207879.0394
 -24333170.49847 -18939742.58344  24392696.5164                   24392700.0824
 -11457046.45746  -8908449.10543  24180970.0164                   24180973.3094
  -8299937.90947  -6454797.39745  22327996.4304                   22327994.9844
 -22304785.26348 -17361314.51946  20755833.6094                   20755831.6724
 -36196820.35447 -28184281.79344  23537762.5084                   23537761.5744
 -25351106.06248 -19734660.22246  21241703.9224                   21241702.7704
 -11518079.44847  -8963596.11045  22766384.7974                   22766382.1524
 11  9 27  1 49 30.0000000  0  9G02G29G25G30G18G15G05G26G21
 -50927518.35546 -39663347.57243  24183904.4304                   24183903.1524
 -35308414.89748 -27494981.82547  20195916.2664                   20195914.4264
 -24322853.05047 -18931703.11244  24394659.5234                   24394664.0204
 -11457439.35046  -8908755.32843  24180895.7734                   24180898.5164
  -8423138.70847  -6550797.92045  22304552.2734                   22304550.2934
 -22410602.65647 -17443769.56846  20735697.1644                   20735694.8834
 -36181519.59447 -28172359.09044  23540673.9614                   23540672.9024
 -25398898.43247 -19771900.99446  21232609.2034                   21232607.8444
 -11652587.24647  -9068407.32945  22740788.2034                   22740786.1564
 11  9 27  1 50  0.0000000  0  9G02G29G25G30G18G15G05G26G21
 -50928378.34846 -39664017.78543  24183741.0634                   24183738.7154
 -35370741.34048 -27543547.86147  20184055.8984                   20184054.4344
 -24312624.17047 -18923732.64644  24396606.6644                   24396610.5434
 -11457737.26346  -8908987.53943  24180839.8284                   24180841.5904
  -8546096.66547  -6646609.24045  22281153.7424                   22281152.0394
 -22515873.09347 -17525798.41546  20715664.7894                   20715663.2854
 -36166236.17646 -28160449.94044  23543582.5234                   23543581.7154
 -25446018.05347 -19808617.54845  21223642.3364                   21223640.4264
 -11787120.35547  -9173238.21945  22715187.5864                   22715185.1524
 11  9 27  1 50 30.0000000  0  9G02G29G25G30G18G15G05G26G21
 -50929096.55346 -39664577.41044  24183604.3984                   24183601.8554
 -35432524.58648 -27591690.62047  20172299.1484                   20172297.5164
 -24302488.41447 -18915834.75443  24398534.3984                   24398538.6484
 -11457945.10346  -8909149.52543  24180799.8284                   24180802.4614
  -8668813.85947  -6742232.92745  22257802.0084                   22257800.6174
 -22620597.16047 -17607401.52446  20695736.2114                   20695734.0474
 -36150973.16946 -28148556.64644  23546487.1564                   23546485.1844
 -25492467.19747 -19844811.63946  21214803.9224                   21214801.9024
 -11921679.93247  -9278089.76145  22689581.6414                   22689579.4224
 11  9 27  1 51  0.0000000  0  9G02G29G25G30G18G15G05G26G21
 -50929670.37546 -39665024.54843  24183494.5164                   24183492.8984
 -35493761.42448 -27639407.60247  20160646.1724                   20160644.3874
 -24292445.86247 -18908009.38543  24400445.2504                   24400450.3364
 -11458063.33346  -8909241.70243  24180777.5634                   24180779.2584
  -8791287.96747  -6837667.19845  22234495.7584                   22234494.2664
 -22724770.63547 -17688575.60846  20675912.7424                   20675910.6054
 -36135729.80446 -28136678.68244  23549387.3364                   23549386.4964
 -25538244.23747 -19880482.02345  21206092.3134                   21206091.0274
 -12056262.52347  -9382959.21645  22663971.2274                   22663968.6994
 11  9 27  1 51 30.0000000  0  9G02G29G25G30G18G15G05G26G21
 -50930101.91046 -39665360.85144  24183413.0704                   24183412.2114
 -35554453.83348 -27686700.35747  20149096.6024                   20149094.6724
 -24282501.18146 -18900260.36743  24402337.1884                   24402343.0164
 -11458097.09646  -8909268.05544  24180772.0394                   24180773.2854
  -8913521.11847  -6932913.71245  22211235.1954                   22211234.2344
 -22828394.75347 -17769321.61246  20656193.8754                   20656191.7074
 -36120509.27546 -28124818.50444  23552283.5004                   23552282.3594
 -25583352.12047 -19915630.98645  21197508.5944                   21197507.0744
 -12190869.32147  -9487847.56245  22638356.6724                   22638354.0784
 11  9 27  1 52  0.0000000  0  9G02G29G25G30G18G15G05G26G21
 -50930389.11046 -39665584.60544  24183358.1484                   24183356.6764
 -35614600.02748 -27733567.50147  20137651.0474                   20137649.3714
 -24272655.32847 -18892588.34243  24404212.0474                   24404215.9454
 -11458047.86546  -8909229.81243  24180780.6644                   24180782.2504
  -9035511.94947  -7027971.39245  22188021.7664                   22188019.5784
 -22931466.19347 -17849636.97346  20636579.9304                   20636577.8834
 -36105310.83746 -28112975.51944  23555176.2114                   23555174.2894
 -25627789.88947 -19950257.77845  21189052.4304                   21189050.3874
 -12325497.80747  -9592752.78045  22612737.7424                   22612734.7664
 11  9 27  1 52 30.0000000  0  9G02G29G25G30G18G15G05G26G21
 -50930532.22946 -39665696.13343  24183330.2274                   24183328.7194
 -35674199.73948 -27780008.81047  20126309.5554                   20126307.9534
 -24262911.30046 -18884995.67143  24406065.5004                   24406070.3444
 -11457918.82746  -8909129.29543  24180805.1174                   24180806.8914
  -9157260.91847  -7122840.61145  22164853.2194                   22164851.7734
 -23033983.65747 -17929520.65046  20617071.2894                   20617069.5204
 -36090136.36146 -28101151.25044  23558063.6024                   23558062.5474
 -25671558.57347 -19984363.21745  21180723.4534                   21180721.9534
 -12460147.76347  -9697674.71145  22587114.5394                   22587112.0904
 11  9 27  1 53  0.0000000  0  8G29G25G30G18G15G05G26G21
 -35733254.36648 -27826025.38747  20115071.9844                   20115070.4024
 -24253272.90046 -18877485.37043  24407900.9534                   24407905.1954
 -11457714.43946  -8908969.99443  24180844.3594                   24180846.2234
  -9278769.53147  -7217522.53745  22141730.5944                   22141728.9924
 -23135947.53547 -18008972.96646  20597667.6884                   20597665.5824
 -36074988.25446 -28089347.49544  23560946.1644                   23560945.1764
 -25714660.29847 -20017948.93445  21172521.1094                   21172520.4804
 -12594819.60847  -9802613.71045  22561486.8674                   22561484.2424
 11  9 27  1 53 30.0000000  0  8G29G25G30G18G15G05G26G21
 -34216339.86548 -26644014.05547  20403731.3134                   20403729.8594
 -22668321.03146 -17642458.04843  24709506.2274                   24709511.7504
  -9882015.45446  -7681152.65844  24480690.5554                   24480692.3404
  -7824611.69447  -6084412.42245  22418447.8444                   22418446.4494
 -21661930.94947 -16860388.55946  20878164.3134                   20878162.2074
 -34484445.88947 -26849963.80744  23863615.9774                   23863614.3984
 -24181672.50947 -18823412.97245  21464238.9064                   21464237.5744
 -11154085.90447  -8679963.95645  22835649.6334                   22835647.1254
 11  9 27  1 54  0.0000000  0  8G29G25G30G18G15G05G26G21
 -34274297.96048 -26689176.18247  20392702.1724                   20392700.3404
 -22658895.84246 -17635113.83443  24711300.8524                   24711305.7624
  -9881663.27146  -7680878.26743  24480756.2274                   24480758.1484
  -7945633.74947  -6178715.21745  22395417.5314                   22395416.7544
 -21762777.28247 -16938970.06346  20858973.8444                   20858971.9844
 -34469347.97447 -26838199.15344  23866489.0004                   23866488.1054
 -24223437.30147 -18855956.93746  21456291.6094                   21456289.7854
 -11288793.04647  -8784930.44445  22810015.9144                   22810013.3874
 11  9 27  1 54 30.0000000  0  8G29G25G30G18G15G05G26G21
 -34331703.48048 -26733907.72347  20381778.2194                   20381776.4844
 -22649577.11846 -17627852.60543  24713074.7114                   24713078.7664
  -9881237.74546  -7680546.81643  24480837.1024                   24480839.0044
  -8066409.01047  -6272825.67745  22372435.3444                   22372433.1214
 -21863059.09248 -17017111.68046  20839890.6484                   20839888.5124
 -34454273.11247 -26826452.47844  23869358.1024                   23869356.0274
 -24264530.88847 -18887977.87946  21448471.8204                   21448470.8244
 -11423512.73347  -8889906.71445  22784379.1484                   22784377.2114
 11  9 27  1 55  0.0000000  0  8G29G25G30G18G15G05G26G21
 -34388558.77848 -26778210.53647  20370959.1564                   20370956.9184
 -22640369.80947 -17620678.21643  24714825.6174                   24714830.6054
  -9880744.20446  -7680162.25543  24480931.7894                   24480933.1684
  -8186940.31147  -6366746.06345  22349498.6644                   22349496.9804
 -21962777.70547 -17094814.44846  20820914.8444                   20820912.9654
 -34439224.83547 -26814726.52444  23872221.5634                   23872220.3284
 -24304956.59447 -18919478.39845  21440779.1644                   21440777.5164
 -11558246.30147  -8994893.80645  22758739.8754                   22758737.7934
 11  9 27  1 55 30.0000000  0  8G29G25G30G18G15G05G26G21
 -34444867.07548 -26822087.10947  20360244.0784                   20360242.2034
 -22631279.64647 -17613595.07244  24716556.2424                   24716560.8524
  -9880188.91746  -7679729.56743  24481037.4304                   24481040.1334
  -8307230.75047  -6460478.75545  22326607.6094                   22326606.0164
 -22061934.99648 -17172079.82446  20802045.8594                   20802043.7734
 -34424207.30947 -26803024.51444  23875079.4454                   23875078.1334
 -24344718.94947 -18950462.02146  21433212.6334                   21433211.1804
 -11692995.73347  -9099893.23645  22733097.7274                   22733095.1524
 11  9 27  1 56  0.0000000  0  8G29G25G30G18G15G05G26G21
 -34500632.18648 -26865540.41347  20349631.8914                   20349630.1844
 -22622313.29747 -17606608.42944  24718262.6954                   24718267.2894
  -9879578.90446  -7679254.31843  24481153.5944                   24481155.9654
  -8427284.53547  -6554027.03145  22303762.4924                   22303760.0984
 -22160533.86248 -17248910.05546  20783283.0634                   20783280.7464
 -34409225.80047 -26791350.56544  23877930.5314                   23877928.4414
 -24383822.94347 -18980932.63246  21425771.2194                   21425769.9924
 -11827764.30047  -9204907.59145  22707452.0234                   22707449.5704
 11  9 27  1 56 30.0000000  0  8G29G25G30G18G15G05G26G21
 -34555853.90448 -26908570.29447  20339123.4384                   20339122.0204
 -22613473.34347 -17599720.27844  24719945.1414                   24719949.2734
  -9878917.34746  -7678738.83443  24481279.9454                   24481281.2734
  -8547102.20947  -6647391.30945  22280962.3594                   22280960.3794
 -22258572.69448 -17325303.89246  20764626.9924                   20764624.3094
 -34394281.85647 -26779705.89044  23880774.1804                   23880772.5554
 -24422269.56548 -19010891.00045  21418454.6954                   21418453.2464
 -11962551.84947  -9309936.73245  22681803.0704                   22681799.9694
 11  9 27  1 57  0.0000000  0  8G29G25G30G18G15G05G26G21
 -34610533.66348 -26951177.88347  20328718.6254                   20328716.8204
 -22604763.28447 -17592933.29344  24721602.5474                   24721606.9574
  -9878207.98846  -7678186.15143  24481414.7814                   24481416.2384
  -8666684.76647  -6740572.41045  22258206.1174                   22258203.4734
 -22356051.75548 -17401261.55546  20746077.0314                   20746074.8594
 -34379376.92747 -26768091.63044  23883609.9384                   23883608.9494
 -24460060.84947 -19040338.73146  21411263.3834                   21411261.6994
 -12097357.89747  -9414980.29945  22656150.0554                   22656147.1644
 11  9 27  1 57 30.0000000  0  8G29G25G30G18G15G05G26G21
 -34664672.54048 -26993363.99947  20318415.9774                   20318413.9884
 -22596186.80747 -17586250.45244  24723234.7734                   24723239.4104
  -9877455.14146  -7677599.49443  24481558.9614                   24481559.4024
  -8786033.70947  -6833571.47145  22235494.5394                   22235492.6294
 -22452971.43748 -17476783.33646  20727633.6804                   20727631.5594
 -34364513.87747 -26756509.99244  23886438.8594                   23886437.0514
 -24497199.19547 -19069277.66245  21404196.2424                   21404194.9494
 -12232182.40847  -9520038.24545  22630493.6954                   22630490.7814
 11  9 27  1 58  0.0000000  0  8G29G25G30G18G15G05G26G21
 -34718269.26848 -27035127.66447  20308217.2274                   20308215.5314
 -22587744.95646 -17579672.51544  24724841.0234                   24724846.3444
  -9876660.33646  -7676980.27943  24481708.1724                   24481711.4304
  -8905147.93747  -6926387.62845  22212827.6484                   22212825.9734
 -22549328.86048 -17551866.99746  20709297.4064                   20709295.4264
 -34349692.42447 -26744960.80644  23889259.1884                   23889257.7194
 -24533684.34648 -19097707.64345  21397253.5864                   21397252.1884
 -12367023.94847  -9625109.46545  22604833.7194                   22604832.0164
 11  9 27  1 58 30.0000000  0  7G29G30G18G15G05G26G21
 -34771323.21848 -27076468.38247  20298121.1804                   20298119.3834
  -9875826.17946  -7676330.35243  24481867.5634                   24481870.6254
  -9024027.30347  -7019020.78645  22190205.8914                   22190203.5664
 -22645122.68848 -17626511.49146  20691068.7974                   20691066.4924
 -34334912.95947 -26733444.28544  23892071.0474                   23892070.3364
 -24569517.25048 -19125629.36045  21390434.9924                   21390433.0824
 -12501880.94147  -9730192.73445  22579171.7894                   22579169.2034
 11  9 27  1 59  0.0000000  0  7G29G30G18G15G05G26G21
 -34823833.89448 -27117385.78247  20288128.7814                   20288127.1914
  -9874954.90246  -7675651.45543  24482033.1024                   24482035.0204
  -9142671.39147  -7111470.61145  22167628.6334                   22167625.7624
 -22740351.52048 -17700715.72146  20672947.0314                   20672945.0664
 -34320175.90247 -26721960.85444  23894875.5084                   23894873.6174
 -24604698.12948 -19153043.00345  21383739.9534                   21383738.2624
 -12636751.44447  -9835286.52345  22553506.4694                   22553503.8984
 11  9 27  1 59 30.0000000  0  7G29G30G18G15G05G26G21
 -34875797.25648 -27157876.70047  20278240.3284                   20278238.3404
  -9874045.52546  -7674942.90343  24482207.5004                   24482209.5984
  -9261076.52147  -7203734.23145  22145096.3914                   22145094.1884
 -22835010.02748 -17774475.55946  20654934.0004                   20654931.9694
 -34305478.36846 -26710508.17244  23897671.8914                   23897670.9304
 -24639224.57647 -19179946.70645  21377169.5474                   21377167.8874
 -12771630.88447  -9940387.30745  22527839.6954                   22527837.2034
 11  9 27  2  0  0.0000000  0  7G29G30G18G15G05G26G21
 -34927212.02848 -27197940.14247  20268456.8524                   20268454.8284
  -9873099.32446  -7674205.70443  24482386.6334                   24482388.3284
  -9379241.33147  -7295810.60745  22122610.1254                   22122608.2664
 -22929095.65848 -17847788.99046  20637030.3284                   20637027.8444
 -34290819.97947 -26699085.98744  23900461.6414                   23900460.3554
 -24673096.12148 -19206340.07045  21370724.1954                   21370722.5594
 -12906516.49447 -10045492.87945  22502171.8364                   22502168.7894
 11  9 27  2  0 30.0000000  0  7G29G30G18G15G05G26G21
 -34978080.66648 -27237578.02947  20258776.4384                   20258774.9344
  -9872121.70346  -7673443.96043  24482572.3754                   24482575.1884
  -9497168.41547  -7387701.73045  22100169.7114                   22100166.8674
 -23022609.99348 -17920657.27546  20619234.9844                   20619233.0234
 -34276204.29946 -26687697.05844  23903243.4384                   23903241.4184
 -24706316.49648 -19232226.05545  21364402.3054                   21364400.7584
 -13041409.63647 -10150604.31745  22476502.5234                   22476499.7734
 11  9 27  2  1  0.0000000  0  7G29G30G18G15G05G26G21
 -35028407.80748 -27276793.96547  20249199.5234                   20249198.1684
  -9871119.94246  -7672663.44443  24482763.7894                   24482766.3164
  -9614862.54247  -7479411.34445  22077772.9224                   22077770.4184
 -23115556.31848 -17993082.93246  20601547.9694                   20601545.3674
 -34261636.13346 -26676345.18444  23906015.4534                   23906013.1524
 -24738891.31947 -19257609.00245  21358203.8754                   21358202.1724
 -13176313.96647 -10255724.50245  22450831.1174                   22450827.9414
 11  9 27  2  1 30.0000000  0  7G29G30G18G15G05G26G21
 -35078197.06448 -27315590.77547  20239725.0084                   20239723.5824
  -9870100.29746  -7671868.92143  24482958.0234                   24482959.3714
  -9732327.06247  -7570942.02645  22055419.9304                   22055417.7704
 -23207936.98748 -18065067.83546  20583968.5084                   20583966.2854
 -34247120.25546 -26665034.10544  23908777.3134                   23908776.5084
 -24770825.14948 -19282492.48545  21352126.9144                   21352125.3324
 -13311231.42647 -10360854.90745  22425157.3674                   22425154.4804
 11  9 27  2  2  0.0000000  0  7G29G30G18G15G05G26G21
 -35127448.04848 -27353968.14747  20230352.9064                   20230351.0984
  -9869064.97146  -7671062.27443  24483155.1024                   24483156.9384
  -9849562.08447  -7662293.91345  22033111.3204                   22033108.9734
 -23299750.72648 -18136610.96746  20566497.1804                   20566494.5554
 -34232657.50646 -26653764.40644  23911529.4694                   23911527.9064
 -24802119.12247 -19306877.37445  21346171.7274                   21346169.9064
 -13446160.80247 -10465994.60445  22399480.8674                   22399478.1564
 11  9 27  2  2 30.0000000  0  7G29G30G18G15G05G26G21
 -35176163.69148 -27391928.38247  20221082.5704                   20221080.9494
  -9868020.06646  -7670248.10243  24483353.1954                   24483355.6254
  -9966570.77848  -7753469.42245  22010845.0084                   22010842.3714
 -23390999.66448 -18207714.00146  20549133.0704                   20549130.6604
 -34218251.10046 -26642538.53744  23914270.4304                   23914269.5984
 -24832777.55147 -19330767.04745  21340337.9224                   21340336.2034
 -13581103.57347 -10571144.74545  22373802.1484                   22373799.6024
 11  9 27  2  3  0.0000000  0  7G29G30G18G15G05G26G21
 -35224339.72148 -27429468.14147  20211915.0164                   20211913.1804
  -9866963.42046  -7669424.85743  24483554.2814                   24483558.0944
 -10083348.30048  -7844464.81545  21988622.7664                   21988620.3134
 -23481677.99048 -18278372.40146  20531876.7344                   20531874.9494
 -34203897.21746 -26631353.65444  23917002.0554                   23917001.2074
 -24862796.85147 -19354158.69145  21334625.3524                   21334623.4344
 -13716053.91447 -10676300.78245  22348121.6174                   22348118.9734
 11  9 27  2  3 30.0000000  0  7G29G30G18G15G05G26G21
 -35271977.63148 -27466588.58047  20202849.9384                   20202847.9224
  -9865899.51146  -7668595.88343  24483756.6724                   24483760.0904
 -10199896.75047  -7935281.71345  21966444.3834                   21966442.1174
 -23571786.61548 -18348586.87446  20514729.9304                   20514727.6454
 -34189598.80146 -26620211.98644  23919722.6094                   23919721.4414
 -24892179.98547 -19377054.61145  21329033.6954                   21329031.7774
 -13851012.74247 -10781463.43445  22322439.7504                   22322437.1804
 11  9 27  2  4  0.0000000  0  7G29G30G18G15G05G26G21
 -35319080.88548 -27503292.40847  20193886.4694                   20193884.7114
  -9864834.23346  -7667765.85143  24483960.5474                   24483963.3524
 -10316219.36948  -8025922.63545  21944308.6334                   21944306.5274
 -23661327.46848 -18418358.93246  20497691.2114                   20497689.0434
 -34175359.28546 -26609116.21344  23922432.5394                   23922431.8444
 -24920931.65547 -19399458.47745  21323562.4454                   21323561.1024
 -13985981.62947 -10886633.92645  22296755.8204                   22296753.7154
 11  9 27  2  4 30.0000000  0  7G29G30G18G15G05G26G21
 -33790225.79048 -26311976.74647  20484818.0864                   20484816.0904
  -8288347.99246  -6439335.08643  24783955.4454                   24783957.9144
  -8856889.89347  -6888782.71245  22222010.0554                   22222007.7424
 -22174874.24948 -17260083.65646  20780553.8364                   20780551.3754
 -32585757.83746 -25370465.69144  24224923.5554                   24224922.0554
 -23373629.61647 -18193768.56445  21618004.3834                   21618002.3484
 -12545532.45447  -9764205.94345  22570864.3984                   22570861.5274
 11  9 27  2  5  0.0000000  0  7G29G30G18G15G05G26G21
 -33836254.38148 -26347843.16647  20476058.8204                   20476056.8484
  -8287282.41446  -6438504.83543  24784159.1254                   24784160.1994
  -8972755.48347  -6979067.50945  22199961.9064                   22199959.0514
 -22263271.36948 -17328964.50146  20763732.4064                   20763729.5394
 -32571633.47546 -25359459.65844  24227611.3284                   24227610.3674
 -23401116.39047 -18215186.80545  21612773.7344                   21612772.1054
 -12680512.35247  -9869385.02045  22545178.3444                   22545175.5004
 11  9 27  2  5 30.0000000  0  7G29G30G18G15G05G26G21
 -33881748.49448 -26383293.11847  20467401.4614                   20467399.4414
  -8286223.35846  -6437679.63843  24784360.1564                   24784362.2154
  -9088395.30547  -7069176.41145  22177955.6094                   22177953.4224
 -22351097.73448 -17397400.59146  20747019.4694                   20747016.7624
 -32557570.30946 -25348501.31844  24230287.4924                   24230286.3554
 -23427975.46247 -18236115.92645  21607662.9144                   21607661.0394
 -12815498.18747  -9974568.71445  22519491.1484                   22519488.9694
 11  9 27  2  6  0.0000000  0  7G29G30G18G15G05G26G21
 -33926706.16148 -26418325.07047  20458846.6174                   20458844.5824
  -8285171.09146  -6436859.78243  24784560.4064                   24784562.2074
  -9203807.29147  -7159107.74845  22155994.3134                   22155990.9924
 -22438350.12047 -17465389.43446  20730415.7194                   20730413.1524
 -32543566.70646 -25337589.37844  24232952.4774                   24232951.5474
 -23454205.78247 -18256555.13145  21602671.2504                   21602669.3674
 -12950486.49947 -10079754.35245  22493803.5944                   22493800.9534
 11  9 27  2  6 30.0000000  0  7G29G30G18G15G05G26G21
 -33971130.17048 -26452941.18047  20450392.7344                   20450390.8594
  -8284131.02746  -6436049.43043  24784758.1254                   24784760.2464
  -9318994.31647  -7248863.81845  22134074.6024                   22134071.7974
 -22525030.67248 -17532932.68646  20713921.2734                   20713918.7074
 -32529626.11846 -25326726.55844  24235605.5084                   24235603.2664
 -23479811.71047 -18276507.78245  21597798.4384                   21597796.8874
 -13085478.66047 -10184942.94945  22468115.3524                   22468113.2464
 11  9 27  2  7  0.0000000  0  7G29G30G18G15G05G26G21
 -34015021.92448 -26487142.54747  20442040.4844                   20442038.4144
  -8283106.81846  -6435251.42642  24784952.6724                   24784955.1484
  -9433957.59847  -7338445.54345  22112197.5784                   22112194.5314
 -22611139.73748 -17600030.62546  20697534.7894                   20697532.9694
 -32515750.24646 -25315914.09244  24238245.5004                   24238244.1024
 -23504795.65247 -18295975.76845  21593043.9224                   21593042.1804
 -13220474.41947 -10290134.38645  22442426.9614                   22442424.8094
 11  9 27  2  7 30.0000000  0  7G29G30G18G15G05G26G21
 -34058376.59847 -26520925.40447  20433790.4774                   20433788.4694
  -8282096.46846  -6434464.19143  24785145.9224                   24785147.1294
  -9548692.75447  -7427849.49845  22090363.7814                   22090361.8794
 -22696671.44448 -17666678.67446  20681259.1024                   20681256.6294
 -32501935.03746 -25305148.98344  24240875.0234                   24240873.5784
 -23529154.53147 -18314956.69745  21588408.9534                   21588407.0314
 -13355467.55147 -10395323.76645  22416738.4614                   22416736.0204
 11  9 27  2  8  0.0000000  0  7G29G30G18G15G05G26G21
 -34101197.46448 -26554292.31747  20425641.7424                   20425639.7854
  -8281105.04946  -6433691.71542  24785334.2274                   24785335.7584
  -9663201.92247  -7517077.37845  22068573.2114                   22068570.9734
 -22781627.48648 -17732878.15046  20665091.9384                   20665090.0044
 -32488183.77146 -25294433.66544  24243490.8134                   24243489.6684
 -23552892.08747 -18333453.47045  21583891.7344                   21583889.6374
 -13490459.53247 -10500512.25345  22391050.0784                   22391047.7774
 11  9 27  2  8 30.0000000  0  7G29G30G18G15G05G26G21
 -34143483.37548 -26587242.37347  20417594.7584                   20417592.9064
  -8280133.83946  -6432934.99642  24785519.4224                   24785520.5044
  -9777484.31347  -7606128.52545  22046826.5554                   22046823.6024
 -22866005.80948 -17798627.47246  20649035.1484                   20649033.4574
 -32474495.79246 -25283767.61543  24246096.7114                   24246094.2854
 -23576008.68047 -18351466.37545  21579492.1954                   21579491.0664
 -13625447.56447 -10605697.66145  22365363.0634                   22365360.0474
 11  9 27  2  9  0.0000000  0  7G29G30G18G15G05G26G21
 -34185236.23148 -26619777.06947  20409649.6484                   20409647.6884
  -8279187.14746  -6432197.37942  24785699.0314                   24785700.1954
  -9891541.86747  -7695004.48945  22025121.7194                   22025119.2074
 -22949807.59948 -17863927.53146  20633088.6484                   20633086.2114
 -32460873.27446 -25273152.63444  24248688.2424                   24248686.7194
 -23598507.53147 -18368997.93245  21575211.1484                   21575209.9264
 -13760432.07847 -10710880.31645  22339675.9924                   22339673.3244
 11  9 27  2  9 30.0000000  0  7G29G30G18G15G05G26G21
 -34226453.44548 -26651894.37647  20401806.3134                   20401804.2624
  -8278264.65146  -6431478.60942  24785874.3444                   24785876.8914
 -10005371.54547  -7783702.87745  22003460.7344                   22003458.0554
 -23033029.24848 -17928775.54647  20617252.1334                   20617249.6954
 -32447313.77946 -25262586.76044  24251268.7974                   24251267.0864
 -23620387.45547 -18386047.20945  21571047.9844                   21571046.0474
 -13895408.29347 -10816056.50845  22313990.9384                   22313988.4454
 11  9 27  2 10  0.0000000  0  7G29G30G18G15G05G26G21
 -34267138.56248 -26683597.07047  20394064.2734                   20394062.3674
  -8277372.08746  -6430783.25543  24786044.0164                   24786047.4494
 -10118976.86447  -7872226.45145  21981842.4844                   21981839.3054
 -23115672.95648 -17993173.20946  20601524.9304                   20601523.2384
 -32433821.27746 -25252073.08944  24253835.9384                   24253834.7584
 -23641653.01947 -18402617.76045  21567000.7034                   21566999.3754
 -14030378.42747 -10921227.97245  22288307.1414                   22288303.9184
 11  9 27  2 10 30.0000000  0  6G29G18G15G05G26G21
 -34307291.90948 -26714885.38747  20386423.4694                   20386421.8484
 -10232357.69847  -7960575.09645  21960266.5634                   21960264.0394
 -23197737.82048 -18057119.83546  20585908.7974                   20585906.7934
 -32420396.31546 -25241612.02944  24256391.1414                   24256389.2234
 -23662305.63347 -18418710.68445  21563070.7734                   21563069.4064
 -14165340.61447 -11026393.21845  22262624.8284                   22262621.9104
 11  9 27  2 11  0.0000000  0  6G29G18G15G05G26G21
 -34346912.95348 -26745758.92647  20378883.7194                   20378882.0904
 -10345513.10247  -8048748.07545  21938733.8834                   21938730.8984
 -23279223.12447 -18120614.84346  20570402.6644                   20570400.5274
 -32407038.58746 -25231203.37844  24258931.9144                   24258931.5314
 -23682346.13447 -18434326.63645  21559257.2894                   21559255.2154
 -14300292.81648 -11131550.70145  22236943.8834                   22236941.1454
 11  9 27  2 11 30.0000000  0  6G29G18G15G05G26G21
 -34385998.14548 -26776214.92547  20371445.7974                   20371444.2704
 -10458440.25148  -8136743.19345  21917244.6094                   21917241.4774
 -23360123.64448 -18183654.17646  20555008.0634                   20555005.8674
 -32393745.18046 -25220844.85944  24261462.0314                   24261460.8834
 -23701772.87247 -18449464.33945  21555560.3914                   21555559.0234
 -14435229.32648 -11236695.95545  22211266.1094                   22211263.2854
 11  9 27  2 12  0.0000000  0  6G29G18G15G05G26G21
 -34424547.76848 -26806253.59347  20364110.3914                   20364108.8984
 -10571138.45348  -8224559.92045  21895798.8524                   21895795.6334
 -23440438.23348 -18246236.94946  20539724.5554                   20539722.0784
 -32380515.70046 -25210536.12044  24263979.7974                   24263978.0084
 -23720586.60047 -18464124.37945  21551980.3834                   21551978.0274
 -14570149.07547 -11341828.15245  22185592.3834                   22185588.2974
 11  9 27  2 12 30.0000000  0  6G29G18G15G05G26G21
 -34462565.29248 -26835877.64747  20356876.0084                   20356873.6604
 -10683610.71348  -8312200.57545  21874395.3984                   21874393.4454
 -23520169.72048 -18308365.36846  20524552.1334                   20524549.2544
 -32367353.56046 -25200279.85044  24266484.1644                   24266482.4264
 -23738791.95947 -18478310.35245  21548515.8134                   21548514.1524
 -14705052.67848 -11446947.77545  22159920.1414                   22159917.3754
 11  9 27  2 13  0.0000000  0  6G29G18G15G05G26G21
 -34500053.58948 -26865089.30747  20349742.0234                   20349739.8014
 -10795859.92947  -8399667.42345  21853035.3674                   21853032.8014
 -23599320.08448 -18370040.94546  20509490.1174                   20509487.7114
 -32354262.26446 -25190078.82043  24268975.3674                   24268974.0354
 -23756393.29547 -18492025.65345  21545166.3914                   21545164.7544
 -14839941.79947 -11552056.08945  22134252.1094                   22134248.8054
 11  9 27  2 13 30.0000000  0  6G29G18G15G05G26G21
 -34537015.35848 -26893890.67747  20342708.4774                   20342706.5594
 -10907888.41848  -8486962.30245  21831717.1334                   21831714.5394
 -23677890.94448 -18431264.96246  20494538.3054                   20494536.1684
 -32341244.18846 -25179934.83743  24271452.4144                   24271451.6524
 -23773394.78147 -18505273.55445  21541930.8054                   21541929.9304
 -14974816.50047 -11657153.20545  22108585.8594                   22108582.6134
 11  9 27  2 14  0.0000000  0  6G29G18G15G05G26G21
 -34573453.13848 -26922283.75547  20335774.7424                   20335772.4734
 -11019698.68348  -8574087.10145  21810440.3834                   21810437.6724
 -23755883.87648 -18492038.64747  20479697.1334                   20479694.8014
 -32328301.91046 -25169849.92643  24273915.9064                   24273913.8484
 -23789800.18047 -18518056.95745  21538809.1484                   21538807.2464
 -15109678.10447 -11762240.07845  22082922.7664                   22082920.0944
 11  9 27  2 14 30.0000000  0  6G29G18G15G05G26G21
 -34609368.25148 -26950269.55547  20328939.8674                   20328937.9884
 -11131291.26848  -8661042.31245  21789205.0394                   21789202.2034
 -23833299.13548 -18552362.18646  20464965.4144                   20464962.6454
 -32315436.74846 -25159825.06643  24276364.1804                   24276362.1604
 -23805611.86447 -18530377.75345  21535800.5554                   21535798.8914
 -15244525.30047 -11867315.74845  22057261.5394                   22057258.5904
 11  9 27  2 15  0.0000000  0  6G29G18G15G05G26G21
 -34644759.65148 -26977847.27847  20322205.1414                   20322203.5784
 -11242664.80848  -8747826.82045  21768011.1724                   21768008.7074
 -23910134.70147 -18612234.03846  20450344.4534                   20450342.2234
 -32302647.65546 -25149859.48743  24278797.3204                   24278795.6484
 -23820830.06947 -18542236.08045  21532904.4304                   21532902.2664
 -15379354.93547 -11972377.73545  22031605.2034                   22031601.8674
 11  9 27  2 15 30.0000000  0  6G29G18G15G05G26G21
 -33104209.34248 -25777418.46947  20615362.2974                   20615360.3794
  -9778398.37948  -7606839.93945  22046651.7734                   22046649.3984
 -22410969.86247 -17444053.61246  20735625.8524                   20735623.6374
 -30714517.90946 -23912355.77843  24581008.1644                   24581006.5514
 -22260038.69847 -17326035.01045  21829913.5164                   21829911.8714
 -13938743.70147 -10849823.45245  22305743.4534                   22305740.7154
 11  9 27  2 16  0.0000000  0  6G29G18G15G05G26G21
 -33138560.29148 -25804185.44447  20608825.4224                   20608823.7194
  -9889339.73748  -7693287.69645  22025540.3754                   22025537.6454
 -22486649.55748 -17503024.78246  20721224.1564                   20721222.3754
 -30701887.33146 -23902513.74143  24583412.3834                   24583410.3404
 -22274080.77047 -17336976.84445  21827240.9614                   21827239.4964
 -14073539.00347 -10954858.69245  22280093.3284                   22280089.6724
 11  9 27  2 16 30.0000000  0  6G29G18G15G05G26G21
 -33172392.90148 -25830548.51847  20602387.4224                   20602385.4024
 -10000066.35048  -7779568.12445  22004469.8594                   22004466.6294
 -22561752.00848 -17561546.13246  20706932.9064                   20706930.5394
 -30689337.50346 -23892734.65543  24585800.1884                   24585798.5004
 -22287538.58847 -17347463.45145  21824680.1094                   21824678.4694
 -14208315.83547 -11059879.55545  22254446.0864                   22254442.2154
 11  9 27  2 17  0.0000000  0  6G29G18G15G05G26G21
 -33205705.35248 -25856506.28047  20596048.4224                   20596046.5274
 -10110576.08148  -7865679.55045  21983440.3204                   21983437.6414
 -22636274.42547 -17619615.52646  20692751.1334                   20692749.3014
 -30676866.63646 -23883016.99043  24588174.2194                   24588172.5904
 -22300411.68447 -17357494.43345  21822230.2504                   21822228.6134
 -14343069.93947 -11164882.67245  22228803.0234                   22228799.7704
 11  9 27  2 17 30.0000000  0  6G29G18G15G05G26G21
 -33238497.96548 -25882058.96447  20589808.3754                   20589806.2814
 -10220868.80048  -7951621.88145  21962451.9924                   21962449.6524
 -22710216.11448 -17677232.37846  20678680.4844                   20678678.2384
 -30664474.75046 -23873360.96843  24590530.9534                   24590529.0204
 -22312701.54947 -17367070.92945  21819891.7114                   21819890.3834
 -14477799.76847 -11269866.91345  22203164.4224                   22203160.6914
 11  9 27  2 18  0.0000000  0  7G22G29G18G15G05G26G21
  20306153.38057  15851200.40353  24755120.9694                   24755120.1454
 -33270774.25948 -25907209.32347  20583666.1884                   20583664.2504
 -10330946.82148  -8037396.91045  21941504.6334                   21941502.3594
 -22783579.16047 -17734398.36146  20664720.2734                   20664718.0044
 -30652164.87646 -23863768.85443  24592874.4844                   24592872.0474
 -22324412.83447 -17376196.61845  21817663.0554                   21817661.3984
 -14612505.85647 -11374832.63545  22177530.8834                   22177527.5824
 11  9 27  2 18 30.0000000  0  7G22G29G18G15G05G26G21
  20160120.96446  15737409.04943  24727332.6094                   24727330.8554
 -33302536.72848 -25931959.29747  20577621.7814                   20577619.5634
 -10440812.77948  -8123006.69545  21920598.1334                   21920595.5784
 -22856364.91848 -17791114.51346  20650869.2504                   20650867.2624
 -30639939.28846 -23854242.39743  24595200.4304                   24595199.0044
 -22335549.27947 -17384874.36445  21815544.0004                   21815542.5944
 -14747188.55847 -11479780.13746  22151901.2114                   22151898.4064
 11  9 27  2 19  0.0000000  0  7G22G29G18G15G05G26G21
  20014220.42747  15623720.47143  24699568.6174                   24699565.4884
 -33333789.90748 -25956312.43247  20571675.1024                   20571672.4144
 -10550470.84048  -8208454.48645  21899730.5554                   21899728.0634
 -22928577.65148 -17847384.15246  20637127.8054                   20637125.4534
 -30627802.20046 -23844784.89343  24597509.9534                   24597507.6914
 -22346116.93747 -17393108.90245  21813532.7194                   21813530.5704
 -14881850.59647 -11584711.53645  22126276.4534                   22126272.8984
 11  9 27  2 19 30.0000000  0  7G22G29G18G15G05G26G21
  19868456.96746  15510138.71443  24671830.0864                   24671827.1484
 -33364529.81448 -25980265.61347  20565825.3524                   20565823.1524
 -10659916.20548  -8293736.53445  21878903.7114                   21878901.1604
 -23000212.33748 -17903203.35546  20623496.3834                   20623494.3094
 -30615749.34746 -23835393.04943  24599803.0864                   24599801.5274
 -22356112.92647 -17400897.96945  21811631.2894                   21811628.6524
 -15016485.05747 -11689621.47045  22100655.8984                   22100652.4734
 11  9 27  2 20  0.0000000  0  7G22G29G18G15G05G26G21
  19722833.90646  15396666.27043  24644118.9304                   24644118.3014
 -33394754.40148 -26003817.24546  20560073.4384                   20560071.2774
 -10769146.48548  -8378851.00645  21858118.4694                   21858115.8134
 -23071265.86648 -17958569.72346  20609975.2194                   20609972.6764
 -30603778.48646 -23826065.13443  24602081.6414                   24602078.9264
 -22365536.81347 -17408241.25845  21809837.1024                   21809835.3674
 -15151087.76548 -11794506.64445  22075042.4144                   22075038.4694
 11  9 27  2 20 30.0000000  0  7G22G29G18G15G05G26G21
  19577353.55946  15283305.12943  24616434.9304                   24616432.5164
 -33424463.07748 -26026966.86846  20554420.3984                   20554418.1914
 -10878160.48448  -8463796.92145  21837373.3524                   21837370.8014
 -23141736.34148 -18013481.76446  20596565.3674                   20596562.8634
 -30591888.15646 -23816799.85944  24604343.8524                   24604341.9534
 -22374388.69247 -17415138.82245  21808152.9694                   21808151.9734
 -15285655.42947 -11899364.50745  22049434.3284                   22049431.0314
 11  9 27  2 21  0.0000000  0  7G22G29G18G15G05G26G21
  19432017.90346  15170056.77042  24588778.0634                   24588775.4964
 -33453654.89948 -26049713.73746  20548865.3524                   20548862.7034
 -10986956.69347  -8548573.14545  21816670.3444                   21816667.2774
 -23211621.98448 -18067938.07346  20583266.2274                   20583264.0004
 -30580076.73346 -23807596.18144  24606592.2894                   24606589.0944
 -22382668.96347 -17421590.96245  21806577.5394                   21806575.3794
 -15420184.67347 -12004192.44545  22023834.6414                   22023831.1294
 11  9 27  2 21 30.0000000  0  7G22G29G18G15G05G26G21
  19286828.48046  15056922.22843  24561148.3594                   24561146.6884
 -33482330.04748 -26072058.02546  20543408.5084                   20543406.5164
 -11095534.56048  -8633179.21245  21796008.6254                   21796006.0944
 -23280922.21648 -18121938.23646  20570078.5234                   20570076.4264
 -30568344.40646 -23798454.11143  24608823.7504                   24608822.3164
 -22390379.27747 -17427598.99045  21805110.3914                   21805108.8634
 -15554673.27148 -12108988.71045  21998242.3444                   21998238.6994
 11  9 27  2 22  0.0000000  0  7G22G29G18G15G05G26G21
  19141784.37446  14943900.98743  24533548.0084                   24533546.6604
 -33510490.86448 -26094001.51846  20538049.7114                   20538047.8404
 -11203895.34348  -8717616.14945  21775388.2734                   21775385.3324
 -23349638.32648 -18175483.23346  20557002.8834                   20556999.8714
 -30556692.68046 -23789374.77243  24611040.7664                   24611038.8484
 -22397523.08847 -17433165.61345  21803750.8364                   21803749.0824
 -15689120.67747 -12213752.88745  21972657.7974                   21972654.2154
 11  9 27  2 22 30.0000000  0  7G22G29G18G15G05G26G21
  18996883.97846  14830991.76743  24505973.8834                   24505972.2304
 -33538139.82348 -26115546.16447  20532787.9454                   20532785.8794
 -11312041.62148  -8801885.92345  21754808.9304                   21754806.0314
 -23417771.54948 -18228574.02946  20544037.5234                   20544034.5314
 -30545123.54246 -23780359.88543  24613242.3284                   24613240.8794
 -22404104.12047 -17438293.67945  21802498.1724                   21802496.6684
 -15823527.06348 -12318485.08745  21947080.7814                   21947077.7624
 11  9 27  2 23  0.0000000  0  7G22G29G18G15G05G26G21
  18852130.59746  14718197.07643  24478427.6024                   24478427.0984
 -33565275.18648 -26136690.60847  20527624.5554                   20527622.6214
 -11419970.80948  -8885986.54745  21734270.0394                   21734267.4884
 -23485319.71248 -18281208.93546  20531183.3444                   20531180.4774
 -30533634.62646 -23771407.46543  24615428.5554                   24615426.5664
 -22410122.18647 -17442983.09845  21801353.4304                   21801351.2114
 -15957888.03347 -12423181.90246  21921512.4144                   21921510.5664
 11  9 27  2 23 30.0000000  0  7G22G29G18G15G05G26G21
  18707522.13446  14605515.28843  24450910.1644                   24450908.5164
 -33591900.25848 -26157437.43447  20522558.1094                   20522555.9224
 -11527685.82948  -8969920.29545  21713772.8134                   21713769.7854
 -23552285.03748 -18333389.69646  20518440.0474                   20518437.6564
 -30522229.06046 -23762519.95743  24617599.4694                   24617597.2814
 -22415581.71847 -17447237.26545  21800314.9694                   21800312.4384
 -16092204.17047 -12527843.77745  21895953.4224                   21895950.5634
 11  9 27  2 24  0.0000000  0  7G22G29G18G15G05G26G21
  18563060.51446  14492947.93343  24423420.6024                   24423418.8634
 -33618015.18648 -26177786.73847  20517588.7584                   20517586.2544
 -11635185.91048  -9053686.53645  21693316.2734                   21693313.4224
 -23618666.72048 -18385115.65446  20505808.2034                   20505805.6884
 -30510905.80646 -23753696.65743  24619754.4614                   24619752.0164
 -22420483.90647 -17451057.17845  21799381.7664                   21799379.2154
 -16226473.02748 -12632468.81645  21870402.5944                   21870399.6094
 11  9 27  2 24 30.0000000  0  7G22G29G18G15G05G26G21
  18418744.94046  14380494.31643  24395957.8444                   24395955.9694
 -33643622.14148 -26197740.21546  20512715.7814                   20512714.0514
 -11742472.39948  -9137286.34745  21672900.4924                   21672897.2934
 -23684465.68448 -18436387.54746  20493287.3444                   20493284.2544
 -30499666.17546 -23744938.45843  24621893.5164                   24621891.1954
 -22424832.11747 -17454445.39545  21798553.7584                   21798552.0864
 -16360693.95947 -12737056.51945  21844861.3984                   21844858.0004
 11  9 27  2 25  0.0000000  0  7G22G29G18G15G05G26G21
  18274576.01546  14268154.97343  24368523.5394                   24368521.3324
 -33668721.77148 -26217298.37946  20507939.1484                   20507936.8714
 -11849544.97548  -9220719.48845  21652524.9924                   21652522.5204
 -23749682.01448 -18487205.46046  20480876.9924                   20480874.3054
 -30488510.26046 -23736245.59743  24624016.3134                   24624013.7344
 -22428628.42247 -17457403.56345  21797831.8984                   21797830.1524
 -16494864.97648 -12841605.31546  21819329.6564                   21819326.0004
 11  9 27  2 25 30.0000000  0  7G22G29G18G15G05G26G21
  18130552.63547  14155929.11944  24341116.8444                   24341115.2664
 -33693316.85748 -26236463.38746  20503259.1414                   20503256.9614
 -11956405.99648  -9303987.77645  21632190.1884                   21632186.8094
 -23814317.35348 -18537570.63046  20468577.1954                   20468574.6644
 -30477440.11446 -23727619.49843  24626122.5314                   24626121.4924
 -22431876.77347 -17459934.74445  21797213.2114                   21797211.6804
 -16628985.71248 -12946114.95046  21793806.9844                   21793803.5234
 11  9 27  2 26  0.0000000  0  7G22G29G18G15G05G26G21
  17986675.53546  14043817.21044  24313737.3754                   24313736.5784
 -33717407.82148 -26255235.56146  20498674.8594                   20498672.8714
 -12063055.60748  -9387091.30846  21611894.9064                   21611892.1334
 -23878371.34648 -18587482.81146  20456388.0474                   20456385.2114
 -30466455.72446 -23719060.20143  24628212.3754                   24628210.8674
 -22434578.84347 -17462040.27545  21796699.1334                   21796697.4694
 -16763054.33347 -13050583.97346  21768294.4694                   21768291.3484
 11  9 27  2 26 30.0000000  0  7G22G29G18G15G05G26G21
  19418368.45546  15159422.24544  24586179.1094                   24586178.4184
 -32165576.43748 -25046016.30846  20793978.6024                   20793976.7624
 -10594071.73648  -8242428.52746  21891433.5084                   21891430.6954
 -22366423.65548 -17409341.73246  20744102.1644                   20744099.4414
 -28880138.87947 -22482969.14244  24930079.7894                   24930077.8554
 -20861318.70147 -16236123.26945  22096081.2894                   22096079.1024
 -15321646.09048 -11927408.69046  22042585.3834                   22042582.0704
 11  9 27  2 27  0.0000000  0  7G22G29G18G15G05G26G21
  19274783.19246  15047537.78544  24558856.0634                   24558854.8954
 -32188664.45548 -25064006.97546  20789584.3754                   20789582.3754
 -10700300.86048  -8325204.42646  21871218.3054                   21871215.8794
 -22429317.69348 -17458350.04446  20732133.8524                   20732131.4614
 -28869328.52346 -22474545.48043  24932136.1174                   24932133.9694
 -20862937.75547 -16237384.89345  22095773.0234                   22095770.8634
 -15455607.06847 -12031793.82646  22017093.6174                   22017089.8524
 11  9 27  2 27 30.0000000  0  6G22G29G18G15G26G21
  19131343.27346  14935766.61044  24531560.8054                   24531559.2544
 -32211254.48348 -25081609.61047  20785286.1884                   20785284.3444
 -10806321.71048  -8407818.03245  21851043.7584                   21851040.4614
 -22491633.61448 -17506907.88846  20720275.2344                   20720272.8134
 -20864020.06547 -16238228.25345  22095566.9534                   22095565.1994
 -15589512.81247 -12136135.92746  21991612.1174                   21991608.7894
 11  9 27  2 28  0.0000000  0  6G22G29G18G15G26G21
  18988048.63946  14824108.66244  24504291.4694                   24504290.4104
 -32233347.62048 -25098825.04646  20781081.8444                   20781080.0474
 -10912134.48047  -8490269.49146  21830908.1024                   21830905.5434
 -22553371.65148 -17555015.42946  20708527.0634                   20708524.3834
 -20864568.54047 -16238655.65045  22095461.7194                   22095460.0744
 -15723361.89347 -12240433.87746  21966141.8914                   21966137.9184
 11  9 27  2 28 30.0000000  0  6G22G29G18G15G26G21
  18844901.53646  14712565.67844  24477051.8594                   24477051.0394
 -32254943.04148 -25115652.65246  20776972.5634                   20776970.7384
 -11017738.07747  -8572557.96445  21810812.4694                   21810809.6884
 -22614530.27848 -17602671.47647  20696889.0634                   20696886.6484
 -20864583.24847 -16238667.11345  22095459.6174                   22095457.8164
 -15857150.72047 -12344684.87046  21940682.2894                   21940678.5594
 11  9 27  2 29  0.0000000  0  6G22G29G18G15G26G21
  18701904.58446  14601139.73244  24449839.7274                   24449838.1094
 -32276039.92448 -25132091.78846  20772957.8204                   20772956.1374
 -11123130.63847  -8654681.98446  21790756.9694                   21790753.3954
 -22675108.01848 -17649874.88546  20685361.3594                   20685358.7424
 -20864064.73147 -16238263.08745  22095558.5704                   22095555.8524
 -15990875.41947 -12448885.88846  21915235.2584                   21915231.6954
 11  9 27  2 29 30.0000000  0  6G22G29G18G15G26G21
  18559056.33746  14489829.61643  24422656.2814                   24422655.4804
 -32296642.00748 -25148145.37246  20769037.1564                   20769035.4024
 -11228314.83847  -8736643.66446  21770740.5704                   21770737.9494
 -22735107.16448 -17696627.45547  20673944.1954                   20673941.8054
 -20863017.45947 -16237447.03845  22095757.3364                   22095755.9384
 -16124536.17147 -12553037.08646  21889800.0474                   21889797.1954
 11  9 27  2 30  0.0000000  0  6G22G29G18G15G26G21
  18416351.98746  14378631.73743  24395500.9064                   24395499.5514
 -32316754.56248 -25163817.50246  20765209.9844                   20765208.2304
 -11333295.16147  -8818446.46646  21750763.8204                   21750761.3134
 -22794532.30548 -17742932.73946  20662635.6254                   20662632.8524
 -20861448.52947 -16236224.49945  22096056.1254                   22096054.2774
 -16258135.73047 -12657140.61246  21864377.4924                   21864373.9774
 11  9 27  2 30 30.0000000  0  6G22G29G18G15G26G21
  18273790.73946  14267545.29443  24368372.0164                   24368370.6024
 -32336380.44948 -25179110.40346  20761475.5394                   20761473.6414
 -11438073.83647  -8900092.14746  21730824.6644                   21730822.2344
 -22853385.68248 -17788792.49146  20651436.3984                   20651433.8054
 -20859361.86347 -16234598.53045  22096453.5944                   22096451.7624
 -16391674.13947 -12761196.47946  21838965.6804                   21838962.5904
 11  9 27  2 31  0.0000000  0  6G22G29G18G15G26G21
  18131370.73146  14156568.97143  24341269.3914                   24341267.7424
 -32355523.11848 -25194026.78946  20757832.8594                   20757830.7504
 -11542653.12647  -8981582.45246  21710924.6254                   21710920.9104
 -22911669.72948 -17834208.62046  20640345.1174                   20640341.9734
 -20856762.07447 -16232572.72945  22096948.3754                   22096946.6884
 -16525151.09647 -12865204.46846  21813565.6564                   21813562.4454
 11  9 27  2 31 30.0000000  0  6G22G29G18G15G26G21
  17989090.06246  14045701.11943  24314194.9844                   24314193.2774
 -32374186.51348 -25208569.70047  20754281.1254                   20754279.1524
 -11647035.84547  -9062919.58546  21691060.7274                   21691057.6054
 -22969387.21648 -17879183.27346  20629361.5474                   20629359.1724
 -20853654.03347 -16230150.87745  22097539.5944                   22097538.0824
 -16658567.36147 -12969165.15646  21788177.4694                   21788174.1454
 11  9 27  2 32  0.0000000  0  6G22G29G18G15G26G21
  17846949.01546  13934942.20043  24287146.2584                   24287142.1994
 -32392371.50948 -25222739.83846  20750820.4774                   20750819.0594
 -11751222.24847  -9144103.73345  21671234.8134                   21671231.7034
 -23026538.70248 -17923716.87546  20618486.1724                   20618483.5354
 -20850040.31947 -16227335.01745  22098227.5084                   22098225.5704
 -16791920.68747 -13073076.80746  21762801.3444                   21762797.8634
 11  9 27  2 32 30.0000000  0  6G22G29G18G15G26G21
  17704947.79246  13824292.07943  24260124.0474                   24260121.8874
 -32410079.97948 -25236538.65046  20747450.7894                   20747448.9804
 -11855213.20547  -9225135.60046  21651446.1644                   21651442.8164
 -23083124.93348 -17967810.03846  20607718.3054                   20607715.8244
 -20845923.71247 -16224127.26045  22099010.4144                   22099009.2934
 -16925210.04147 -13176938.60046  21737437.1884                   21737433.8984
 11  9 27  2 33  0.0000000  0  6G22G29G18G15G26G21
  17563086.32546  13713750.96543  24233128.9224                   24233126.4734
 -32427313.51148 -25249967.38846  20744171.4144                   20744169.7304
 -11959009.37447  -9306015.68746  21631693.8984                   21631690.5274
 -23139146.67448 -18011463.32946  20597057.7504                   20597055.0704
 -20841306.99147 -16220529.81945  22099889.3364                   22099887.0594
 -17058434.07548 -13280749.49246  21712085.4844                   21712081.5944
 11  9 27  2 33 30.0000000  0  6G22G29G18G15G26G21
  17421366.99947  13603320.53343  24206160.1484                   24206157.7384
 -32444071.27148 -25263025.38646  20740982.6954                   20740980.9304
 -12062609.16047  -9386742.74246  21611979.6094                   21611976.8094
 -23194602.41248 -18054675.57846  20586504.2974                   20586502.3164
 -20836190.70547 -16216543.09945  22100862.5474                   22100860.9064
 -17191588.94148 -13384506.50746  21686747.0164                   21686743.5434
 11  9 27  2 34  0.0000000  0  7G22G09G29G18G15G26G21
  17279788.39347  13492999.74143  24179218.7504                   24179214.9494
  21866825.22256  17069525.05353  24803247.0394                   24803247.9534
 -32460356.52848 -25275715.22146  20737883.6564                   20737881.7034
 -12166014.48047  -9467318.26145  21592301.9534                   21592299.1764
 -23249494.30448 -18097448.47446  20576059.5864                   20576056.2384
 -20830578.86947 -16212170.25644  22101930.3524                   22101928.8164
 -17324673.38247 -13488208.63446  21661421.7504                   21661418.4144
 11  9 27  2 34 30.0000000  0  7G22G09G29G18G15G26G21
  17138347.36647  13382786.17444  24152302.7194                   24152299.5274
  21708267.46846  16945973.62443  24773074.3284                   24773074.1954
 -32476174.13948 -25288040.62946  20734873.4064                   20734871.8164
 -12269228.85047  -9547745.01045  21572660.9304                   21572657.9024
 -23303826.57948 -18139785.30046  20565719.9844                   20565717.5044
 -20824477.85947 -16207416.22545  22103091.6954                   22103089.9494
 -17457689.67348 -13591857.65546  21636109.3054                   21636106.0234
 11  9 27  2 35  0.0000000  0  7G22G09G29G18G15G26G21
  16997042.51847  13272678.69743  24125413.8674                   24125410.1764
  21549587.76846  16822327.20443  24742878.1024                   24742878.1604
 -32491527.16048 -25300004.03246  20731952.0084                   20731950.0434
 -12372254.68748  -9628024.83345  21553055.6174                   21553052.8404
 -23357601.33148 -18181687.68446  20555487.0784                   20555484.0864
 -20817891.63447 -16202284.12444  22104345.1954                   22104342.8554
 -17590637.51447 -13695453.34746  21610810.3364                   21610806.7424
 11  9 27  2 35 30.0000000  0  7G22G09G29G18G15G26G21
  16855876.24546  13162679.20544  24098549.8594                   24098548.2424
  21390791.13846  16698589.66243  24712660.7344                   24712661.8554
 -32506415.01248 -25311604.97146  20729119.2734                   20729117.7304
 -12475090.24247  -9708156.39645  21533486.8444                   21533483.6054
 -23410817.22148 -18223154.59046  20545360.4384                   20545357.7544
 -20810821.04447 -16196774.56345  22105690.6334                   22105688.0204
 -17723512.94048 -13798992.60946  21585525.0314                   21585521.6334
 11  9 27  2 36  0.0000000  0  7G22G09G29G18G15G26G21
  16714851.77246  13052790.16144  24071714.5084                   24071711.1604
  21231883.93446  16574765.98443  24682420.8284                   24682421.1804
 -32520836.16047 -25322842.24846  20726374.6804                   20726372.5744
 -12577732.99747  -9788137.71745  21513954.9454                   21513951.4344
 -23463471.97148 -18264184.25046  20535340.3204                   20535338.0434
 -20803265.81847 -16190887.39145  22107127.1564                   22107125.7464
 -17856311.18647 -13902471.73846  21560254.1094                   21560250.9384
 11  9 27  2 36 30.0000000  0  7G22G09G29G18G15G26G21
  16573973.09346  12943014.69144  24044905.4844                   24044902.3404
  21072872.86646  16450861.33143  24652162.1724                   24652161.0704
 -32534788.51647 -25333714.23146  20723719.7974                   20723717.9384
 -12680179.69947  -9867966.25546  21494459.8444                   21494456.9144
 -23515562.67348 -18304774.39946  20525427.6954                   20525425.4924
 -20795224.75847 -16184621.65645  22108657.5944                   22108656.0824
 -17989026.54747 -14005886.26646  21534998.9614                   21534995.7304
 11  9 27  2 37  0.0000000  0  7G22G09G29G18G15G26G21
  18008665.62146  14060957.10144  24317918.7814                   24317915.6024
  22489187.23346  17554482.99642  24921677.6024                   24921677.9144
 -30972852.75147 -24116621.43846  21020946.2194                   21020944.4454
 -11207007.17147  -8720039.56546  21774794.7344                   21774791.2894
 -21991667.76048 -17117323.80046  20815415.6334                   20815413.1174
 -19211280.35547 -14950379.25444  22410072.8914                   22410071.1604
 -16546232.13147 -12881630.85046  21809553.6644                   21809550.1484
 11  9 27  2 37 30.0000000  0  7G22G09G29G18G15G26G21
  17868078.96446  13951409.13144  24291165.4064                   24291163.1914
  22329978.40546  17430424.26943  24891382.0944                   24891381.4144
 -30985872.60047 -24126766.79746  21018468.6884                   21018466.8164
 -11309063.51547  -8799563.94546  21755374.5394                   21755370.6724
 -22042632.75648 -17157036.75746  20805717.1484                   20805714.4184
 -19202275.81447 -14943362.75444  22411786.4224                   22411784.1454
 -16678775.86447 -12984911.65846  21784331.9384                   21784327.9064
 11  9 27  2 38  0.0000000  0  7G22G09G29G18G15G26G21
  17727640.93146  13841977.03644  24264441.0864                   24264438.3754
  22170677.41546  17306293.72943  24861066.5084                   24861067.1564
 -30998425.89648 -24136548.59846  21016079.9844                   21016078.1724
 -11410923.05447  -8878934.96345  21735991.3134                   21735987.8754
 -22093033.93448 -17196310.40346  20796126.1954                   20796123.5664
 -19192791.61047 -14935972.48444  22413591.1334                   22413589.0784
 -16811229.03648 -13088121.88746  21759126.6254                   21759123.5394
 11  9 27  2 38 30.0000000  0  7G22G09G29G18G15G26G21
  17587348.58546  13732658.49944  24237744.0394                   24237741.4384
  22011284.49946  17182091.55143  24830734.8594                   24830736.2814
 -31010517.66247 -24145970.77746  21013779.3134                   21013776.8164
 -11512589.25347  -8958155.33946  21716644.5394                   21716641.2234
 -22142875.16448 -17235147.69546  20786641.7344                   20786638.6954
 -19182833.58647 -14928212.99545  22415486.3674                   22415484.6684
 -16943593.07847 -13191262.66846  21733938.7664                   21733934.8204
 11  9 27  2 39  0.0000000  0  7G22G09G29G18G15G26G21
  17447204.72346  13623455.60444  24211075.7034                   24211072.9024
  21851805.27446  17057822.12943  24800388.5944                   24800386.9654
 -31022147.04447 -24155032.64046  21011565.6724                   21011563.9534
 -11614060.12247  -9037223.50146  21697335.1644                   21697332.0664
 -22192154.91248 -17273547.48146  20777263.8754                   20777261.1334
 -19172401.70747 -14920084.27845  22417471.5004                   22417469.2664
 -17075862.90247 -13294330.03646  21708768.5234                   21708764.8484
 11  9 27  2 39 30.0000000  0  7G22G09G29G18G15G26G21
  17307208.64046  13514367.84444  24184434.7344                   24184432.7074
  21692241.98846  16933487.29943  24770024.5554                   24770024.2774
 -31033316.73847 -24163736.29546  21009440.3284                   21009438.9774
 -11715337.35147  -9116140.77446  21678062.0944                   21678058.9964
 -22240875.02648 -17311511.20046  20767992.7194                   20767990.1294
 -19161499.78747 -14911589.28645  22419545.6724                   22419544.3524
 -17208037.85747 -13397323.47946  21683616.4144                   21683612.7734
 11  9 27  2 40  0.0000000  0  7G22G09G29G18G15G26G21
  17167359.68746  13405394.80244  24157823.5784                   24157818.6884
  21532597.34345  16809088.94943  24739644.6804                   24739644.7504
 -31044028.92047 -24172083.47146  21007401.7894                   21007400.1954
 -11816421.62447  -9194907.71345  21658826.7894                   21658823.8284
 -22289036.56148 -17349039.65946  20758828.1564                   20758825.1644
 -19150131.28547 -14902730.69744  22421709.0394                   22421707.8954
 -17340116.30747 -13500241.72246  21658482.7894                   21658479.2664
 11  9 27  2 40 30.0000000  0  7G22G09G29G18G15G26G21
  17027658.03646  13296536.49844  24131238.3134                   24131235.2814
  21372874.51846  16684629.69043  24709248.9774                   24709249.8164
 -31054285.56247 -24180075.67746  21005450.2664                   21005448.6414
 -11917313.61147  -9273524.78946  21639628.0554                   21639624.5234
 -22336641.02248 -17386134.02847  20749769.0474                   20749766.1804
 -19138299.27747 -14893510.96144  22423960.6174                   22423959.1134
 -17472096.61147 -13603083.49746  21633367.5944                   21633364.0864
 11  9 27  2 41  0.0000000  0  7G22G09G29G18G15G26G21
  16888103.59946  13187792.87843  24104682.1414                   24104678.1684
  21213076.35246  16560111.76443  24678840.8054                   24678841.7234
 -31064088.54647 -24187714.38346  21003584.7034                   21003582.9774
 -12018013.74347  -9351992.38146  21620464.9924                   21620461.9574
 -22383689.49648 -17422795.16646  20740816.1884                   20740813.7194
 -19126006.62847 -14883932.27744  22426299.9064                   22426297.8484
 -17603977.40547 -13705847.71946  21608271.6024                   21608268.0234
 11  9 27  2 41 30.0000000  0  7G22G09G29G18G15G26G21
  16748694.40146  13079162.41843  24078152.9224                   24078150.1954
  21053203.86846  16435535.93443  24648418.0634                   24648418.5124
 -31073441.78647 -24195002.64446  21001804.6644                   21001802.9534
 -12118525.61947  -9430313.28546  21601338.2034                   21601335.1994
 -22430185.13148 -17459025.52546  20731968.3754                   20731965.6484
 -19113258.44647 -14873998.64144  22428725.8914                   22428723.9574
 -17735758.82047 -13808534.50546  21583194.4694                   21583190.6604
 11  9 27  2 42  0.0000000  0  7G22G09G29G18G15G26G21
  16609432.40847  12970646.72043  24051651.8914                   24051648.8714
  20893262.08146  16310906.12543  24617982.4064                   24617982.6684
 -31082344.90748 -24201940.16146  21000110.7274                   21000109.4454
 -12218847.55147  -9508486.18046  21582247.8914                   21582244.4064
 -22476127.00048 -17494824.37346  20723225.7114                   20723223.1884
 -19100055.54747 -14863710.69844  22431238.2504                   22431236.2734
 -17867436.72047 -13911140.62546  21558136.6094                   21558133.2544
 11  9 27  2 42 30.0000000  0  7G22G09G29G18G15G26G21
  16470313.82846  12862242.80043  24025178.4144                   24025174.5354
  20733250.62446  16186222.02243  24587532.8594                   24587533.4344
 -31090803.60848 -24208531.36546  20998501.3364                   20998499.0744
 -12318983.91647  -9586514.48146  21563192.6804                   21563189.0514
 -22521520.31148 -17530195.78846  20714587.6094                   20714584.7424
 -19086405.03047 -14853073.92744  22433836.3134                   22433833.8754
 -17999013.23447 -14013667.75446  21533098.4774                   21533094.5864
 11  9 27  2 43  0.0000000  0  7G22G09G29G18G15G26G21
  16331340.85347  12753952.21743  23998734.0394                   23998729.6174
  20573174.73746  16061487.64343  24557072.5864                   24557071.6954
 -31098818.13248 -24214776.48146  20996976.0554                   20996974.1954
 -12418932.84547  -9664396.72846  21544172.5394                   21544169.8524
 -22566364.08548 -17565138.97546  20706054.1484                   20706051.7114
 -19072307.28347 -14842088.66944  22436519.2114                   22436516.6844
 -18130484.00748 -14116112.47946  21508080.0634                   21508077.0354
 11  9 27  2 43 30.0000000  0  7G22G09G29G18G15G26G21
  16192513.61547  12645775.30344  23972314.8444                   23972311.5904
  20413037.41246  15936705.48243  24526598.8364                   24526599.1844
 -31106389.99748 -24220676.64846  20995535.0164                   20995533.2074
 -12518694.84547  -9742133.32446  21525188.8284                   21525185.7504
 -22610659.12548 -17599654.57446  20697625.2274                   20697622.5824
 -19057765.33047 -14830757.30844  22439285.6174                   22439283.8554
 -18261847.86748 -14218473.90546  21483082.7974                   21483078.9494
 11  9 27  2 44  0.0000000  0  8G22G09G29G06G18G15G26G21
  16053830.62547  12537710.78743  23945924.5314                   23945920.3634
  20252840.71746  15811877.00643  24496114.4304                   24496113.7584
 -31113522.74148 -24226234.65346  20994177.7194                   20994176.0354
  23441197.15956  18296554.59553  24789804.4304                   24789802.6294
 -12618272.29448  -9819726.10746  21506239.8594                   21506237.1294
 -22654408.21148 -17633744.76346  20689300.1644                   20689297.5704
 -19042783.51946 -14819083.16544  22442136.1094                   22442134.2274
 -18393104.13547 -14320751.48146  21458105.2734                   21458101.7704
 11  9 27  2 44 30.0000000  0  8G22G09G29G06G18G15G26G21
  15915288.85047  12429756.28444  23919561.0164                   23919557.1724
  20092584.57945  15687002.17643  24465618.5864                   24465618.7504
 -31120221.43048 -24231454.42246  20992903.5474                   20992901.7154
  23282101.02246  18172583.66943  24759528.8594                   24759527.1374
 -12717668.35248  -9897177.53946  21487325.3594                   21487321.8054
 -22697615.73948 -17667412.97346  20681078.0234                   20681075.8204
 -19027368.13546 -14807071.15744  22445069.9224                   22445068.2814
 -18524253.39747 -14422945.67446  21433148.5474                   21433144.7664
 11  9 27  2 45  0.0000000  0  8G22G09G29G06G18G15G26G21
  15776885.34047  12321909.45344  23893222.7974                   23893220.3984
  19932268.89046  15562081.00243  24435111.1024                   24435110.4224
 -31126490.57348 -24236339.48646  20991709.9384                   20991708.2974
  23123242.58946  18048797.97443  24729298.5944                   24729297.7814
 -12816887.80847  -9974491.36946  21468444.1884                   21468440.8364
 -22740286.47147 -17700662.88846  20672958.0314                   20672955.4184
 -19011525.38246 -14794726.19044  22448085.1884                   22448082.7304
 -18655297.75947 -14525058.13946  21408211.6724                   21408207.9304
 11  9 27  2 45 30.0000000  0  8G22G09G29G06G18G15G26G21
  15638622.18947  12214172.12344  23866912.8914                   23866908.6094
  19771899.42946  15437117.88443  24404593.3524                   24404593.2734
 -31132330.28548 -24240889.93646  20990598.7814                   20990596.9184
  22964626.84946  17925201.51243  24699115.1884                   24699115.1724
 -12915928.19148 -10051665.65746  21449597.2114                   21449594.5004
 -22782418.64247 -17733493.13746  20664940.7114                   20664937.4224
 -18995255.67946 -14782048.50244  22451181.0474                   22451179.1174
 -18786232.11547 -14627084.87746  21383295.8914                   21383292.4844
 11  9 27  2 46  0.0000000  0  8G22G09G29G06G18G15G26G21
  15500503.98247  12106547.63244  23840629.8754                   23840626.4064
  19611483.97046  15312118.96143  24374067.9224                   24374067.4774
 -31137738.13148 -24245103.86146  20989570.0634                   20989568.4804
  22806260.80146  17801799.45443  24668979.2974                   24668978.0474
 -13014785.83948 -10128697.58046  21430785.7424                   21430782.7814
 -22824009.25547 -17765901.39946  20657026.3204                   20657023.1524
 -18978557.55647 -14769036.96344  22454358.1174                   22454356.3594
 -18917050.86248 -14729021.53646  21358401.4924                   21358398.1484
 11  9 27  2 46 30.0000000  0  8G22G09G29G06G18G15G26G21
  15362532.90647  11999037.83544  23814374.9144                   23814370.9184
  19451027.79045  15187088.27243  24343533.5084                   24343533.2974
 -31142713.71048 -24248980.94846  20988623.3204                   20988620.9534
  22648148.93246  17678595.50943  24638891.4224                   24638890.8404
 -13113458.95047 -10205585.67046  21412008.6254                   21412005.4734
 -22865057.48148 -17797887.01846  20649214.6254                   20649211.9144
 -18961431.97946 -14755692.34044  22457617.8914                   22457615.4774
 -19047749.43048 -14830864.54646  21333531.0004                   21333526.8134
 11  9 27  2 47  0.0000000  0  8G22G09G29G06G18G15G26G21
  15224710.35147  11891643.76744  23788147.0944                   23788144.5594
  19290535.62846  15062029.53843  24312992.9454                   24312992.7344
 -31147257.68648 -24252521.71246  20987758.1024                   20987756.6024
  22490295.30746  17555592.84143  24608851.6564                   24608851.7274
 -13211946.49048 -10282329.18246  21393267.0704                   21393263.7774
 -22905563.35148 -17829450.02046  20641506.9304                   20641504.1884
 -18943880.54346 -14742015.89744  22460957.4614                   22460955.6914
 -19178324.33548 -14932611.19746  21308683.0474                   21308679.3714
 11  9 27  2 47 30.0000000  0  8G22G09G29G06G18G15G26G21
  15087035.85847  11784365.07144  23761948.8204                   23761944.9884
  19130010.19846  14936944.90443  24282445.9064                   24282446.2814
 -31151372.54448 -24255728.13246  20986975.3914                   20986973.4184
  22332701.84146  17432792.78643  24578863.6564                   24578862.1884
 -13310249.88947 -10358929.20346  21374560.7274                   21374556.8094
 -22945528.24747 -17860591.48146  20633901.5394                   20633899.0124
 -18925906.51346 -14728010.14944  22464377.7114                   22464375.5744
 -19308774.31348 -15034260.52646  21283859.1884                   21283855.2114
 11  9 27  2 48  0.0000000  0  8G22G09G29G06G18G15G26G21
  16524936.00147  12904806.88144  24035572.3134                   24035568.3874
  20544882.20646  16039442.68643  24551687.1334                   24551686.6524
 -29579638.21348 -23031000.10446  21286066.8834                   21286064.7894
  23750798.25546  18537803.11043  24848717.9844                   24848716.9224
 -11832944.33747  -9207781.97846  21655682.3444                   21655679.1844
 -21409530.66047 -16663710.23346  20926192.3054                   20926189.4454
 -17332091.86746 -13486076.65344  22767670.3754                   22767668.9344
 -17863670.77248 -13908205.79146  21558853.1174                   21558849.5824
 11  9 27  2 48 30.0000000  0  8G22G09G29G06G18G15G26G21
  16387559.76547  12797760.57844  24009430.2194                   24009426.9924
  20384302.37946  15914315.64043  24521130.2344                   24521128.8674
 -29582898.79548 -23033540.83446  21285446.2344                   21285443.5634
  23593734.62946  18415415.97743  24818830.8984                   24818828.9344
 -11930879.23847  -9284094.85846  21637045.6804                   21637042.7194
 -21448416.47147 -16694010.86046  20918792.6954                   20918789.6564
 -17313279.86846 -13471417.95344  22771250.2814                   22771248.6954
 -17993862.86947 -14009654.15146  21534078.2894                   21534074.9494
 11  9 27  2 49  0.0000000  0  8G22G09G29G06G18G15G26G21
  16250331.38947  12690829.49544  23983316.6884                   23983313.1454
  20223698.74046  15789170.06543  24490567.4844                   24490567.0554
 -29585736.98148 -23035752.43346  21284905.9224                   21284904.0004
  23436938.17345  18293237.05142  24788992.4694                   24788991.2154
 -12028632.30248  -9360266.05546  21618444.1564                   21618440.6644
 -21486766.27548 -16723893.82546  20911494.6644                   20911492.3594
 -17294055.08147 -13456437.58245  22774908.9384                   22774906.8444
 -18123924.63048 -14111000.95546  21509328.5944                   21509325.1484
 11  9 27  2 49 30.0000000  0  8G22G09G29G06G18G15G26G21
  16113251.33046  12584014.01144  23957230.5234                   23957226.9734
  20063075.43746  15664009.18943  24460001.5704                   24460001.0664
 -29588153.71748 -23037635.62446  21284446.0234                   21284444.5824
  23280412.23745  18171268.90642  24759206.9384                   24759204.6254
 -12126202.98948  -9436295.12846  21599877.2194                   21599873.8244
 -21524580.19348 -16753359.21246  20904298.6414                   20904296.1884
 -17274419.56347 -13441137.16944  22778645.5394                   22778643.3204
 -18253852.95448 -14212243.79146  21484603.8134                   21484600.1254
 11  9 27  2 50  0.0000000  0  8G22G09G29G06G18G15G26G21
  15976319.53446  12477314.03044  23931172.7894                   23931169.7234
  19902435.40846  15538835.22643  24429433.3524                   24429433.0434
 -29590151.22248 -23039192.14446  21284066.1414                   21284064.2464
  23124159.08445  18049513.27043  24729472.9534                   24729471.4344
 -12223592.30648  -9512182.87546  21581344.5314                   21581341.5164
 -21561860.28748 -16782408.62946  20897204.7194                   20897202.2344
 -17254376.55747 -13425519.21644  22782459.5394                   22782457.5164
 -18383646.14148 -14313381.32846  21459905.1884                   21459901.3324
 11  9 27  2 50 30.0000000  0  8G22G09G29G06G18G15G26G21
  15839534.59647  12370728.49744  23905144.1024                   23905140.9774
  19741780.72746  15413649.83643  24398861.6954                   24398860.7734
 -29591733.08548 -23040424.79046  21283765.3204                   21283763.0704
  22968179.60346  17927970.92043  24699791.1334                   24699789.1994
 -12320802.33448  -9587930.91746  21562846.2584                   21562842.7464
 -21598609.33248 -16811044.24946  20890211.8444                   20890209.0004
 -17233930.68047 -13409587.35544  22786350.0944                   22786348.1024
 -18513303.56348 -14414413.07346  21435232.1254                   21435228.0474
 11  9 27  2 51  0.0000000  0  8G22G09G29G06G18G15G26G21
  15702897.19247  12264257.94344  23879142.1954                   23879139.6764
  19581115.62346  15288456.34643  24368287.5164                   24368288.6374
 -29592900.88048 -23041334.77546  21283542.8204                   21283540.8284
  22812477.37146  17806644.62343  24670161.6564                   24670160.9734
 -12417832.41047  -9663538.74046  21544381.7344                   21544377.9414
 -21634827.93648 -16839266.53346  20883319.5944                   20883317.0274
 -17213083.59346 -13393342.84744  22790317.1174                   22790315.8054
 -18642822.47948 -14515336.89246  21410585.4614                   21410581.9144
 11  9 27  2 51 30.0000000  0  8G22G09G29G06G18G15G26G21
  15566404.76647  12157900.34444  23853168.2114                   23853164.7424
  19420440.39946  15163255.01544  24337712.2894                   24337713.0864
 -29593659.25748 -23041925.73446  21283398.5394                   21283396.5164
  22657051.69146  17685533.80643  24640585.5704                   24640583.6804
 -12514686.45247  -9739009.39346  21525951.1644                   21525947.6684
 -21670520.31348 -16867078.76446  20876527.6484                   20876524.8204
 -17191841.91246 -13376790.86744  22794359.3594                   22794356.7774
 -18772203.57948 -14616153.32046  21385964.9694                   21385961.5354
 11  9 27  2 52  0.0000000  0  8G22G09G29G06G18G15G26G21
  15430058.20847  12051656.35644  23827223.5634                   23827218.6094
  19259759.64946  15038049.33743  24307135.1254                   24307135.3134
 -29594009.43648 -23042198.62946  21283331.8444                   21283329.9344
  22501906.41646  17564641.51843  24611061.0784                   24611060.6844
 -12611363.55747  -9814342.17746  21507553.9384                   21507550.3794
 -21705686.86848 -16894481.28646  20869835.8674                   20869832.8244
 -17170207.00246 -13359932.46044  22798476.5314                   22798473.9144
 -18901443.74348 -14716859.92646  21361371.5394                   21361367.8554
 11  9 27  2 52 30.0000000  0  8G22G09G29G06G18G15G26G21
  15293856.54847  11945525.29544  23801304.9304                   23801301.0124
  19099075.96446  14912841.39444  24276558.7344                   24276558.0474
 -29593954.00648 -23042155.45346  21283342.1334                   21283340.3754
  22347043.03546  17443968.82443  24581591.4064                   24581590.7344
 -12707865.23848  -9889538.25446  21489190.3284                   21489186.9884
 -21740329.95848 -16921475.88646  20863243.0704                   20863240.2934
 -17148182.90646 -13342770.80744  22802667.0704                   22802664.8014
 -19030541.60048 -14817455.64846  21336805.0474                   21336801.4574
 11  9 27  2 53  0.0000000  0  8G22G09G29G06G18G15G26G21
  15157798.87247  11839506.44044  23775413.8914                   23775409.7114
  18938391.61446  14787632.88844  24245981.0394                   24245980.6994
 -29593496.32548 -23041798.84046  21283429.5944                   21283427.6024
  22192463.09146  17323517.03043  24552176.7344                   24552175.0474
 -12804193.09648  -9964598.87746  21470859.9614                   21470856.1724
 -21774451.97648 -16948064.47146  20856750.0314                   20856746.9654
 -17125773.69146 -13325309.06344  22806931.2344                   22806929.4494
 -19159496.31948 -14917939.83846  21312265.3984                   21312261.4844
 11  9 27  2 53 30.0000000  0  8G22G09G29G06G18G15G26G21
  15021884.65247  11733599.36544  23749550.3364                   23749546.0944
  18777709.30346  14662426.04544  24215404.1954                   24215403.5434
 -29592639.12548 -23041130.90146  21283592.4614                   21283590.6524
  22038168.31346  17203287.38843  24522814.5314                   24522813.5394
 -12900348.41448 -10039525.07846  21452561.7664                   21452558.8524
 -21808055.44348 -16974248.98946  20850355.7664                   20850352.8364
 -17102983.22046 -13307550.21744  22811268.0944                   22811266.5434
 -19288306.04948 -15018311.03746  21287753.8364                   21287750.0944
 11  9 27  2 54  0.0000000  0  8G22G09G29G06G18G15G26G21
  14886113.30847  11627803.62544  23723713.3204                   23723709.4614
  18617032.26046  14537223.30144  24184827.5634                   24184828.7194
 -29591385.32048 -23040153.94146  21283831.3984                   21283829.4654
  21884160.82646  17083281.67543  24493507.4454                   24493506.6914
 -12996331.99548 -10114317.45046  21434297.0634                   21434293.8134
 -21841142.24048 -17000030.90546  20844059.3444                   20844056.7464
 -17079814.75346 -13289496.79044  22815677.5164                   22815675.2114
 -19416969.44448 -15118568.22846  21263270.1024                   21263266.6454
 11  9 27  2 54 30.0000000  0  8G22G09G29G06G18G15G26G21
  14750485.05547  11522119.36144  23697904.2344                   23697900.0664
  18456364.04646  14412027.34543  24154254.6644                   24154253.5824
 -29589736.53048 -23038869.18946  21284145.1564                   21284143.6024
  21730443.32746  16963501.88744  24464256.9924                   24464255.7934
 -13092143.97648 -10188976.09646  21416064.4614                   21416061.1484
 -21873713.53448 -17025411.13946  20837861.2894                   20837858.2814
 -17056271.30347 -13271151.23544  22820157.6174                   22820155.3714
 -19545483.94048 -15218709.37646  21238814.6024                   21238810.6884
 11  9 27  2 55  0.0000000  0  8G22G09G29G06G18G15G26G21
  14614998.15847  11416545.24844  23672121.6644                   23672117.9804
  18295706.33146  14286839.66343  24123681.6334                   24123680.1564
 -29587696.65248 -23037279.70346  21284533.3054                   21284531.7304
  21577016.55246  16843948.64743  24435060.7584                   24435059.4774
 -13187787.01148 -10263503.12146  21397864.0784                   21397861.1094
 -21905772.83348 -17050392.40446  20831760.6094                   20831758.2114
 -17032357.34647 -13252516.92544  22824708.2344                   22824706.0514
 -19673849.66748 -15318734.60046  21214387.3914                   21214383.7584
 11  9 27  2 55 30.0000000  0  8G22G09G29G06G18G15G26G21
  14479653.06347  11311081.62144  23646366.0164                   23646361.5044
  18135062.86846  14161663.03543  24093111.8914                   24093111.6604
 -29585267.44348 -23035386.84246  21284995.7734                   21284993.7774
  21423883.15146  16724624.04143  24405920.4774                   24405918.8404
 -13283261.26048 -10337898.59446  21379696.0784                   21379692.4534
 -21937321.15848 -17074975.52146  20825757.1024                   20825754.2704
 -17008075.65947 -13233596.09544  22829328.6644                   22829327.1914
 -19802063.93648 -15418641.80946  21189989.1564                   21189985.1994
 11  9 27  2 56  0.0000000  0  8G22G09G29G06G18G15G26G21
  14344449.26447  11205728.12244  23620638.0474                   23620634.0824
  17974436.84446  14036500.00143  24062545.2274                   24062544.2194
 -29582451.61048 -23033192.71246  21285531.3834                   21285529.5204
  21271045.51846  16605529.91643  24376835.9454                   24376835.4184
 -13378567.78848 -10412163.38746  21361560.0944                   21361556.2424
 -21968360.29048 -17099161.85046  20819850.6334                   20819848.1334
 -16983429.70947 -13214391.43344  22834019.1884                   22834016.6294
 -19930124.81548 -15518429.48446  21165619.8284                   21165615.9964
 11  9 27  2 56 30.0000000  0  8G22G09G29G06G18G15G26G21
  14209385.67647  11100483.84544  23594935.7894                   23594932.1294
  17813830.55246  13911352.34943  24031983.3444                   24031983.4694
 -29579252.36548 -23030699.80846  21286140.0704                   21286138.5824
  21118504.63046  16486666.93843  24347807.9384                   24347807.1484
 -13473708.08048 -10486298.65646  21343455.2664                   21343451.7234
 -21998893.23348 -17122953.74546  20814040.3524                   20814037.5274
 -16958423.86647 -13194906.30444  22838776.9384                   22838774.9304
 -20058031.19348 -15618096.77246  21141280.3364                   21141276.1374
 11  9 27  2 57  0.0000000  0  8G22G09G29G06G18G15G26G21
  14074462.78047  10995349.20544  23569261.2424                   23569257.4574
  17653248.17746  13786223.35344  24001425.4774                   24001425.0084
 -29575671.35248 -23027909.44046  21286821.7274                   21286820.1094
  20966263.89046  16368037.78843  24318838.2424                   24318836.3954
 -13568681.92548 -10560304.22746  21325382.5084                   21325378.6954
 -22028921.02048 -17146352.02846  20808325.9774                   20808323.1844
 -16933060.30346 -13175142.47644  22843603.2114                   22843601.5164
 -20185780.19348 -15717641.42846  21116970.1174                   21116966.9454
 11  9 27  2 57 30.0000000  0  8G22G09G29G06G18G15G26G21
  13939677.75446  10890322.01544  23543611.7894                   23543608.4454
  17492689.80346  13661113.00243  23970871.4774                   23970870.5904
 -29571713.87748 -23024825.70846  21287574.6484                   21287573.3954
  20814322.41746  16249642.06043  24289923.4064                   24289921.4774
 -13663493.15048 -10634183.07946  21307340.4924                   21307337.0394
 -22058448.39348 -17169360.36546  20802707.3754                   20802704.6914
 -16907345.05247 -13155104.58444  22848496.9774                   22848494.7584
 -20313373.19648 -15817064.53246  21092690.2814                   21092686.3914
 11  9 27  2 58  0.0000000  0  8G22G09G29G06G18G15G26G21
  13805031.29247  10785402.79144  23517989.9224                   23517986.0124
  17332160.38547  13536025.26344  23940324.4774                   23940324.3794
 -29567380.74748 -23021449.26046  21288398.7504                   21288397.6214
  20662684.22646  16131482.46443  24261066.8594                   24261066.6524
 -13758140.61248 -10707934.32146  21289329.5394                   21289325.9964
 -22087475.54948 -17191978.92446  20797183.5004                   20797180.6954
 -16881280.17547 -13134794.25144  22853456.6174                   22853455.1844
 -20440806.44648 -15916363.14146  21068440.4924                   21068437.0984
 11  9 27  2 58 30.0000000  0  8G22G09G29G06G18G15G26G21
  15245947.90347  11908195.05044  23792186.5004                   23792182.9104
  18747088.38146  14638566.69143  24209576.1414                   24209575.2704
 -27987254.80348 -21790182.31546  21589087.4144                   21589085.5944
  22086776.22446  17241164.61443  24532063.6884                   24532062.3954
 -12277202.44448  -9553956.49246  21571142.3284                   21571138.9574
 -20540583.66548 -15986608.60446  21091547.1484                   21091544.2894
 -15279449.64646 -11886614.60844  23158274.9064                   23158272.9064
 -18992653.96448 -14787932.61246  21344014.7584                   21344010.5204
 11  9 27  2 59  0.0000000  0  8G22G09G29G06G18G15G26G21
  15111577.49446  11803490.89544  23766616.9454                   23766613.0704
  18586625.84147  14513530.99744  24179041.2344                   24179039.9414
 -27982179.17248 -21786227.29346  21590053.1414   21590051.5474   21935750.03346
  17123481.92243                  24503324.3914                   24503323.7704
 -12371526.12548  -9627455.44046  21553193.5554                   21553189.6024
 -20568617.30948 -16008452.99046  21086212.9844                   21086209.8594
 -15252695.85546 -11865767.48944  23163366.0234                   23163364.3914
 -19119762.87248 -14886978.48046  21319826.3674                   21319822.7424
 11  9 27  2 59 30.0000000  0  8G22G09G29G06G18G15G26G21
  14977346.37847  11698895.30044  23741073.3444                   23741070.1564
  18426203.10747  14388526.34144  24148514.5084                   24148512.8714
 -27976734.22448 -21781984.50146  21591089.6024   21591087.7464   21785034.54146
  17006041.36743                  24474644.3594                   24474642.1764
 -12465687.73348  -9700828.10146  21535274.6334                   21535271.7274
 -20596155.32948 -16029911.18846  21080972.4454                   21080969.5634
 -15225600.98846 -11844654.59644  23168522.2194                   23168519.3364
 -19246704.68548 -14985894.15046  21295669.8914                   21295666.8954
 11  9 27  3  0  0.0000000  0  8G22G09G29G06G18G15G26G21
  14843252.78747  11594406.87644  23715556.8594                   23715553.5514
  18265822.09547  14263554.23743  24117993.8834                   24117993.4844
 -27970923.55448 -21777456.74246  21592194.9774   21592193.5554   21634630.58046
  16888843.56843                  24446022.0474                   24446021.1484
 -12559689.10348  -9774075.89646  21517387.6884                   21517383.5514
 -20623201.20648 -16050985.88946  21075825.9774                   21075822.8244
 -15198169.90046 -11823279.69944  23173741.9534                   23173740.3794
 -19373479.36548 -15084679.59046  21271545.9774                   21271542.7624
 11  9 27  3  0 30.0000000  0  8G22G09G29G06G18G15G26G21
  14709295.85647  11490024.95644  23690065.4694                   23690061.8554
  18105485.52146  14138616.71243  24087482.7974                   24087482.5474
 -27964751.02448 -21772646.99846  21593369.8204   21593368.3594   21484539.73146
  16771889.68443                  24417461.2664                   24417460.7894
 -12653531.66948  -9847199.95246  21499529.1254                   21499525.9454
 -20649757.63848 -16071679.19446  21070772.3754                   21070769.6094
 -15170406.29646 -11801645.72944  23179024.6724                   23179022.9224
 -19500085.48448 -15183333.68146  21247453.8134                   21247450.0514
 11  9 27  3  1  0.0000000  0  8G22G09G29G06G18G15G26G21
  14575474.58547  11385748.73044  23664600.1644                   23664595.3524
  17945195.80747  14013715.74344  24056980.7584                   24056980.7384
 -27958219.68548 -21767557.66646  21594612.1334   21594610.4924   21334763.47146
  16655180.95543                  24388960.1414                   24388959.0084
 -12747216.93648  -9920201.44446  21481701.6564                   21481697.7854
 -20675827.35748 -16091993.25746  21065811.5084                   21065808.0554
 -15142314.28646 -11779755.80144  23184370.8284                   23184369.3134
 -19626521.65148 -15281855.34246  21223393.6884                   21223389.2074
 11  9 27  3  1 30.0000000  0  8G22G09G29G06G18G15G26G21
  14441789.95247  11281578.97744  23639160.3524                   23639156.1454
  17784957.88746  13888855.13243  24026487.7114                   24026487.7074
 -27951330.44348 -21762189.46046  21595923.6804   21595921.8954   21185305.50647
  16538720.30543                  24360519.1884                   24360517.8554
 -12840744.05248  -9993079.68646  21463903.6254                   21463900.4144
 -20701410.86048 -16111928.44146  21060943.1484                   21060940.1484
 -15113895.64946 -11757611.41143  23189778.6024                   23189776.4264
 -19752784.51548 -15380241.97746  21199366.6414                   21199362.9654
 11  9 27  3  2  0.0000000  0  8G22G09G29G06G18G15G26G21
  14308240.01047  11177514.17044  23613746.8364                   23613742.5314
  17624773.53247  13764036.26844  23996006.6094                   23996005.4414
 -27944087.76148 -21756545.82746  21597301.9064   21597300.2624   21036166.13846
  16422507.87443                  24332139.2194                   24332137.4884
 -12934115.87048 -10065836.91546  21446136.0554                   21446132.5744
 -20726512.01148 -16131487.76846  21056166.7114                   21056163.4264
 -15085155.54347 -11735216.48644  23195248.0474                   23195245.1414
 -19878873.95948 -15478493.45546  21175372.2734                   21175368.6684
 11  9 27  3  2 30.0000000  0  8G22G09G29G06G18G15G26G21
  14174824.90347  11073554.43144  23588358.7034                   23588353.8484
  17464646.28246  13639261.84144  23965535.1334                   23965533.8634
 -27936493.44248 -21750628.20446  21598747.2274   21598745.3244   20887348.18347
  16306545.90644                  24303819.9144                   24303818.6414
 -13027332.35248 -10138473.11346  21428397.6414                   21428394.2424
 -20751132.02648 -16150672.17946  21051480.9924                   21051478.0084
 -15056096.49247 -11712573.11143  23200777.7424                   23200775.0784
 -20004787.19148 -15576607.64546  21151411.8054                   21151407.9064
 11  9 27  3  3  0.0000000  0  8G22G09G29G06G18G15G26G21
  14041545.18147  10969700.15544  23562995.6174                   23562991.4774
  17304580.00746  13514534.96644  23935075.3284                   23935074.9884
 -27928549.53848 -21744438.17946  21600258.5554   21600256.7894   20738854.21646
  16190836.42543                  24275561.4694                   24275561.2504
 -13120393.77548 -10210988.49646  21410687.8984                   21410684.8524
 -20775272.57848 -16169482.97646  21046887.7894                   21046885.0634
 -15026721.27147 -11689683.31544  23206367.8914                   23206365.5354
 -20130521.76348 -15674582.61846  21127485.2734                   21127481.2894
 11  9 27  3  3 30.0000000  0  8G22G09G29G06G18G15G26G21
  13908400.11347  10865950.83044  23537659.9304                   23537654.8054
  17144578.15246  13389858.26644  23904627.4224                   23904627.6804
 -27920258.79247 -21737977.88846  21601836.4924   21601834.9024   20590686.26746
  16075380.94944                  24247366.4924                   24247364.7154
 -13213301.19948 -10283383.86046  21393008.5234                   21393004.9924
 -20798935.78548 -16187921.83446  21042384.5394                   21042381.6884
 -14997033.47347 -11666549.92844  23212017.1954                   23212014.6294
 -20256075.98948 -15772417.05146  21103593.3444                   21103589.8444
 11  9 27  3  4  0.0000000  0  8G22G09G29G06G18G15G26G21
  13775390.40447  10762306.94444  23512348.2344                   23512343.2774
  16984644.88246  13265235.06944  23874193.6484                   23874193.8284
 -27911622.96547 -21731248.70146  21603479.6414   21603478.5594   20442847.44146
  15960181.89544                  24219234.0554                   24219232.5594
 -13306054.02748 -10355658.77646  21375358.7344                   21375354.5904
 -20822122.77148 -16205989.59346  21037972.1254                   21037969.2234
 -14967035.23547 -11643174.64943  23217725.8444                   23217723.8324
 -20381446.42448 -15870108.27646  21079735.8914                   21079732.1994
 11  9 27  3  4 30.0000000  0  8G22G09G29G06G18G15G26G21
  13642512.95447  10658766.17344  23487062.2504                   23487058.3444
  16824780.53446  13140665.55344  23843772.3364                   23843771.4304
 -27902647.44447 -21724254.80946  21605187.9614   21605185.7584   20295336.99446
  15845238.83643                  24191164.3054                   24191162.1684
 -13398656.15248 -10427816.25646  21357736.7194                   21357733.4694
 -20844838.81448 -16223690.39246  21033649.5004                   21033646.6764
 -14936732.87847 -11619562.41343  23223491.8834                   23223489.7074
 -20506634.17548 -15967657.15746  21055913.8204                   21055909.7584
 11  9 27  3  5  0.0000000  0  8G22G09G29G06G18G15G26G21
  13509769.38347  10555329.66244  23461802.2424                   23461796.7114
  16664990.69747  13016154.08144  23813365.2894                   23813364.4844
 -27893332.80947 -21716996.69546  21606960.1884   21606958.6524   20148158.98846
  15730554.75043                  24163156.8524                   24163155.5274
 -13491106.13348 -10499855.18446  21340143.9384                   21340140.6214
 -20867083.83248 -16241024.15746  21029416.1484                   21029413.6094
 -14906127.49947 -11595714.01843  23229316.2194                   23229313.2304
 -20631635.35548 -16065060.64746  21032126.7974                   21032122.2384
 11  9 27  3  5 30.0000000  0  8G22G09G29G06G18G15G26G21
  13377157.94347  10451996.16344  23436567.0394                   23436562.4654
  16505276.97147  12891701.89044  23782973.2194                   23782971.5824
 -27883683.14448 -21709477.49746  21608796.6804   21608795.2304   20001314.08446
  15616130.16043                  24135213.6094                   24135211.2774
 -13583406.42248 -10571777.47346  21322580.1414                   21322576.7274
 -20888861.16648 -16257993.49546  21025272.1484                   21025268.6954
 -14875224.10147 -11571633.45043  23235196.5084                   23235194.0864
 -20756449.26948 -16162318.22546  21008375.5784                   21008371.4734
 11  9 27  3  6  0.0000000  0  8G22G09G29G06G18G15G26G21
  13244679.78647  10348766.50444  23411357.5084                   23411352.7384
  16345644.71547  12767313.21544  23752595.9144                   23752594.8014
 -27873699.41847 -21701698.00646  21610696.5634   21610694.8794   19854805.93646
  15501968.04243                  24107332.8134                   24107331.4614
 -13675555.90648 -10643582.23646  21305044.3204                   21305040.9144
 -20910171.38148 -16274598.83946  21021216.9304                   21021214.2974
 -14844024.26446 -11547321.93343  23241133.6484                   23241131.0394
 -20881072.33548 -16259427.08346  20984660.6644                   20984656.0864
 11  9 27  3  6 30.0000000  0  8G22G09G29G06G18G15G26G21
  13112333.21646  10245639.34344  23386171.5554                   23386168.1804
  16186095.56147  12642989.26944  23722234.7504                   23722234.0234
 -27863385.95447 -21693661.57246  21612659.1254   21612657.5824   19708635.07546
  15388068.74743                  24079518.2814                   24079516.2624
 -13767557.24648 -10715271.56946  21287537.3364                   21287533.3874
 -20931018.47148 -16290843.32446  21017250.2274                   21017247.5274
 -14812532.91346 -11522783.17243  23247126.4454                   23247124.1134
 -21005504.11448 -16356386.89646  20960982.0394                   20960977.6804
 11  9 27  3  7  0.0000000  0  8G22G09G29G06G18G15G26G21
  12980116.97347  10142613.72944  23361012.0394                   23361008.7194
  16026632.19747  12518732.15444  23691889.7034                   23691889.5434
 -27852746.06647 -21685370.78446  21614683.8524   21614682.1484   19562802.95846
  15274433.39743                  24051766.9774                   24051764.8984
 -13859411.80048 -10786846.52146  21270057.6644                   21270053.6804
 -20951405.11048 -16306728.99746  21013370.3364                   21013367.6994
 -14780753.78146 -11498020.22443  23253173.6804                   23253171.3484
 -21129743.11148 -16453196.47346  20937340.0394                   20937335.7814
 11  9 27  3  7 30.0000000  0  8G22G09G29G06G18G15G26G21
  12848031.02347  10039689.65144  23335877.9844                   23335873.6954
  15867257.87647  12394544.47544  23661561.6804                   23661561.3284
 -27841782.06947 -21676827.44546  21616770.1174   21616768.9574   19417311.75246
  15161063.66443                  24024080.6094                   24024078.9224
 -13951119.71748 -10858307.22346  21252606.6174                   21252602.6054
 -20971333.22448 -16322257.38646  21009578.1414                   21009575.3754
 -14748690.05246 -11473035.48443  23259275.1884                   23259272.3914
 -21253787.17748 -16549854.17946  20913735.0944                   20913731.3954
 11  9 27  3  8  0.0000000  0  8G22G09G29G06G18G15G26G21
  12716074.42047   9936866.37844  23310767.1564                   23310762.0554
  15707975.34647  12270428.29744  23631251.3284                   23631249.9804
 -27830497.29947 -21668034.15046  21618917.8674   21618916.2424   19272162.99346
  15047960.77543                  23996459.8674                   23996458.2814
 -14042682.50548 -10929654.81446  21235182.3754                   21235178.9964
 -20990805.96548 -16337430.94746  21005872.7734                   21005869.8874
 -14716345.62846 -11447832.04543  23265429.8524                   23265427.5594
 -21377634.67848 -16646358.70346  20890167.6094                   20890163.4414
 11  9 27  3  8 30.0000000  0  8G22G09G29G06G18G15G26G21
  12584247.46847   9834144.16544  23285681.5004                   23285676.6564
  15548789.01847  12146387.06644  23600958.9304                   23600957.8014
 -27818893.74347 -21658992.44346  21621125.0864   21621123.8014   19127359.36247
  14935126.82643                  23968904.4304                   23968902.3134
 -14134100.32348 -11000889.45846  21217786.4224                   21217782.4804
 -21009824.40648 -16352250.51446  21002253.4924                   21002251.2424
 -14683723.19346 -11422412.00943  23271638.1804                   23271635.3364
 -21501283.21348 -16742708.18746  20866638.1884                   20866634.1564
 11  9 27  3  9  0.0000000  0  8G22G09G29G06G18G15G26G21
  12452550.08847   9731522.88744  23260620.5004                   23260615.5864
  15389702.25347  12022423.44844  23570685.2504                   23570685.3364
 -27806974.07447 -21649704.41846  21623393.8914   21623392.5394   18982903.09347
  14822563.52143                  23941415.1334                   23941413.8754
 -14225373.41348 -11072011.32046  21200417.4614                   21200414.6414
 -21028391.29948 -16366718.21546  20998720.3594                   20998717.4804
 -14650826.02347 -11396777.75043  23277898.2114                   23277895.8674
 -21624730.22648 -16838900.65746  20843146.7114                   20843142.7774
 11  9 27  3  9 30.0000000  0  8G22G09G29G06G18G15G26G21
  13896407.37647  10856606.49144  23535376.8444                   23535372.3094
  16806144.80247  13126144.98044  23840225.7424                   23840225.0354
 -26219320.07947 -20412571.45346  21925514.6884   21925513.1604   20414222.07447
  15937877.03943                  24213786.8984                   24213784.7234
 -12741078.98648  -9915418.24446  21482869.3754                   21482865.7664
 -19471086.53748 -15153233.98146  21295065.7034                   21295062.8794
 -13042237.09947 -10143331.88243  23584002.5234                   23584000.2934
 -20172548.73948 -15707330.64846  21119487.9224                   21119484.4184
 11  9 27  3 10  0.0000000  0  8G22G09G29G06G18G15G26G21
  13764969.94247  10754187.76845  23510365.0474                   23510361.2154
  16647269.30647  13002345.96744  23809992.1884                   23809991.3204
 -26206774.15247 -20402795.44846  21927902.0634   21927900.3634   20270468.48447
  15825861.27643                  24186430.5394                   24186428.8714
 -12832064.01348  -9986315.64346  21465555.3834                   21465552.3594
 -19488753.57748 -15167000.50546  21291703.9384                   21291700.7234
 -13008797.77847 -10117275.26144  23590365.6094                   23590363.5204
 -20295584.63548 -15803202.75846  21096074.9844                   21096070.9064
 11  9 27  3 10 30.0000000  0  8G22G09G29G06G18G15G26G21
  13633661.27847  10651869.37745  23485378.2034                   23485373.4614
  16488504.16747  12878632.97844  23779780.3834                   23779779.3714
 -26193919.18147 -20392778.60846  21930348.0314   21930346.4264   20127068.90247
  15714121.41143                  24159142.9304                   24159141.1914
 -12922906.31848 -10057101.83346  21448268.6884                   21448265.6374
 -19505974.79948 -15180419.63546  21288426.8284                   21288424.2664
 -12975092.92347 -10091011.74544  23596779.3674                   23596777.5634
 -20418412.72948 -15898912.94446  21072701.5084                   21072697.5944
 11  9 27  3 11  0.0000000  0  8G22G09G29G06G18G15G26G21
  13502478.52347  10549649.09945  23460414.9384                   23460410.8874
  16329849.96047  12755006.41944  23749589.0234                   23749588.7424
 -26180760.73847 -20382525.30845  21932851.6174   21932851.0084   19984022.52747
  15602656.69443                  24131921.8284                   24131920.0084
 -13013608.97848 -10127779.20846  21431008.6334                   21431005.0944
 -19522755.13348 -15193495.22746  21285233.0394                   21285230.4344
 -12941128.16047 -10064545.68444  23603242.6024                   23603240.0274
 -20541033.37548 -15994461.48946  21049367.5554                   21049363.4494
 11  9 27  3 11 30.0000000  0  8G22G09G29G06G18G15G26G21
  13371422.68547  10447527.70045  23435475.1484                   23435470.6054
  16171311.68346  12631470.17344  23719419.6564                   23719419.3444
 -26167300.24747 -20372036.64645  21935413.9454   21935411.9574   19841332.74746
  15491469.86743                  24104768.3284                   24104766.9924
 -13104171.72848 -10198347.56946  21413775.3364                   21413771.6134
 -19539095.30448 -15206227.82746  21282124.2034                   21282121.2544
 -12906905.78247 -10037878.86343  23609755.0704                   23609753.3874
 -20663442.90848 -16089845.52046  21026073.6644                   21026070.0634
 11  9 27  3 12  0.0000000  0  8G22G09G29G06G18G15G26G21
  13240492.32747  10345504.06144  23410560.3524                   23410555.6094
  16012891.37147  12508025.85744  23689273.9844                   23689273.1024
 -26153541.82547 -20361315.82845  21938031.6954   21938029.7624   19699000.51646
  15380561.69243                  24077684.0394                   24077682.1214
 -13194596.06948 -10268808.07546  21396567.7664                   21396564.4144
 -19554999.16948 -15218620.44646  21279097.6564                   21279094.8054
 -12872429.91147 -10011014.57243  23616315.5164                   23616313.6994
 -20785640.50248 -16185064.41146  21002820.1724                   21002816.2154
 11  9 27  3 12 30.0000000  0  8G22G09G29G06G18G15G26G21
  13109686.93647  10243577.79944  23385669.1954                   23385664.0394
  15854592.45247  12384676.11944  23659151.2814                   23659149.9884
 -26139488.05847 -20350364.87245  21940706.0554   21940704.3794   19557027.55347
  15269933.43243                  24050667.6174                   24050665.3404
 -13284883.02248 -10339161.52446  21379386.9454                   21379382.9734
 -19570468.63047 -15230674.57246  21276154.1884                   21276151.1804
 -12837703.93847  -9983955.32343  23622924.0634                   23622922.0984
 -20907624.21248 -16280116.64646  20979607.1564                   20979603.6764
 11  9 27  3 13  0.0000000  0  8G22G09G29G06G18G15G26G21
  12979005.24647  10141747.99344  23360800.6884                   23360796.3204
  15696417.43047  12261422.93544  23629050.6954                   23629049.5354
 -26125142.56247 -20339186.58846  21943436.1954   21943434.8914   19415414.98547
  15159586.02743                  24023719.7734                   24023717.4804
 -13375034.67548 -10409409.55346  21362231.2504                   21362227.8284
 -19585507.22748 -15242392.97346  21273292.1094                   21273289.1214
 -12802732.24247  -9956704.64343  23629578.1724                   23629577.3404
 -21029392.94748 -16375001.35146  20956435.6174                   20956431.4384
 11  9 27  3 13 30.0000000  0  8G22G09G29G06G18G15G26G21
  12848449.95447  10040016.64544  23335956.6954                   23335952.6644
  15538373.14747  12138271.64244  23598976.0474                   23598975.6994
 -26110504.91447 -20327780.65945  21946221.4694   21946220.0084   19274167.87446
  15049523.40443                  23996841.1804                   23996838.4304
 -13465047.93847 -10479549.73446  21345102.2424                   21345098.4884
 -19600113.81547 -15253774.72446  21270512.5554                   21270510.2034
 -12767514.82247  -9929262.45243  23636279.7194                   23636278.0664
 -21150941.10148 -16469714.18646  20933306.0394                   20933301.8524
 11  9 27  3 14  0.0000000  0  8G22G09G29G06G18G15G26G21
  12718017.98247   9938381.38445  23311136.4694                   23311132.1724
  15380460.24347  12015222.69044  23568926.3834                   23568924.8954
 -26095580.70347 -20316151.43846  21949061.4924   21949060.1564   19133285.84846
  14939745.21943                  23970032.0234                   23970029.1564
 -13554926.25947 -10549584.78146  21327999.2034                   21327995.5634
 -19614293.66547 -15264823.94946  21267814.6484                   21267811.4654
 -12732057.27646  -9901633.18643  23643027.3984                   23643025.1954
 -21272269.67148 -16564255.90746  20910217.9064                   20910213.5784
 11  9 27  3 14 30.0000000  0  8G22G09G29G06G18G15G26G21
  12587709.86147   9836842.65944  23286339.6644                   23286335.5314
  15222682.71847  11892279.23744  23538901.8674                   23538900.4414
 -26080371.69147 -20304300.28446  21951955.5394   21951954.1994   18992771.15846
  14830253.31143                  23943293.0234                   23943291.2774
 -13644669.77647 -10619514.78146  21310921.3364                   21310917.4884
 -19628048.17148 -15275541.74746  21265196.9534                   21265194.2074
 -12696362.37746  -9873818.92843  23649819.7114                   23649817.5784
 -21393375.31848 -16658623.93746  20887172.1174                   20887168.2424
 11  9 27  3 15  0.0000000  0  9G22G09G29G06G14G18G15G26G21
  12457523.29447   9735398.62444  23261565.8284                   23261561.6724
  15065042.27447  11769442.58044  23508904.4844                   23508903.6294
 -26064882.47247 -20292230.77745  21954903.2734   21954902.1024   18852624.21546
  14721047.97243                  23916623.8444                   23916621.8794
  28141067.53856  21962982.17553  24553526.3444                   24553525.4924
 -13734280.97247 -10689341.65946  21293869.0234                   21293865.4924
 -19641381.38148 -15285931.26546  21262660.0634                   21262657.3554
 -12660434.96746  -9845823.58243  23656656.1804                   23656655.1174
 -21514257.92147 -16752818.15746  20864168.7504                   20864164.9614
 11  9 27  3 15 30.0000000  0  9G22G09G29G06G14G18G15G26G21
  12327456.86647   9634048.21044  23236815.0004                   23236810.7464
  14907541.11947  11646714.50944  23478932.5084                   23478930.9144
 -26049117.00147 -20279946.02846  21957903.4614   21957902.2154   18712845.64147
  14612129.65544                  23890024.7504                   23890022.2814
  27959721.11946  21821673.43443  24519016.9614                   24519016.5784
 -13823761.86948 -10759067.02746  21276841.1024                   21276837.8054
 -19654297.05147 -15295995.42446  21260202.1024                   21260199.2464
 -12624279.58246  -9817650.47743  23663536.9924                   23663535.6214
 -21634916.78348 -16846838.03746  20841208.3204                   20841203.9064
 11  9 27  3 16  0.0000000  0  9G22G09G29G06G14G18G15G26G21
  12197506.34747   9532788.12044  23212086.0004                   23212082.7304
  14750178.95747  11524094.68544  23448987.5944                   23448986.5664
 -26033081.98247 -20267451.25146  21960955.1644   21960953.7384   18573433.40246
  14503496.80843                  23863495.0314                   23863493.3324
  27778453.22745  21680425.91343  24484522.1094                   24484521.8364
 -13913116.58548 -10828694.04846  21259837.4454                   21259833.8954
 -19666801.15447 -15305738.88546  21257822.4614                   21257819.6254
 -12587903.40046  -9789305.42343  23670459.6954                   23670457.2934
 -21755353.49348 -16940684.80746  20818289.9384                   20818285.7734
 11  9 27  3 16 30.0000000  0  9G22G09G29G06G14G18G15G26G21
  12067674.97247   9431620.88244  23187379.7664                   23187375.2854
  14592962.82547  11401588.68944  23419070.1884                   23419068.8754
 -26016776.66547 -20254745.83345  21964057.7274   21964055.8284   18434393.09746
  14395153.76944                  23837036.7194                   23837034.7114
  27597269.89045  21539244.26642  24450043.5634                   24450043.1844
 -14002342.38048 -10898220.62146  21242858.7504                   21242855.2194
 -19678892.74948 -15315160.91446  21255521.6954                   21255518.4844
 -12551305.99446  -9760787.90243  23677423.2274                   23677420.6374
 -21875562.30848 -17034353.99246  20795414.9534                   20795410.6684
 11  9 27  3 17  0.0000000  0  9G22G09G29G06G14G18G15G26G21
  11937965.49947   9330548.57244  23162696.9144                   23162692.0704
  14435899.34347  11279201.61944  23389181.9534                   23389180.8554
 -26000200.15747 -20241829.11945  21967212.2734   21967210.2504   18295729.73446
  14287104.43243                  23810650.0314                   23810647.3164
  27416176.45545  21398132.65642  24415583.1094                   24415581.4614
 -14091436.84048 -10967644.87046  21225904.6484                   21225901.1914
 -19690570.69048 -15324260.62346  21253299.4844                   21253297.0354
 -12514487.13247  -9732097.86143  23684429.2664                   23684428.0124
 -21995537.77448 -17127841.36346  20772584.4534                   20772580.1564
 11  9 27  3 17 30.0000000  0  9G22G09G29G06G14G18G15G26G21
  11808378.77847   9229571.97144  23138037.7034                   23138033.1884
  14278993.03247  11156937.04744  23359323.6804                   23359322.3134
 -25983354.35647 -20228702.55245  21970418.0234   21970416.1334   18157446.45247
  14179351.25943                  23784335.3134                   23784333.1684
  27235176.36245  21257093.84842  24381138.8204                   24381136.5554
 -14180399.30248 -11036966.26246  21208975.3754                   21208971.8284
 -19701836.49448 -15333039.18546  21251155.5634                   21251152.7934
 -12477449.13146  -9703237.10243  23691477.9774                   23691475.9454
 -22115276.59148 -17221144.33046  20749798.8674                   20749794.8094
 11  9 27  3 18  0.0000000  0  9G22G09G29G06G14G18G15G26G21
  11678917.22147   9128692.93744  23113402.4534                   23113397.3674
  14122250.44347  11034800.01844  23329496.4144                   23329495.1484
 -25966239.03447 -20215365.97245  21973674.8364   21973673.1024   18019548.09347
  14071898.04143                  23758095.2894                   23758092.1524
  27054274.66745  21116131.67242  24346714.7664                   24346712.4534
 -14269227.44448 -11106182.96746  21192072.1024                   21192068.6094
 -19712689.55648 -15341496.11746  21249090.0634                   21249087.4534
 -12440192.01246  -9674205.55143  23698566.7424                   23698565.4694
 -22234773.50748 -17314258.80446  20727059.2664                   20727055.3834
 11  9 27  3 18 30.0000000  0  9G22G09G29G06G14G18G15G26G21
  11549579.74447   9027910.54744  23088789.6334                   23088784.3244
  13965674.29647  10912792.69744  23299701.2424                   23299699.5434
 -25948857.87647 -20201822.24745  21976982.3134   21976980.5314   17882035.70646
  13964745.58543                  23731926.7504                   23731924.4064
  26873473.24846  20975247.51642  24312309.9304                   24312307.0084
 -14357922.86248 -11175296.26546  21175193.7424                   21175190.0164
 -19723132.70548 -15349633.64446  21247103.0704                   21247100.0234
 -12402719.79346  -9645006.41643  23705698.2584                   23705695.0434
 -22354027.20448 -17407183.74946  20704366.0394                   20704362.4534
 11  9 27  3 19  0.0000000  0  9G22G09G29G06G14G18G15G26G21
  11420366.47047   8927224.94644  23064200.9144                   23064196.4224
  13809268.77547  10790918.31644  23269938.1024                   23269936.2504
 -25931212.99847 -20188073.03645  21980339.4304   21980338.5124   17744911.56546
  13857895.64643                  23705833.3674                   23705830.6294
  26692774.91246  20834443.76242  24277923.8524                   24277922.3364
 -14446485.78448 -11244306.31646  21158341.0944                   21158337.3054
 -19733168.01848 -15357453.38346  21245193.0944                   21245190.8914
 -12365035.11246  -9615641.73343  23712869.3054                   23712867.0514
 -22473035.55848 -17499917.52146  20681719.5164                   20681715.2704
 11  9 27  3 19 30.0000000  0  9G22G09G29G06G14G18G15G26G21
  11291277.59047   8826636.18944  23039636.4144                   23039632.2464
  13653037.83347  10669180.00844  23240208.1644                   23240206.9614
 -25913306.53747 -20174119.96645  21983747.5784   21983746.0864   17608178.28347
  13751350.24544                  23679813.7114                   23679810.3634
  26512182.55446  20693722.61743  24243558.8284                   24243557.0234
 -14534916.03348 -11313212.98546  21141513.2114                   21141509.9304
 -19742797.10548 -15364956.57546  21243361.2584                   21243358.5984
 -12327140.61046  -9586113.55343  23720080.7114                   23720078.1684
 -22591795.46848 -17592457.69746  20659120.2664                   20659116.2194
 11  9 27  3 20  0.0000000  0  9G22G09G29G06G14G18G15G26G21
  12737736.95947   9953747.41545  23314889.0084                   23314883.8794
  15072410.10947  11775184.42244  23510304.6024                   23510304.0394
 -24319722.19547 -18932365.98445  22286996.7424   22286994.7424   19047262.08746
  14872714.28444                  23953662.0634                   23953660.2664
  27907124.33246  21780690.33743  24509006.8134                   24509005.8754
 -13047791.56248 -10154414.67846  21424503.4534                   21424499.9494
 -18176602.60848 -14144545.28846  21541397.7114                   21541395.1094
 -10713621.00846  -8328825.48343  24027122.4774                   24027120.9024
 -21134880.90048 -16457199.58346  20936362.0084                   20936357.9844
 11  9 27  3 20 30.0000000  0  9G22G09G29G06G14G18G15G26G21
  12608894.16247   9853350.50545  23290371.1564                   23290366.0744
  14916536.85147  11653724.80744  23480643.3524                   23480642.5044
 -24301303.04247 -18918013.45145  22290501.7734   22290499.7814   18911314.13546
  14766780.85344                  23927792.0234                   23927789.2274
  27726748.30646  21640137.75243  24474682.5634                   24474681.8484
 -13135960.09548 -10223117.42846  21407725.8284                   21407722.5124
 -18185428.93448 -14151422.94746  21539718.3984                   21539715.5594
 -10675318.00946  -8298978.99543  24034411.7894                   24034410.4144
 -21253139.20348 -16549348.90546  20913857.9224                   20913853.7074
 11  9 27  3 21  0.0000000  0  9G22G09G29G06G14G18G15G26G21
  12480173.07847   9753048.41745  23265875.3524                   23265871.2774
  14760846.89447  11532408.03244  23451016.8284                   23451015.3874
 -24282632.40847 -18903464.91645  22294054.5944   22294053.0664   18775760.65046
  14661154.79744                  23901997.1644                   23901995.1914
  27546483.47946  21499671.82543  24440378.5004                   24440378.1024
 -13223999.38448 -10291719.44846  21390972.1484                   21390968.8524
 -18193857.95048 -14157991.01846  21538114.6724                   21538111.5704
 -10636816.40946  -8268977.70943  24041738.4064                   24041736.1604
 -21371144.32148 -16641300.94546  20891402.2114                   20891398.4844
